<?xml version="1.0" encoding="UTF-8" standalone="no" ?>
<gpx xmlns="http://www.topografix.com/GPX/1/1" xmlns:xsi="http://www.w3.org/2001/XMLSchema-instance" xsi:schemaLocation="http://www.topografix.com/GPX/1/1 http://www.topografix.com/GPX/1/1/gpx.xsd" version="1.1" creator="VisuGPX - https://www.visugpx.com">
  <metadata>
    <name>Mont Jovet</name>
    <desc><![CDATA[Départ de ND du pré]]></desc>
  </metadata>
  <trk>
    <name><![CDATA[Tracé actuel: 15 MARS 2015 08:05]]></name>
    <trkseg>
      <trkpt lat="45.51341" lon="6.59846">
        <ele>1249.85</ele>
        <time>2015-03-15T07:05:35Z</time>
      </trkpt>
      <trkpt lat="45.51339" lon="6.59843">
        <ele>1251.29</ele>
        <time>2015-03-15T07:06:25Z</time>
      </trkpt>
      <trkpt lat="45.51339" lon="6.59842">
        <ele>1253.22</ele>
        <time>2015-03-15T07:07:07Z</time>
      </trkpt>
      <trkpt lat="45.5134" lon="6.59845">
        <ele>1255.14</ele>
        <time>2015-03-15T07:08:10Z</time>
      </trkpt>
      <trkpt lat="45.5134" lon="6.59847">
        <ele>1255.62</ele>
        <time>2015-03-15T07:08:56Z</time>
      </trkpt>
      <trkpt lat="45.51336" lon="6.59844">
        <ele>1256.1</ele>
        <time>2015-03-15T07:09:29Z</time>
      </trkpt>
      <trkpt lat="45.51334" lon="6.59845">
        <ele>1257.54</ele>
        <time>2015-03-15T07:10:02Z</time>
      </trkpt>
      <trkpt lat="45.51334" lon="6.59843">
        <ele>1258.02</ele>
        <time>2015-03-15T07:10:18Z</time>
      </trkpt>
      <trkpt lat="45.5134" lon="6.59841">
        <ele>1258.02</ele>
        <time>2015-03-15T07:10:31Z</time>
      </trkpt>
      <trkpt lat="45.51341" lon="6.59844">
        <ele>1254.66</ele>
        <time>2015-03-15T07:10:42Z</time>
      </trkpt>
      <trkpt lat="45.51341" lon="6.59844">
        <ele>1258.02</ele>
        <time>2015-03-15T07:10:43Z</time>
      </trkpt>
      <trkpt lat="45.51341" lon="6.59844">
        <ele>1255.62</ele>
        <time>2015-03-15T07:10:47Z</time>
      </trkpt>
      <trkpt lat="45.51341" lon="6.59844">
        <ele>1256.58</ele>
        <time>2015-03-15T07:10:49Z</time>
      </trkpt>
      <trkpt lat="45.51339" lon="6.59842">
        <ele>1255.62</ele>
        <time>2015-03-15T07:10:57Z</time>
      </trkpt>
      <trkpt lat="45.51342" lon="6.59843">
        <ele>1260.91</ele>
        <time>2015-03-15T07:11:10Z</time>
      </trkpt>
      <trkpt lat="45.51341" lon="6.59843">
        <ele>1258.5</ele>
        <time>2015-03-15T07:11:13Z</time>
      </trkpt>
      <trkpt lat="45.51337" lon="6.59842">
        <ele>1258.5</ele>
        <time>2015-03-15T07:11:24Z</time>
      </trkpt>
      <trkpt lat="45.51336" lon="6.59842">
        <ele>1258.5</ele>
        <time>2015-03-15T07:11:27Z</time>
      </trkpt>
      <trkpt lat="45.51333" lon="6.59845">
        <ele>1258.98</ele>
        <time>2015-03-15T07:11:42Z</time>
      </trkpt>
      <trkpt lat="45.51333" lon="6.59845">
        <ele>1258.98</ele>
        <time>2015-03-15T07:11:47Z</time>
      </trkpt>
      <trkpt lat="45.5134" lon="6.59844">
        <ele>1258.98</ele>
        <time>2015-03-15T07:12:01Z</time>
      </trkpt>
      <trkpt lat="45.51336" lon="6.59843">
        <ele>1259.46</ele>
        <time>2015-03-15T07:12:15Z</time>
      </trkpt>
      <trkpt lat="45.51334" lon="6.5984">
        <ele>1259.94</ele>
        <time>2015-03-15T07:12:36Z</time>
      </trkpt>
      <trkpt lat="45.51338" lon="6.59844">
        <ele>1259.94</ele>
        <time>2015-03-15T07:12:53Z</time>
      </trkpt>
      <trkpt lat="45.51339" lon="6.59843">
        <ele>1260.43</ele>
        <time>2015-03-15T07:13:10Z</time>
      </trkpt>
      <trkpt lat="45.5134" lon="6.59843">
        <ele>1260.91</ele>
        <time>2015-03-15T07:13:30Z</time>
      </trkpt>
      <trkpt lat="45.51336" lon="6.59842">
        <ele>1261.39</ele>
        <time>2015-03-15T07:13:51Z</time>
      </trkpt>
      <trkpt lat="45.51335" lon="6.59842">
        <ele>1261.39</ele>
        <time>2015-03-15T07:13:59Z</time>
      </trkpt>
      <trkpt lat="45.51336" lon="6.59842">
        <ele>1261.39</ele>
        <time>2015-03-15T07:14:01Z</time>
      </trkpt>
      <trkpt lat="45.51339" lon="6.59841">
        <ele>1262.35</ele>
        <time>2015-03-15T07:14:17Z</time>
      </trkpt>
      <trkpt lat="45.51338" lon="6.59843">
        <ele>1262.83</ele>
        <time>2015-03-15T07:14:30Z</time>
      </trkpt>
      <trkpt lat="45.51335" lon="6.59843">
        <ele>1263.31</ele>
        <time>2015-03-15T07:14:44Z</time>
      </trkpt>
      <trkpt lat="45.51336" lon="6.59841">
        <ele>1262.83</ele>
        <time>2015-03-15T07:15:03Z</time>
      </trkpt>
      <trkpt lat="45.51336" lon="6.59839">
        <ele>1265.23</ele>
        <time>2015-03-15T07:15:24Z</time>
      </trkpt>
      <trkpt lat="45.51336" lon="6.59839">
        <ele>1263.79</ele>
        <time>2015-03-15T07:15:26Z</time>
      </trkpt>
      <trkpt lat="45.51335" lon="6.59836">
        <ele>1264.75</ele>
        <time>2015-03-15T07:15:59Z</time>
      </trkpt>
      <trkpt lat="45.51332" lon="6.59833">
        <ele>1265.71</ele>
        <time>2015-03-15T07:16:18Z</time>
      </trkpt>
      <trkpt lat="45.51333" lon="6.59835">
        <ele>1265.23</ele>
        <time>2015-03-15T07:16:29Z</time>
      </trkpt>
      <trkpt lat="45.51334" lon="6.59842">
        <ele>1263.79</ele>
        <time>2015-03-15T07:16:52Z</time>
      </trkpt>
      <trkpt lat="45.51339" lon="6.59844">
        <ele>1265.71</ele>
        <time>2015-03-15T07:17:14Z</time>
      </trkpt>
      <trkpt lat="45.51338" lon="6.59845">
        <ele>1267.16</ele>
        <time>2015-03-15T07:17:24Z</time>
      </trkpt>
      <trkpt lat="45.51337" lon="6.59844">
        <ele>1266.19</ele>
        <time>2015-03-15T07:17:27Z</time>
      </trkpt>
      <trkpt lat="45.5134" lon="6.59842">
        <ele>1266.67</ele>
        <time>2015-03-15T07:17:58Z</time>
      </trkpt>
      <trkpt lat="45.51339" lon="6.59845">
        <ele>1268.6</ele>
        <time>2015-03-15T07:18:15Z</time>
      </trkpt>
      <trkpt lat="45.51341" lon="6.59846">
        <ele>1266.67</ele>
        <time>2015-03-15T07:18:25Z</time>
      </trkpt>
      <trkpt lat="45.51335" lon="6.59846">
        <ele>1268.12</ele>
        <time>2015-03-15T07:18:34Z</time>
      </trkpt>
      <trkpt lat="45.51335" lon="6.59846">
        <ele>1267.64</ele>
        <time>2015-03-15T07:18:54Z</time>
      </trkpt>
      <trkpt lat="45.51338" lon="6.59847">
        <ele>1268.12</ele>
        <time>2015-03-15T07:19:14Z</time>
      </trkpt>
      <trkpt lat="45.51341" lon="6.59846">
        <ele>1268.6</ele>
        <time>2015-03-15T07:19:30Z</time>
      </trkpt>
      <trkpt lat="45.51336" lon="6.59844">
        <ele>1268.6</ele>
        <time>2015-03-15T07:19:41Z</time>
      </trkpt>
      <trkpt lat="45.51336" lon="6.59848">
        <ele>1269.08</ele>
        <time>2015-03-15T07:19:59Z</time>
      </trkpt>
      <trkpt lat="45.51338" lon="6.59851">
        <ele>1269.08</ele>
        <time>2015-03-15T07:20:19Z</time>
      </trkpt>
      <trkpt lat="45.51335" lon="6.59845">
        <ele>1269.56</ele>
        <time>2015-03-15T07:20:37Z</time>
      </trkpt>
      <trkpt lat="45.51335" lon="6.59843">
        <ele>1270.04</ele>
        <time>2015-03-15T07:20:53Z</time>
      </trkpt>
      <trkpt lat="45.51334" lon="6.59845">
        <ele>1270.52</ele>
        <time>2015-03-15T07:21:07Z</time>
      </trkpt>
      <trkpt lat="45.51336" lon="6.5985">
        <ele>1271</ele>
        <time>2015-03-15T07:21:27Z</time>
      </trkpt>
      <trkpt lat="45.51333" lon="6.59848">
        <ele>1268.12</ele>
        <time>2015-03-15T07:21:46Z</time>
      </trkpt>
      <trkpt lat="45.51333" lon="6.59848">
        <ele>1271.48</ele>
        <time>2015-03-15T07:21:47Z</time>
      </trkpt>
      <trkpt lat="45.51332" lon="6.59846">
        <ele>1267.64</ele>
        <time>2015-03-15T07:21:56Z</time>
      </trkpt>
      <trkpt lat="45.51332" lon="6.59846">
        <ele>1272.44</ele>
        <time>2015-03-15T07:21:58Z</time>
      </trkpt>
      <trkpt lat="45.51336" lon="6.59853">
        <ele>1270.52</ele>
        <time>2015-03-15T07:22:12Z</time>
      </trkpt>
      <trkpt lat="45.51323" lon="6.59865">
        <ele>1272.44</ele>
        <time>2015-03-15T07:22:31Z</time>
      </trkpt>
      <trkpt lat="45.51309" lon="6.59872">
        <ele>1273.88</ele>
        <time>2015-03-15T07:22:45Z</time>
      </trkpt>
      <trkpt lat="45.51301" lon="6.59878">
        <ele>1274.36</ele>
        <time>2015-03-15T07:22:54Z</time>
      </trkpt>
      <trkpt lat="45.51297" lon="6.5989">
        <ele>1275.33</ele>
        <time>2015-03-15T07:23:02Z</time>
      </trkpt>
      <trkpt lat="45.51298" lon="6.59902">
        <ele>1276.29</ele>
        <time>2015-03-15T07:23:09Z</time>
      </trkpt>
      <trkpt lat="45.51296" lon="6.59909">
        <ele>1277.25</ele>
        <time>2015-03-15T07:23:14Z</time>
      </trkpt>
      <trkpt lat="45.51297" lon="6.59916">
        <ele>1275.81</ele>
        <time>2015-03-15T07:23:19Z</time>
      </trkpt>
      <trkpt lat="45.51297" lon="6.59923">
        <ele>1277.25</ele>
        <time>2015-03-15T07:23:24Z</time>
      </trkpt>
      <trkpt lat="45.51296" lon="6.59924">
        <ele>1277.25</ele>
        <time>2015-03-15T07:23:40Z</time>
      </trkpt>
      <trkpt lat="45.51295" lon="6.59926">
        <ele>1278.69</ele>
        <time>2015-03-15T07:23:57Z</time>
      </trkpt>
      <trkpt lat="45.51298" lon="6.59926">
        <ele>1278.69</ele>
        <time>2015-03-15T07:24:12Z</time>
      </trkpt>
      <trkpt lat="45.51296" lon="6.59925">
        <ele>1279.17</ele>
        <time>2015-03-15T07:24:37Z</time>
      </trkpt>
      <trkpt lat="45.51297" lon="6.59924">
        <ele>1279.17</ele>
        <time>2015-03-15T07:24:53Z</time>
      </trkpt>
      <trkpt lat="45.51296" lon="6.59927">
        <ele>1279.65</ele>
        <time>2015-03-15T07:25:08Z</time>
      </trkpt>
      <trkpt lat="45.51297" lon="6.59938">
        <ele>1278.69</ele>
        <time>2015-03-15T07:25:28Z</time>
      </trkpt>
      <trkpt lat="45.51297" lon="6.59944">
        <ele>1279.65</ele>
        <time>2015-03-15T07:25:33Z</time>
      </trkpt>
      <trkpt lat="45.51295" lon="6.59962">
        <ele>1281.57</ele>
        <time>2015-03-15T07:25:46Z</time>
      </trkpt>
      <trkpt lat="45.51289" lon="6.59978">
        <ele>1282.54</ele>
        <time>2015-03-15T07:25:59Z</time>
      </trkpt>
      <trkpt lat="45.51287" lon="6.59983">
        <ele>1282.54</ele>
        <time>2015-03-15T07:26:15Z</time>
      </trkpt>
      <trkpt lat="45.51286" lon="6.59985">
        <ele>1282.54</ele>
        <time>2015-03-15T07:26:17Z</time>
      </trkpt>
      <trkpt lat="45.51285" lon="6.59988">
        <ele>1283.02</ele>
        <time>2015-03-15T07:26:19Z</time>
      </trkpt>
      <trkpt lat="45.51277" lon="6.59998">
        <ele>1283.98</ele>
        <time>2015-03-15T07:26:31Z</time>
      </trkpt>
      <trkpt lat="45.51276" lon="6.59999">
        <ele>1283.98</ele>
        <time>2015-03-15T07:26:32Z</time>
      </trkpt>
      <trkpt lat="45.51261" lon="6.60012">
        <ele>1284.94</ele>
        <time>2015-03-15T07:26:48Z</time>
      </trkpt>
      <trkpt lat="45.51247" lon="6.6002">
        <ele>1285.9</ele>
        <time>2015-03-15T07:27:01Z</time>
      </trkpt>
      <trkpt lat="45.51238" lon="6.60028">
        <ele>1286.86</ele>
        <time>2015-03-15T07:27:13Z</time>
      </trkpt>
      <trkpt lat="45.51228" lon="6.60032">
        <ele>1288.3</ele>
        <time>2015-03-15T07:27:25Z</time>
      </trkpt>
      <trkpt lat="45.51214" lon="6.60038">
        <ele>1289.27</ele>
        <time>2015-03-15T07:27:39Z</time>
      </trkpt>
      <trkpt lat="45.51199" lon="6.6004">
        <ele>1290.71</ele>
        <time>2015-03-15T07:27:53Z</time>
      </trkpt>
      <trkpt lat="45.51188" lon="6.60048">
        <ele>1291.67</ele>
        <time>2015-03-15T07:28:07Z</time>
      </trkpt>
      <trkpt lat="45.51186" lon="6.6005">
        <ele>1292.15</ele>
        <time>2015-03-15T07:28:09Z</time>
      </trkpt>
      <trkpt lat="45.51174" lon="6.60069">
        <ele>1293.59</ele>
        <time>2015-03-15T07:28:26Z</time>
      </trkpt>
      <trkpt lat="45.51168" lon="6.60076">
        <ele>1294.07</ele>
        <time>2015-03-15T07:28:37Z</time>
      </trkpt>
      <trkpt lat="45.51166" lon="6.60078">
        <ele>1295.51</ele>
        <time>2015-03-15T07:28:40Z</time>
      </trkpt>
      <trkpt lat="45.5115" lon="6.60089">
        <ele>1296.48</ele>
        <time>2015-03-15T07:28:51Z</time>
      </trkpt>
      <trkpt lat="45.51139" lon="6.60096">
        <ele>1297.44</ele>
        <time>2015-03-15T07:29:03Z</time>
      </trkpt>
      <trkpt lat="45.51129" lon="6.601">
        <ele>1298.88</ele>
        <time>2015-03-15T07:29:16Z</time>
      </trkpt>
      <trkpt lat="45.51122" lon="6.60101">
        <ele>1299.36</ele>
        <time>2015-03-15T07:29:23Z</time>
      </trkpt>
      <trkpt lat="45.51114" lon="6.601">
        <ele>1300.8</ele>
        <time>2015-03-15T07:29:33Z</time>
      </trkpt>
      <trkpt lat="45.51112" lon="6.601">
        <ele>1301.76</ele>
        <time>2015-03-15T07:29:35Z</time>
      </trkpt>
      <trkpt lat="45.51099" lon="6.60102">
        <ele>1301.76</ele>
        <time>2015-03-15T07:29:48Z</time>
      </trkpt>
      <trkpt lat="45.5109" lon="6.60099">
        <ele>1303.2</ele>
        <time>2015-03-15T07:29:59Z</time>
      </trkpt>
      <trkpt lat="45.51077" lon="6.60102">
        <ele>1303.69</ele>
        <time>2015-03-15T07:30:10Z</time>
      </trkpt>
      <trkpt lat="45.51074" lon="6.60102">
        <ele>1304.65</ele>
        <time>2015-03-15T07:30:12Z</time>
      </trkpt>
      <trkpt lat="45.51062" lon="6.601">
        <ele>1306.09</ele>
        <time>2015-03-15T07:30:24Z</time>
      </trkpt>
      <trkpt lat="45.51059" lon="6.60098">
        <ele>1306.57</ele>
        <time>2015-03-15T07:30:27Z</time>
      </trkpt>
      <trkpt lat="45.51057" lon="6.60096">
        <ele>1306.57</ele>
        <time>2015-03-15T07:30:29Z</time>
      </trkpt>
      <trkpt lat="45.51048" lon="6.60088">
        <ele>1308.01</ele>
        <time>2015-03-15T07:30:40Z</time>
      </trkpt>
      <trkpt lat="45.51043" lon="6.60084">
        <ele>1308.01</ele>
        <time>2015-03-15T07:30:44Z</time>
      </trkpt>
      <trkpt lat="45.5104" lon="6.60078">
        <ele>1308.01</ele>
        <time>2015-03-15T07:30:50Z</time>
      </trkpt>
      <trkpt lat="45.51031" lon="6.60067">
        <ele>1309.93</ele>
        <time>2015-03-15T07:31:04Z</time>
      </trkpt>
      <trkpt lat="45.51025" lon="6.60064">
        <ele>1310.41</ele>
        <time>2015-03-15T07:31:10Z</time>
      </trkpt>
      <trkpt lat="45.51015" lon="6.60061">
        <ele>1312.34</ele>
        <time>2015-03-15T07:31:20Z</time>
      </trkpt>
      <trkpt lat="45.51005" lon="6.60055">
        <ele>1314.74</ele>
        <time>2015-03-15T07:31:32Z</time>
      </trkpt>
      <trkpt lat="45.50996" lon="6.60049">
        <ele>1315.7</ele>
        <time>2015-03-15T07:31:42Z</time>
      </trkpt>
      <trkpt lat="45.50981" lon="6.60044">
        <ele>1316.18</ele>
        <time>2015-03-15T07:31:55Z</time>
      </trkpt>
      <trkpt lat="45.50976" lon="6.60041">
        <ele>1316.18</ele>
        <time>2015-03-15T07:32:01Z</time>
      </trkpt>
      <trkpt lat="45.50967" lon="6.6003">
        <ele>1317.62</ele>
        <time>2015-03-15T07:32:16Z</time>
      </trkpt>
      <trkpt lat="45.50954" lon="6.6002">
        <ele>1319.07</ele>
        <time>2015-03-15T07:32:30Z</time>
      </trkpt>
      <trkpt lat="45.50947" lon="6.60015">
        <ele>1319.55</ele>
        <time>2015-03-15T07:32:37Z</time>
      </trkpt>
      <trkpt lat="45.50938" lon="6.60003">
        <ele>1320.51</ele>
        <time>2015-03-15T07:32:50Z</time>
      </trkpt>
      <trkpt lat="45.50933" lon="6.59994">
        <ele>1320.51</ele>
        <time>2015-03-15T07:32:57Z</time>
      </trkpt>
      <trkpt lat="45.50932" lon="6.59992">
        <ele>1320.51</ele>
        <time>2015-03-15T07:32:59Z</time>
      </trkpt>
      <trkpt lat="45.50931" lon="6.5999">
        <ele>1320.51</ele>
        <time>2015-03-15T07:33:01Z</time>
      </trkpt>
      <trkpt lat="45.50924" lon="6.59972">
        <ele>1321.47</ele>
        <time>2015-03-15T07:33:13Z</time>
      </trkpt>
      <trkpt lat="45.50922" lon="6.59968">
        <ele>1322.43</ele>
        <time>2015-03-15T07:33:17Z</time>
      </trkpt>
      <trkpt lat="45.5092" lon="6.59959">
        <ele>1322.91</ele>
        <time>2015-03-15T07:33:24Z</time>
      </trkpt>
      <trkpt lat="45.50919" lon="6.59955">
        <ele>1322.91</ele>
        <time>2015-03-15T07:33:27Z</time>
      </trkpt>
      <trkpt lat="45.50913" lon="6.59947">
        <ele>1324.83</ele>
        <time>2015-03-15T07:33:37Z</time>
      </trkpt>
      <trkpt lat="45.50905" lon="6.59939">
        <ele>1326.76</ele>
        <time>2015-03-15T07:33:48Z</time>
      </trkpt>
      <trkpt lat="45.50905" lon="6.59937">
        <ele>1327.24</ele>
        <time>2015-03-15T07:33:50Z</time>
      </trkpt>
      <trkpt lat="45.50898" lon="6.59927">
        <ele>1328.2</ele>
        <time>2015-03-15T07:34:02Z</time>
      </trkpt>
      <trkpt lat="45.50894" lon="6.59923">
        <ele>1328.68</ele>
        <time>2015-03-15T07:34:07Z</time>
      </trkpt>
      <trkpt lat="45.50889" lon="6.59919">
        <ele>1329.16</ele>
        <time>2015-03-15T07:34:13Z</time>
      </trkpt>
      <trkpt lat="45.50882" lon="6.59912">
        <ele>1332.04</ele>
        <time>2015-03-15T07:34:24Z</time>
      </trkpt>
      <trkpt lat="45.50881" lon="6.59911">
        <ele>1330.12</ele>
        <time>2015-03-15T07:34:25Z</time>
      </trkpt>
      <trkpt lat="45.5088" lon="6.5991">
        <ele>1330.6</ele>
        <time>2015-03-15T07:34:27Z</time>
      </trkpt>
      <trkpt lat="45.50875" lon="6.59904">
        <ele>1332.52</ele>
        <time>2015-03-15T07:34:35Z</time>
      </trkpt>
      <trkpt lat="45.50874" lon="6.59903">
        <ele>1332.52</ele>
        <time>2015-03-15T07:34:37Z</time>
      </trkpt>
      <trkpt lat="45.50867" lon="6.59898">
        <ele>1333.49</ele>
        <time>2015-03-15T07:34:47Z</time>
      </trkpt>
      <trkpt lat="45.50866" lon="6.59897">
        <ele>1333.97</ele>
        <time>2015-03-15T07:34:49Z</time>
      </trkpt>
      <trkpt lat="45.5086" lon="6.59893">
        <ele>1335.89</ele>
        <time>2015-03-15T07:34:57Z</time>
      </trkpt>
      <trkpt lat="45.50859" lon="6.59892">
        <ele>1336.37</ele>
        <time>2015-03-15T07:34:59Z</time>
      </trkpt>
      <trkpt lat="45.5085" lon="6.59888">
        <ele>1339.25</ele>
        <time>2015-03-15T07:35:09Z</time>
      </trkpt>
      <trkpt lat="45.50842" lon="6.59882">
        <ele>1341.18</ele>
        <time>2015-03-15T07:35:22Z</time>
      </trkpt>
      <trkpt lat="45.50834" lon="6.59876">
        <ele>1343.58</ele>
        <time>2015-03-15T07:35:34Z</time>
      </trkpt>
      <trkpt lat="45.50827" lon="6.59872">
        <ele>1344.54</ele>
        <time>2015-03-15T07:35:46Z</time>
      </trkpt>
      <trkpt lat="45.5082" lon="6.5987">
        <ele>1346.46</ele>
        <time>2015-03-15T07:35:57Z</time>
      </trkpt>
      <trkpt lat="45.50817" lon="6.59868">
        <ele>1345.98</ele>
        <time>2015-03-15T07:36:02Z</time>
      </trkpt>
      <trkpt lat="45.50808" lon="6.59863">
        <ele>1349.35</ele>
        <time>2015-03-15T07:36:14Z</time>
      </trkpt>
      <trkpt lat="45.50804" lon="6.59861">
        <ele>1350.79</ele>
        <time>2015-03-15T07:36:20Z</time>
      </trkpt>
      <trkpt lat="45.50801" lon="6.5986">
        <ele>1350.79</ele>
        <time>2015-03-15T07:36:24Z</time>
      </trkpt>
      <trkpt lat="45.50798" lon="6.59857">
        <ele>1352.23</ele>
        <time>2015-03-15T07:36:28Z</time>
      </trkpt>
      <trkpt lat="45.50791" lon="6.59854">
        <ele>1354.63</ele>
        <time>2015-03-15T07:36:38Z</time>
      </trkpt>
      <trkpt lat="45.50779" lon="6.5985">
        <ele>1355.12</ele>
        <time>2015-03-15T07:36:55Z</time>
      </trkpt>
      <trkpt lat="45.50779" lon="6.59849">
        <ele>1355.12</ele>
        <time>2015-03-15T07:36:56Z</time>
      </trkpt>
      <trkpt lat="45.50774" lon="6.59847">
        <ele>1357.04</ele>
        <time>2015-03-15T07:37:04Z</time>
      </trkpt>
      <trkpt lat="45.50766" lon="6.59843">
        <ele>1357.04</ele>
        <time>2015-03-15T07:37:15Z</time>
      </trkpt>
      <trkpt lat="45.50762" lon="6.5984">
        <ele>1360.4</ele>
        <time>2015-03-15T07:37:20Z</time>
      </trkpt>
      <trkpt lat="45.50756" lon="6.59835">
        <ele>1362.33</ele>
        <time>2015-03-15T07:37:31Z</time>
      </trkpt>
      <trkpt lat="45.50749" lon="6.59826">
        <ele>1364.73</ele>
        <time>2015-03-15T07:37:45Z</time>
      </trkpt>
      <trkpt lat="45.50746" lon="6.59822">
        <ele>1367.61</ele>
        <time>2015-03-15T07:37:53Z</time>
      </trkpt>
      <trkpt lat="45.50738" lon="6.59821">
        <ele>1369.54</ele>
        <time>2015-03-15T07:38:03Z</time>
      </trkpt>
      <trkpt lat="45.5073" lon="6.59815">
        <ele>1372.42</ele>
        <time>2015-03-15T07:38:18Z</time>
      </trkpt>
      <trkpt lat="45.50725" lon="6.59807">
        <ele>1373.38</ele>
        <time>2015-03-15T07:38:29Z</time>
      </trkpt>
      <trkpt lat="45.5072" lon="6.59798">
        <ele>1376.26</ele>
        <time>2015-03-15T07:38:43Z</time>
      </trkpt>
      <trkpt lat="45.50715" lon="6.59789">
        <ele>1376.26</ele>
        <time>2015-03-15T07:38:53Z</time>
      </trkpt>
      <trkpt lat="45.5071" lon="6.59781">
        <ele>1379.15</ele>
        <time>2015-03-15T07:39:06Z</time>
      </trkpt>
      <trkpt lat="45.50703" lon="6.59777">
        <ele>1379.15</ele>
        <time>2015-03-15T07:39:16Z</time>
      </trkpt>
      <trkpt lat="45.50701" lon="6.59777">
        <ele>1382.51</ele>
        <time>2015-03-15T07:39:19Z</time>
      </trkpt>
      <trkpt lat="45.50694" lon="6.59773">
        <ele>1384.92</ele>
        <time>2015-03-15T07:39:31Z</time>
      </trkpt>
      <trkpt lat="45.5069" lon="6.59778">
        <ele>1385.88</ele>
        <time>2015-03-15T07:39:43Z</time>
      </trkpt>
      <trkpt lat="45.50688" lon="6.59785">
        <ele>1390.2</ele>
        <time>2015-03-15T07:39:54Z</time>
      </trkpt>
      <trkpt lat="45.50682" lon="6.59788">
        <ele>1389.72</ele>
        <time>2015-03-15T07:40:07Z</time>
      </trkpt>
      <trkpt lat="45.5068" lon="6.59788">
        <ele>1391.17</ele>
        <time>2015-03-15T07:40:21Z</time>
      </trkpt>
      <trkpt lat="45.50676" lon="6.59778">
        <ele>1392.61</ele>
        <time>2015-03-15T07:40:34Z</time>
      </trkpt>
      <trkpt lat="45.50671" lon="6.5977">
        <ele>1394.53</ele>
        <time>2015-03-15T07:40:45Z</time>
      </trkpt>
      <trkpt lat="45.50663" lon="6.59764">
        <ele>1396.93</ele>
        <time>2015-03-15T07:40:57Z</time>
      </trkpt>
      <trkpt lat="45.50658" lon="6.5976">
        <ele>1399.34</ele>
        <time>2015-03-15T07:41:09Z</time>
      </trkpt>
      <trkpt lat="45.50651" lon="6.59757">
        <ele>1398.37</ele>
        <time>2015-03-15T07:41:21Z</time>
      </trkpt>
      <trkpt lat="45.50645" lon="6.59755">
        <ele>1401.74</ele>
        <time>2015-03-15T07:41:33Z</time>
      </trkpt>
      <trkpt lat="45.50646" lon="6.59762">
        <ele>1402.7</ele>
        <time>2015-03-15T07:41:47Z</time>
      </trkpt>
      <trkpt lat="45.50651" lon="6.59766">
        <ele>1402.7</ele>
        <time>2015-03-15T07:42:16Z</time>
      </trkpt>
      <trkpt lat="45.50653" lon="6.59762">
        <ele>1403.18</ele>
        <time>2015-03-15T07:42:49Z</time>
      </trkpt>
      <trkpt lat="45.50653" lon="6.59761">
        <ele>1403.66</ele>
        <time>2015-03-15T07:43:23Z</time>
      </trkpt>
      <trkpt lat="45.50655" lon="6.59767">
        <ele>1404.14</ele>
        <time>2015-03-15T07:43:32Z</time>
      </trkpt>
      <trkpt lat="45.50654" lon="6.59769">
        <ele>1404.62</ele>
        <time>2015-03-15T07:43:34Z</time>
      </trkpt>
      <trkpt lat="45.50651" lon="6.5978">
        <ele>1407.03</ele>
        <time>2015-03-15T07:43:47Z</time>
      </trkpt>
      <trkpt lat="45.5065" lon="6.59792">
        <ele>1409.43</ele>
        <time>2015-03-15T07:44:00Z</time>
      </trkpt>
      <trkpt lat="45.50645" lon="6.59794">
        <ele>1412.31</ele>
        <time>2015-03-15T07:44:11Z</time>
      </trkpt>
      <trkpt lat="45.50636" lon="6.59791">
        <ele>1414.24</ele>
        <time>2015-03-15T07:44:23Z</time>
      </trkpt>
      <trkpt lat="45.50632" lon="6.59789">
        <ele>1415.68</ele>
        <time>2015-03-15T07:44:28Z</time>
      </trkpt>
      <trkpt lat="45.50631" lon="6.59788">
        <ele>1414.24</ele>
        <time>2015-03-15T07:44:30Z</time>
      </trkpt>
      <trkpt lat="45.50628" lon="6.59786">
        <ele>1417.6</ele>
        <time>2015-03-15T07:44:35Z</time>
      </trkpt>
      <trkpt lat="45.50626" lon="6.59788">
        <ele>1416.64</ele>
        <time>2015-03-15T07:44:40Z</time>
      </trkpt>
      <trkpt lat="45.50627" lon="6.598">
        <ele>1419.52</ele>
        <time>2015-03-15T07:44:51Z</time>
      </trkpt>
      <trkpt lat="45.50628" lon="6.5981">
        <ele>1420</ele>
        <time>2015-03-15T07:45:03Z</time>
      </trkpt>
      <trkpt lat="45.50628" lon="6.59814">
        <ele>1420.97</ele>
        <time>2015-03-15T07:45:08Z</time>
      </trkpt>
      <trkpt lat="45.50627" lon="6.59819">
        <ele>1422.89</ele>
        <time>2015-03-15T07:45:20Z</time>
      </trkpt>
      <trkpt lat="45.5062" lon="6.59815">
        <ele>1426.25</ele>
        <time>2015-03-15T07:45:30Z</time>
      </trkpt>
      <trkpt lat="45.50616" lon="6.59812">
        <ele>1426.73</ele>
        <time>2015-03-15T07:45:42Z</time>
      </trkpt>
      <trkpt lat="45.50617" lon="6.59816">
        <ele>1427.7</ele>
        <time>2015-03-15T07:45:46Z</time>
      </trkpt>
      <trkpt lat="45.50617" lon="6.59829">
        <ele>1429.14</ele>
        <time>2015-03-15T07:45:57Z</time>
      </trkpt>
      <trkpt lat="45.50618" lon="6.59831">
        <ele>1430.58</ele>
        <time>2015-03-15T07:46:10Z</time>
      </trkpt>
      <trkpt lat="45.50613" lon="6.59838">
        <ele>1429.62</ele>
        <time>2015-03-15T07:46:21Z</time>
      </trkpt>
      <trkpt lat="45.50609" lon="6.59838">
        <ele>1432.98</ele>
        <time>2015-03-15T07:46:24Z</time>
      </trkpt>
      <trkpt lat="45.50602" lon="6.59838">
        <ele>1433.94</ele>
        <time>2015-03-15T07:46:35Z</time>
      </trkpt>
      <trkpt lat="45.50602" lon="6.59844">
        <ele>1434.42</ele>
        <time>2015-03-15T07:46:51Z</time>
      </trkpt>
      <trkpt lat="45.50601" lon="6.5985">
        <ele>1437.79</ele>
        <time>2015-03-15T07:46:58Z</time>
      </trkpt>
      <trkpt lat="45.506" lon="6.59857">
        <ele>1438.75</ele>
        <time>2015-03-15T07:47:07Z</time>
      </trkpt>
      <trkpt lat="45.50599" lon="6.59859">
        <ele>1440.19</ele>
        <time>2015-03-15T07:47:10Z</time>
      </trkpt>
      <trkpt lat="45.50597" lon="6.59867">
        <ele>1443.08</ele>
        <time>2015-03-15T07:47:20Z</time>
      </trkpt>
      <trkpt lat="45.50596" lon="6.59868">
        <ele>1444.04</ele>
        <time>2015-03-15T07:47:22Z</time>
      </trkpt>
      <trkpt lat="45.50592" lon="6.59877">
        <ele>1445</ele>
        <time>2015-03-15T07:47:34Z</time>
      </trkpt>
      <trkpt lat="45.50591" lon="6.59878">
        <ele>1446.44</ele>
        <time>2015-03-15T07:47:36Z</time>
      </trkpt>
      <trkpt lat="45.50587" lon="6.59885">
        <ele>1449.81</ele>
        <time>2015-03-15T07:47:47Z</time>
      </trkpt>
      <trkpt lat="45.50586" lon="6.5989">
        <ele>1451.25</ele>
        <time>2015-03-15T07:47:54Z</time>
      </trkpt>
      <trkpt lat="45.50582" lon="6.59898">
        <ele>1453.65</ele>
        <time>2015-03-15T07:48:06Z</time>
      </trkpt>
      <trkpt lat="45.5058" lon="6.59903">
        <ele>1455.09</ele>
        <time>2015-03-15T07:48:14Z</time>
      </trkpt>
      <trkpt lat="45.50578" lon="6.59908">
        <ele>1455.57</ele>
        <time>2015-03-15T07:48:24Z</time>
      </trkpt>
      <trkpt lat="45.50574" lon="6.59916">
        <ele>1457.02</ele>
        <time>2015-03-15T07:48:35Z</time>
      </trkpt>
      <trkpt lat="45.50572" lon="6.59925">
        <ele>1457.98</ele>
        <time>2015-03-15T07:48:44Z</time>
      </trkpt>
      <trkpt lat="45.50573" lon="6.59936">
        <ele>1457.98</ele>
        <time>2015-03-15T07:48:54Z</time>
      </trkpt>
      <trkpt lat="45.50573" lon="6.59945">
        <ele>1457.98</ele>
        <time>2015-03-15T07:49:03Z</time>
      </trkpt>
      <trkpt lat="45.50573" lon="6.59951">
        <ele>1457.98</ele>
        <time>2015-03-15T07:49:09Z</time>
      </trkpt>
      <trkpt lat="45.50573" lon="6.59962">
        <ele>1459.42</ele>
        <time>2015-03-15T07:49:20Z</time>
      </trkpt>
      <trkpt lat="45.50572" lon="6.59973">
        <ele>1461.34</ele>
        <time>2015-03-15T07:49:31Z</time>
      </trkpt>
      <trkpt lat="45.50571" lon="6.59983">
        <ele>1461.34</ele>
        <time>2015-03-15T07:49:41Z</time>
      </trkpt>
      <trkpt lat="45.5057" lon="6.59987">
        <ele>1462.3</ele>
        <time>2015-03-15T07:49:44Z</time>
      </trkpt>
      <trkpt lat="45.5057" lon="6.59995">
        <ele>1463.74</ele>
        <time>2015-03-15T07:49:53Z</time>
      </trkpt>
      <trkpt lat="45.50571" lon="6.59997">
        <ele>1462.3</ele>
        <time>2015-03-15T07:49:55Z</time>
      </trkpt>
      <trkpt lat="45.50571" lon="6.6">
        <ele>1464.23</ele>
        <time>2015-03-15T07:49:58Z</time>
      </trkpt>
      <trkpt lat="45.50568" lon="6.60009">
        <ele>1464.71</ele>
        <time>2015-03-15T07:50:09Z</time>
      </trkpt>
      <trkpt lat="45.50567" lon="6.60017">
        <ele>1466.63</ele>
        <time>2015-03-15T07:50:18Z</time>
      </trkpt>
      <trkpt lat="45.50567" lon="6.60019">
        <ele>1465.67</ele>
        <time>2015-03-15T07:50:20Z</time>
      </trkpt>
      <trkpt lat="45.50566" lon="6.60028">
        <ele>1467.11</ele>
        <time>2015-03-15T07:50:30Z</time>
      </trkpt>
      <trkpt lat="45.50566" lon="6.60035">
        <ele>1468.55</ele>
        <time>2015-03-15T07:50:39Z</time>
      </trkpt>
      <trkpt lat="45.50565" lon="6.60039">
        <ele>1469.99</ele>
        <time>2015-03-15T07:50:43Z</time>
      </trkpt>
      <trkpt lat="45.50563" lon="6.60048">
        <ele>1471.44</ele>
        <time>2015-03-15T07:50:52Z</time>
      </trkpt>
      <trkpt lat="45.5056" lon="6.60059">
        <ele>1472.4</ele>
        <time>2015-03-15T07:51:02Z</time>
      </trkpt>
      <trkpt lat="45.50559" lon="6.60066">
        <ele>1474.32</ele>
        <time>2015-03-15T07:51:12Z</time>
      </trkpt>
      <trkpt lat="45.50558" lon="6.60074">
        <ele>1473.36</ele>
        <time>2015-03-15T07:51:21Z</time>
      </trkpt>
      <trkpt lat="45.50555" lon="6.60085">
        <ele>1475.76</ele>
        <time>2015-03-15T07:51:31Z</time>
      </trkpt>
      <trkpt lat="45.50554" lon="6.60095">
        <ele>1479.61</ele>
        <time>2015-03-15T07:51:43Z</time>
      </trkpt>
      <trkpt lat="45.50554" lon="6.60096">
        <ele>1479.61</ele>
        <time>2015-03-15T07:51:44Z</time>
      </trkpt>
      <trkpt lat="45.50552" lon="6.60106">
        <ele>1481.53</ele>
        <time>2015-03-15T07:51:57Z</time>
      </trkpt>
      <trkpt lat="45.50552" lon="6.60106">
        <ele>1481.53</ele>
        <time>2015-03-15T07:51:58Z</time>
      </trkpt>
      <trkpt lat="45.50549" lon="6.60115">
        <ele>1483.45</ele>
        <time>2015-03-15T07:52:09Z</time>
      </trkpt>
      <trkpt lat="45.50548" lon="6.60118">
        <ele>1484.89</ele>
        <time>2015-03-15T07:52:12Z</time>
      </trkpt>
      <trkpt lat="45.50548" lon="6.60122">
        <ele>1486.34</ele>
        <time>2015-03-15T07:52:19Z</time>
      </trkpt>
      <trkpt lat="45.50546" lon="6.60129">
        <ele>1488.26</ele>
        <time>2015-03-15T07:52:28Z</time>
      </trkpt>
      <trkpt lat="45.50544" lon="6.60136">
        <ele>1489.7</ele>
        <time>2015-03-15T07:52:38Z</time>
      </trkpt>
      <trkpt lat="45.50544" lon="6.60145">
        <ele>1491.62</ele>
        <time>2015-03-15T07:52:50Z</time>
      </trkpt>
      <trkpt lat="45.50546" lon="6.60155">
        <ele>1493.06</ele>
        <time>2015-03-15T07:53:02Z</time>
      </trkpt>
      <trkpt lat="45.50545" lon="6.60163">
        <ele>1494.99</ele>
        <time>2015-03-15T07:53:12Z</time>
      </trkpt>
      <trkpt lat="45.50545" lon="6.60172">
        <ele>1496.91</ele>
        <time>2015-03-15T07:53:23Z</time>
      </trkpt>
      <trkpt lat="45.50545" lon="6.60173">
        <ele>1496.91</ele>
        <time>2015-03-15T07:53:24Z</time>
      </trkpt>
      <trkpt lat="45.50545" lon="6.60174">
        <ele>1495.47</ele>
        <time>2015-03-15T07:53:26Z</time>
      </trkpt>
      <trkpt lat="45.50545" lon="6.60176">
        <ele>1497.39</ele>
        <time>2015-03-15T07:53:29Z</time>
      </trkpt>
      <trkpt lat="45.50546" lon="6.6018">
        <ele>1499.31</ele>
        <time>2015-03-15T07:53:36Z</time>
      </trkpt>
      <trkpt lat="45.50547" lon="6.60189">
        <ele>1500.76</ele>
        <time>2015-03-15T07:53:48Z</time>
      </trkpt>
      <trkpt lat="45.50546" lon="6.60197">
        <ele>1502.68</ele>
        <time>2015-03-15T07:53:58Z</time>
      </trkpt>
      <trkpt lat="45.50549" lon="6.60205">
        <ele>1504.12</ele>
        <time>2015-03-15T07:54:09Z</time>
      </trkpt>
      <trkpt lat="45.50549" lon="6.60214">
        <ele>1504.6</ele>
        <time>2015-03-15T07:54:22Z</time>
      </trkpt>
      <trkpt lat="45.50548" lon="6.60219">
        <ele>1506.52</ele>
        <time>2015-03-15T07:54:29Z</time>
      </trkpt>
      <trkpt lat="45.50548" lon="6.60227">
        <ele>1508.93</ele>
        <time>2015-03-15T07:54:42Z</time>
      </trkpt>
      <trkpt lat="45.50551" lon="6.60233">
        <ele>1511.33</ele>
        <time>2015-03-15T07:54:56Z</time>
      </trkpt>
      <trkpt lat="45.50547" lon="6.60239">
        <ele>1514.69</ele>
        <time>2015-03-15T07:55:09Z</time>
      </trkpt>
      <trkpt lat="45.50544" lon="6.60245">
        <ele>1514.21</ele>
        <time>2015-03-15T07:55:21Z</time>
      </trkpt>
      <trkpt lat="45.50546" lon="6.60247">
        <ele>1516.62</ele>
        <time>2015-03-15T07:55:25Z</time>
      </trkpt>
      <trkpt lat="45.50546" lon="6.60254">
        <ele>1518.54</ele>
        <time>2015-03-15T07:55:37Z</time>
      </trkpt>
      <trkpt lat="45.50544" lon="6.60254">
        <ele>1517.1</ele>
        <time>2015-03-15T07:55:39Z</time>
      </trkpt>
      <trkpt lat="45.50535" lon="6.60254">
        <ele>1520.46</ele>
        <time>2015-03-15T07:55:56Z</time>
      </trkpt>
      <trkpt lat="45.50527" lon="6.60261">
        <ele>1521.9</ele>
        <time>2015-03-15T07:56:05Z</time>
      </trkpt>
      <trkpt lat="45.50533" lon="6.60267">
        <ele>1523.35</ele>
        <time>2015-03-15T07:56:19Z</time>
      </trkpt>
      <trkpt lat="45.5054" lon="6.60272">
        <ele>1525.75</ele>
        <time>2015-03-15T07:56:31Z</time>
      </trkpt>
      <trkpt lat="45.50544" lon="6.60278">
        <ele>1527.19</ele>
        <time>2015-03-15T07:56:44Z</time>
      </trkpt>
      <trkpt lat="45.50549" lon="6.60285">
        <ele>1529.11</ele>
        <time>2015-03-15T07:56:54Z</time>
      </trkpt>
      <trkpt lat="45.50554" lon="6.60289">
        <ele>1530.56</ele>
        <time>2015-03-15T07:57:08Z</time>
      </trkpt>
      <trkpt lat="45.50555" lon="6.60298">
        <ele>1531.52</ele>
        <time>2015-03-15T07:57:22Z</time>
      </trkpt>
      <trkpt lat="45.50556" lon="6.60309">
        <ele>1533.44</ele>
        <time>2015-03-15T07:57:33Z</time>
      </trkpt>
      <trkpt lat="45.50553" lon="6.60315">
        <ele>1536.32</ele>
        <time>2015-03-15T07:57:45Z</time>
      </trkpt>
      <trkpt lat="45.50556" lon="6.6032">
        <ele>1538.25</ele>
        <time>2015-03-15T07:57:57Z</time>
      </trkpt>
      <trkpt lat="45.50567" lon="6.6032">
        <ele>1540.17</ele>
        <time>2015-03-15T07:58:11Z</time>
      </trkpt>
      <trkpt lat="45.50572" lon="6.6032">
        <ele>1541.13</ele>
        <time>2015-03-15T07:58:23Z</time>
      </trkpt>
      <trkpt lat="45.50573" lon="6.60317">
        <ele>1540.17</ele>
        <time>2015-03-15T07:58:45Z</time>
      </trkpt>
      <trkpt lat="45.50573" lon="6.60317">
        <ele>1540.65</ele>
        <time>2015-03-15T07:59:06Z</time>
      </trkpt>
      <trkpt lat="45.50571" lon="6.60314">
        <ele>1540.65</ele>
        <time>2015-03-15T07:59:26Z</time>
      </trkpt>
      <trkpt lat="45.50575" lon="6.60318">
        <ele>1540.65</ele>
        <time>2015-03-15T07:59:46Z</time>
      </trkpt>
      <trkpt lat="45.50577" lon="6.60322">
        <ele>1541.13</ele>
        <time>2015-03-15T08:00:12Z</time>
      </trkpt>
      <trkpt lat="45.50578" lon="6.60327">
        <ele>1543.05</ele>
        <time>2015-03-15T08:00:35Z</time>
      </trkpt>
      <trkpt lat="45.50578" lon="6.60333">
        <ele>1544.5</ele>
        <time>2015-03-15T08:00:42Z</time>
      </trkpt>
      <trkpt lat="45.50576" lon="6.60336">
        <ele>1545.46</ele>
        <time>2015-03-15T08:00:58Z</time>
      </trkpt>
      <trkpt lat="45.50577" lon="6.60335">
        <ele>1546.9</ele>
        <time>2015-03-15T08:01:00Z</time>
      </trkpt>
      <trkpt lat="45.50582" lon="6.60341">
        <ele>1548.34</ele>
        <time>2015-03-15T08:01:15Z</time>
      </trkpt>
      <trkpt lat="45.50586" lon="6.60348">
        <ele>1550.74</ele>
        <time>2015-03-15T08:01:22Z</time>
      </trkpt>
      <trkpt lat="45.5059" lon="6.60352">
        <ele>1553.15</ele>
        <time>2015-03-15T08:01:35Z</time>
      </trkpt>
      <trkpt lat="45.50596" lon="6.60356">
        <ele>1553.15</ele>
        <time>2015-03-15T08:01:44Z</time>
      </trkpt>
      <trkpt lat="45.50597" lon="6.60358">
        <ele>1554.59</ele>
        <time>2015-03-15T08:01:47Z</time>
      </trkpt>
      <trkpt lat="45.50593" lon="6.60366">
        <ele>1555.55</ele>
        <time>2015-03-15T08:02:00Z</time>
      </trkpt>
      <trkpt lat="45.50587" lon="6.60366">
        <ele>1558.43</ele>
        <time>2015-03-15T08:02:08Z</time>
      </trkpt>
      <trkpt lat="45.50581" lon="6.60366">
        <ele>1558.43</ele>
        <time>2015-03-15T08:02:17Z</time>
      </trkpt>
      <trkpt lat="45.50577" lon="6.60368">
        <ele>1561.32</ele>
        <time>2015-03-15T08:02:27Z</time>
      </trkpt>
      <trkpt lat="45.50575" lon="6.60368">
        <ele>1561.32</ele>
        <time>2015-03-15T08:02:28Z</time>
      </trkpt>
      <trkpt lat="45.5057" lon="6.60377">
        <ele>1564.2</ele>
        <time>2015-03-15T08:02:44Z</time>
      </trkpt>
      <trkpt lat="45.50573" lon="6.60381">
        <ele>1565.16</ele>
        <time>2015-03-15T08:02:53Z</time>
      </trkpt>
      <trkpt lat="45.50581" lon="6.60382">
        <ele>1566.61</ele>
        <time>2015-03-15T08:03:02Z</time>
      </trkpt>
      <trkpt lat="45.50587" lon="6.60386">
        <ele>1568.53</ele>
        <time>2015-03-15T08:03:15Z</time>
      </trkpt>
      <trkpt lat="45.50591" lon="6.60388">
        <ele>1569.49</ele>
        <time>2015-03-15T08:03:25Z</time>
      </trkpt>
      <trkpt lat="45.50595" lon="6.60395">
        <ele>1572.37</ele>
        <time>2015-03-15T08:03:38Z</time>
      </trkpt>
      <trkpt lat="45.50599" lon="6.60401">
        <ele>1571.89</ele>
        <time>2015-03-15T08:03:50Z</time>
      </trkpt>
      <trkpt lat="45.50604" lon="6.60402">
        <ele>1572.85</ele>
        <time>2015-03-15T08:03:54Z</time>
      </trkpt>
      <trkpt lat="45.50606" lon="6.60403">
        <ele>1573.82</ele>
        <time>2015-03-15T08:03:56Z</time>
      </trkpt>
      <trkpt lat="45.50611" lon="6.60408">
        <ele>1575.74</ele>
        <time>2015-03-15T08:04:09Z</time>
      </trkpt>
      <trkpt lat="45.50613" lon="6.60413">
        <ele>1577.66</ele>
        <time>2015-03-15T08:04:20Z</time>
      </trkpt>
      <trkpt lat="45.50616" lon="6.60412">
        <ele>1578.62</ele>
        <time>2015-03-15T08:04:27Z</time>
      </trkpt>
      <trkpt lat="45.5062" lon="6.60419">
        <ele>1581.03</ele>
        <time>2015-03-15T08:04:40Z</time>
      </trkpt>
      <trkpt lat="45.5062" lon="6.6042">
        <ele>1581.03</ele>
        <time>2015-03-15T08:04:41Z</time>
      </trkpt>
      <trkpt lat="45.50622" lon="6.60422">
        <ele>1581.03</ele>
        <time>2015-03-15T08:04:46Z</time>
      </trkpt>
      <trkpt lat="45.50626" lon="6.60425">
        <ele>1582.47</ele>
        <time>2015-03-15T08:04:54Z</time>
      </trkpt>
      <trkpt lat="45.50629" lon="6.6043">
        <ele>1583.91</ele>
        <time>2015-03-15T08:05:04Z</time>
      </trkpt>
      <trkpt lat="45.50633" lon="6.60434">
        <ele>1586.79</ele>
        <time>2015-03-15T08:05:18Z</time>
      </trkpt>
      <trkpt lat="45.50641" lon="6.6044">
        <ele>1588.24</ele>
        <time>2015-03-15T08:05:33Z</time>
      </trkpt>
      <trkpt lat="45.50644" lon="6.60442">
        <ele>1590.16</ele>
        <time>2015-03-15T08:05:40Z</time>
      </trkpt>
      <trkpt lat="45.50645" lon="6.60446">
        <ele>1589.68</ele>
        <time>2015-03-15T08:05:48Z</time>
      </trkpt>
      <trkpt lat="45.50646" lon="6.60447">
        <ele>1590.64</ele>
        <time>2015-03-15T08:05:51Z</time>
      </trkpt>
      <trkpt lat="45.50653" lon="6.60449">
        <ele>1594.48</ele>
        <time>2015-03-15T08:06:06Z</time>
      </trkpt>
      <trkpt lat="45.50656" lon="6.60452">
        <ele>1594.96</ele>
        <time>2015-03-15T08:06:15Z</time>
      </trkpt>
      <trkpt lat="45.50652" lon="6.6046">
        <ele>1597.85</ele>
        <time>2015-03-15T08:06:31Z</time>
      </trkpt>
      <trkpt lat="45.50644" lon="6.60464">
        <ele>1598.33</ele>
        <time>2015-03-15T08:06:44Z</time>
      </trkpt>
      <trkpt lat="45.50635" lon="6.60464">
        <ele>1599.77</ele>
        <time>2015-03-15T08:06:56Z</time>
      </trkpt>
      <trkpt lat="45.50628" lon="6.60467">
        <ele>1602.66</ele>
        <time>2015-03-15T08:07:09Z</time>
      </trkpt>
      <trkpt lat="45.50619" lon="6.60467">
        <ele>1604.1</ele>
        <time>2015-03-15T08:07:26Z</time>
      </trkpt>
      <trkpt lat="45.50615" lon="6.6047">
        <ele>1605.06</ele>
        <time>2015-03-15T08:07:35Z</time>
      </trkpt>
      <trkpt lat="45.50611" lon="6.60471">
        <ele>1606.5</ele>
        <time>2015-03-15T08:07:45Z</time>
      </trkpt>
      <trkpt lat="45.5061" lon="6.60472">
        <ele>1605.06</ele>
        <time>2015-03-15T08:07:47Z</time>
      </trkpt>
      <trkpt lat="45.50604" lon="6.60471">
        <ele>1607.94</ele>
        <time>2015-03-15T08:07:59Z</time>
      </trkpt>
      <trkpt lat="45.50594" lon="6.6047">
        <ele>1608.9</ele>
        <time>2015-03-15T08:08:11Z</time>
      </trkpt>
      <trkpt lat="45.50593" lon="6.6047">
        <ele>1608.9</ele>
        <time>2015-03-15T08:08:13Z</time>
      </trkpt>
      <trkpt lat="45.50585" lon="6.6047">
        <ele>1611.79</ele>
        <time>2015-03-15T08:08:25Z</time>
      </trkpt>
      <trkpt lat="45.5058" lon="6.60472">
        <ele>1612.27</ele>
        <time>2015-03-15T08:08:38Z</time>
      </trkpt>
      <trkpt lat="45.5057" lon="6.60472">
        <ele>1613.23</ele>
        <time>2015-03-15T08:08:53Z</time>
      </trkpt>
      <trkpt lat="45.50562" lon="6.60471">
        <ele>1613.71</ele>
        <time>2015-03-15T08:09:05Z</time>
      </trkpt>
      <trkpt lat="45.5055" lon="6.60467">
        <ele>1615.63</ele>
        <time>2015-03-15T08:09:21Z</time>
      </trkpt>
      <trkpt lat="45.50546" lon="6.60474">
        <ele>1615.15</ele>
        <time>2015-03-15T08:09:34Z</time>
      </trkpt>
      <trkpt lat="45.50556" lon="6.60476">
        <ele>1618.04</ele>
        <time>2015-03-15T08:09:44Z</time>
      </trkpt>
      <trkpt lat="45.50565" lon="6.60481">
        <ele>1619.48</ele>
        <time>2015-03-15T08:09:58Z</time>
      </trkpt>
      <trkpt lat="45.50572" lon="6.60484">
        <ele>1620.92</ele>
        <time>2015-03-15T08:10:09Z</time>
      </trkpt>
      <trkpt lat="45.50576" lon="6.60489">
        <ele>1621.88</ele>
        <time>2015-03-15T08:10:21Z</time>
      </trkpt>
      <trkpt lat="45.50584" lon="6.60492">
        <ele>1624.77</ele>
        <time>2015-03-15T08:10:33Z</time>
      </trkpt>
      <trkpt lat="45.50587" lon="6.60492">
        <ele>1623.8</ele>
        <time>2015-03-15T08:10:38Z</time>
      </trkpt>
      <trkpt lat="45.50589" lon="6.60492">
        <ele>1624.77</ele>
        <time>2015-03-15T08:10:40Z</time>
      </trkpt>
      <trkpt lat="45.50593" lon="6.60493">
        <ele>1626.21</ele>
        <time>2015-03-15T08:10:46Z</time>
      </trkpt>
      <trkpt lat="45.50596" lon="6.60502">
        <ele>1628.13</ele>
        <time>2015-03-15T08:10:59Z</time>
      </trkpt>
      <trkpt lat="45.50604" lon="6.60509">
        <ele>1630.05</ele>
        <time>2015-03-15T08:11:13Z</time>
      </trkpt>
      <trkpt lat="45.50599" lon="6.60518">
        <ele>1631.01</ele>
        <time>2015-03-15T08:11:27Z</time>
      </trkpt>
      <trkpt lat="45.50596" lon="6.60517">
        <ele>1632.46</ele>
        <time>2015-03-15T08:11:32Z</time>
      </trkpt>
      <trkpt lat="45.5059" lon="6.60516">
        <ele>1633.42</ele>
        <time>2015-03-15T08:11:44Z</time>
      </trkpt>
      <trkpt lat="45.50584" lon="6.60517">
        <ele>1636.78</ele>
        <time>2015-03-15T08:11:55Z</time>
      </trkpt>
      <trkpt lat="45.50578" lon="6.60521">
        <ele>1638.22</ele>
        <time>2015-03-15T08:12:09Z</time>
      </trkpt>
      <trkpt lat="45.50568" lon="6.60524">
        <ele>1639.19</ele>
        <time>2015-03-15T08:12:21Z</time>
      </trkpt>
      <trkpt lat="45.50566" lon="6.60523">
        <ele>1640.63</ele>
        <time>2015-03-15T08:12:25Z</time>
      </trkpt>
      <trkpt lat="45.50556" lon="6.60526">
        <ele>1643.51</ele>
        <time>2015-03-15T08:12:40Z</time>
      </trkpt>
      <trkpt lat="45.50551" lon="6.60529">
        <ele>1643.03</ele>
        <time>2015-03-15T08:12:50Z</time>
      </trkpt>
      <trkpt lat="45.5055" lon="6.6053">
        <ele>1644.95</ele>
        <time>2015-03-15T08:12:53Z</time>
      </trkpt>
      <trkpt lat="45.50542" lon="6.6053">
        <ele>1644.95</ele>
        <time>2015-03-15T08:13:07Z</time>
      </trkpt>
      <trkpt lat="45.50538" lon="6.6053">
        <ele>1648.32</ele>
        <time>2015-03-15T08:13:13Z</time>
      </trkpt>
      <trkpt lat="45.5053" lon="6.60535">
        <ele>1649.76</ele>
        <time>2015-03-15T08:13:28Z</time>
      </trkpt>
      <trkpt lat="45.50526" lon="6.60536">
        <ele>1650.72</ele>
        <time>2015-03-15T08:13:40Z</time>
      </trkpt>
      <trkpt lat="45.50525" lon="6.60538">
        <ele>1652.64</ele>
        <time>2015-03-15T08:13:46Z</time>
      </trkpt>
      <trkpt lat="45.50514" lon="6.60542">
        <ele>1654.57</ele>
        <time>2015-03-15T08:14:02Z</time>
      </trkpt>
      <trkpt lat="45.50505" lon="6.60548">
        <ele>1656.49</ele>
        <time>2015-03-15T08:14:17Z</time>
      </trkpt>
      <trkpt lat="45.505" lon="6.60552">
        <ele>1657.45</ele>
        <time>2015-03-15T08:14:31Z</time>
      </trkpt>
      <trkpt lat="45.50495" lon="6.60553">
        <ele>1660.81</ele>
        <time>2015-03-15T08:14:39Z</time>
      </trkpt>
      <trkpt lat="45.50501" lon="6.60561">
        <ele>1662.74</ele>
        <time>2015-03-15T08:14:53Z</time>
      </trkpt>
      <trkpt lat="45.50504" lon="6.60558">
        <ele>1663.22</ele>
        <time>2015-03-15T08:15:05Z</time>
      </trkpt>
      <trkpt lat="45.50506" lon="6.60557">
        <ele>1664.66</ele>
        <time>2015-03-15T08:15:08Z</time>
      </trkpt>
      <trkpt lat="45.50517" lon="6.60557">
        <ele>1666.58</ele>
        <time>2015-03-15T08:15:20Z</time>
      </trkpt>
      <trkpt lat="45.50522" lon="6.60557">
        <ele>1668.99</ele>
        <time>2015-03-15T08:15:32Z</time>
      </trkpt>
      <trkpt lat="45.50525" lon="6.6056">
        <ele>1669.47</ele>
        <time>2015-03-15T08:15:44Z</time>
      </trkpt>
      <trkpt lat="45.50521" lon="6.60569">
        <ele>1672.35</ele>
        <time>2015-03-15T08:15:58Z</time>
      </trkpt>
      <trkpt lat="45.50521" lon="6.60569">
        <ele>1672.35</ele>
        <time>2015-03-15T08:15:59Z</time>
      </trkpt>
      <trkpt lat="45.50518" lon="6.60572">
        <ele>1673.79</ele>
        <time>2015-03-15T08:16:11Z</time>
      </trkpt>
      <trkpt lat="45.50512" lon="6.60578">
        <ele>1675.72</ele>
        <time>2015-03-15T08:16:18Z</time>
      </trkpt>
      <trkpt lat="45.50508" lon="6.60588">
        <ele>1676.68</ele>
        <time>2015-03-15T08:16:32Z</time>
      </trkpt>
      <trkpt lat="45.50514" lon="6.60584">
        <ele>1678.6</ele>
        <time>2015-03-15T08:16:42Z</time>
      </trkpt>
      <trkpt lat="45.50524" lon="6.60582">
        <ele>1681</ele>
        <time>2015-03-15T08:16:55Z</time>
      </trkpt>
      <trkpt lat="45.50526" lon="6.60584">
        <ele>1682.44</ele>
        <time>2015-03-15T08:17:04Z</time>
      </trkpt>
      <trkpt lat="45.50532" lon="6.6059">
        <ele>1684.37</ele>
        <time>2015-03-15T08:17:17Z</time>
      </trkpt>
      <trkpt lat="45.50539" lon="6.60594">
        <ele>1684.85</ele>
        <time>2015-03-15T08:17:31Z</time>
      </trkpt>
      <trkpt lat="45.5054" lon="6.60594">
        <ele>1686.29</ele>
        <time>2015-03-15T08:17:34Z</time>
      </trkpt>
      <trkpt lat="45.50545" lon="6.60598">
        <ele>1688.69</ele>
        <time>2015-03-15T08:17:46Z</time>
      </trkpt>
      <trkpt lat="45.50553" lon="6.60602">
        <ele>1689.65</ele>
        <time>2015-03-15T08:18:01Z</time>
      </trkpt>
      <trkpt lat="45.50555" lon="6.60608">
        <ele>1691.58</ele>
        <time>2015-03-15T08:18:12Z</time>
      </trkpt>
      <trkpt lat="45.50548" lon="6.60613">
        <ele>1694.46</ele>
        <time>2015-03-15T08:18:22Z</time>
      </trkpt>
      <trkpt lat="45.50547" lon="6.60619">
        <ele>1695.42</ele>
        <time>2015-03-15T08:18:32Z</time>
      </trkpt>
      <trkpt lat="45.50545" lon="6.60622">
        <ele>1698.31</ele>
        <time>2015-03-15T08:18:38Z</time>
      </trkpt>
      <trkpt lat="45.50544" lon="6.60625">
        <ele>1698.79</ele>
        <time>2015-03-15T08:18:50Z</time>
      </trkpt>
      <trkpt lat="45.50548" lon="6.60627">
        <ele>1700.23</ele>
        <time>2015-03-15T08:19:02Z</time>
      </trkpt>
      <trkpt lat="45.50551" lon="6.6063">
        <ele>1701.67</ele>
        <time>2015-03-15T08:19:12Z</time>
      </trkpt>
      <trkpt lat="45.50559" lon="6.60634">
        <ele>1703.59</ele>
        <time>2015-03-15T08:19:25Z</time>
      </trkpt>
      <trkpt lat="45.50563" lon="6.60635">
        <ele>1705.04</ele>
        <time>2015-03-15T08:19:35Z</time>
      </trkpt>
      <trkpt lat="45.5056" lon="6.60641">
        <ele>1706.48</ele>
        <time>2015-03-15T08:19:49Z</time>
      </trkpt>
      <trkpt lat="45.50555" lon="6.6065">
        <ele>1707.92</ele>
        <time>2015-03-15T08:20:05Z</time>
      </trkpt>
      <trkpt lat="45.50551" lon="6.60657">
        <ele>1711.28</ele>
        <time>2015-03-15T08:20:19Z</time>
      </trkpt>
      <trkpt lat="45.50546" lon="6.6066">
        <ele>1712.73</ele>
        <time>2015-03-15T08:20:29Z</time>
      </trkpt>
      <trkpt lat="45.50541" lon="6.60667">
        <ele>1712.25</ele>
        <time>2015-03-15T08:20:42Z</time>
      </trkpt>
      <trkpt lat="45.50541" lon="6.60667">
        <ele>1716.57</ele>
        <time>2015-03-15T08:20:43Z</time>
      </trkpt>
      <trkpt lat="45.50541" lon="6.6067">
        <ele>1715.61</ele>
        <time>2015-03-15T08:20:58Z</time>
      </trkpt>
      <trkpt lat="45.50546" lon="6.60677">
        <ele>1717.05</ele>
        <time>2015-03-15T08:21:11Z</time>
      </trkpt>
      <trkpt lat="45.50549" lon="6.60681">
        <ele>1719.46</ele>
        <time>2015-03-15T08:21:21Z</time>
      </trkpt>
      <trkpt lat="45.50552" lon="6.60685">
        <ele>1720.42</ele>
        <time>2015-03-15T08:21:29Z</time>
      </trkpt>
      <trkpt lat="45.50547" lon="6.60689">
        <ele>1720.9</ele>
        <time>2015-03-15T08:21:42Z</time>
      </trkpt>
      <trkpt lat="45.50542" lon="6.60695">
        <ele>1722.82</ele>
        <time>2015-03-15T08:21:57Z</time>
      </trkpt>
      <trkpt lat="45.50536" lon="6.60699">
        <ele>1723.3</ele>
        <time>2015-03-15T08:22:11Z</time>
      </trkpt>
      <trkpt lat="45.50531" lon="6.60702">
        <ele>1725.7</ele>
        <time>2015-03-15T08:22:26Z</time>
      </trkpt>
      <trkpt lat="45.50525" lon="6.60705">
        <ele>1727.63</ele>
        <time>2015-03-15T08:22:39Z</time>
      </trkpt>
      <trkpt lat="45.50519" lon="6.60706">
        <ele>1729.55</ele>
        <time>2015-03-15T08:22:52Z</time>
      </trkpt>
      <trkpt lat="45.50512" lon="6.60706">
        <ele>1730.51</ele>
        <time>2015-03-15T08:23:05Z</time>
      </trkpt>
      <trkpt lat="45.50507" lon="6.60712">
        <ele>1731.95</ele>
        <time>2015-03-15T08:23:17Z</time>
      </trkpt>
      <trkpt lat="45.50505" lon="6.60715">
        <ele>1733.88</ele>
        <time>2015-03-15T08:23:22Z</time>
      </trkpt>
      <trkpt lat="45.50502" lon="6.60721">
        <ele>1734.84</ele>
        <time>2015-03-15T08:23:34Z</time>
      </trkpt>
      <trkpt lat="45.50501" lon="6.60727">
        <ele>1735.8</ele>
        <time>2015-03-15T08:23:45Z</time>
      </trkpt>
      <trkpt lat="45.505" lon="6.60731">
        <ele>1738.68</ele>
        <time>2015-03-15T08:23:53Z</time>
      </trkpt>
      <trkpt lat="45.50498" lon="6.60733">
        <ele>1738.68</ele>
        <time>2015-03-15T08:23:59Z</time>
      </trkpt>
      <trkpt lat="45.50495" lon="6.6074">
        <ele>1741.08</ele>
        <time>2015-03-15T08:24:12Z</time>
      </trkpt>
      <trkpt lat="45.50495" lon="6.60741">
        <ele>1741.08</ele>
        <time>2015-03-15T08:24:16Z</time>
      </trkpt>
      <trkpt lat="45.50492" lon="6.60747">
        <ele>1741.08</ele>
        <time>2015-03-15T08:24:28Z</time>
      </trkpt>
      <trkpt lat="45.5049" lon="6.60751">
        <ele>1744.45</ele>
        <time>2015-03-15T08:24:36Z</time>
      </trkpt>
      <trkpt lat="45.50488" lon="6.60755">
        <ele>1744.93</ele>
        <time>2015-03-15T08:24:43Z</time>
      </trkpt>
      <trkpt lat="45.50487" lon="6.60762">
        <ele>1745.41</ele>
        <time>2015-03-15T08:24:56Z</time>
      </trkpt>
      <trkpt lat="45.50484" lon="6.60765">
        <ele>1746.85</ele>
        <time>2015-03-15T08:25:02Z</time>
      </trkpt>
      <trkpt lat="45.50478" lon="6.60768">
        <ele>1747.81</ele>
        <time>2015-03-15T08:25:17Z</time>
      </trkpt>
      <trkpt lat="45.50476" lon="6.60769">
        <ele>1747.81</ele>
        <time>2015-03-15T08:25:22Z</time>
      </trkpt>
      <trkpt lat="45.50471" lon="6.60775">
        <ele>1750.22</ele>
        <time>2015-03-15T08:25:38Z</time>
      </trkpt>
      <trkpt lat="45.50469" lon="6.60782">
        <ele>1750.7</ele>
        <time>2015-03-15T08:25:50Z</time>
      </trkpt>
      <trkpt lat="45.50468" lon="6.60784">
        <ele>1753.1</ele>
        <time>2015-03-15T08:25:56Z</time>
      </trkpt>
      <trkpt lat="45.50462" lon="6.60785">
        <ele>1755.02</ele>
        <time>2015-03-15T08:26:10Z</time>
      </trkpt>
      <trkpt lat="45.50457" lon="6.60788">
        <ele>1755.99</ele>
        <time>2015-03-15T08:26:21Z</time>
      </trkpt>
      <trkpt lat="45.50455" lon="6.6079">
        <ele>1755.02</ele>
        <time>2015-03-15T08:26:27Z</time>
      </trkpt>
      <trkpt lat="45.50454" lon="6.6079">
        <ele>1756.95</ele>
        <time>2015-03-15T08:26:29Z</time>
      </trkpt>
      <trkpt lat="45.50448" lon="6.60796">
        <ele>1758.39</ele>
        <time>2015-03-15T08:26:43Z</time>
      </trkpt>
      <trkpt lat="45.50446" lon="6.60798">
        <ele>1758.87</ele>
        <time>2015-03-15T08:26:50Z</time>
      </trkpt>
      <trkpt lat="45.50443" lon="6.608">
        <ele>1760.79</ele>
        <time>2015-03-15T08:26:56Z</time>
      </trkpt>
      <trkpt lat="45.50438" lon="6.60802">
        <ele>1762.23</ele>
        <time>2015-03-15T08:27:11Z</time>
      </trkpt>
      <trkpt lat="45.50434" lon="6.60805">
        <ele>1763.68</ele>
        <time>2015-03-15T08:27:21Z</time>
      </trkpt>
      <trkpt lat="45.50428" lon="6.6081">
        <ele>1764.64</ele>
        <time>2015-03-15T08:27:36Z</time>
      </trkpt>
      <trkpt lat="45.50423" lon="6.60814">
        <ele>1766.56</ele>
        <time>2015-03-15T08:27:49Z</time>
      </trkpt>
      <trkpt lat="45.50421" lon="6.60817">
        <ele>1766.08</ele>
        <time>2015-03-15T08:27:55Z</time>
      </trkpt>
      <trkpt lat="45.50415" lon="6.60822">
        <ele>1768.96</ele>
        <time>2015-03-15T08:28:11Z</time>
      </trkpt>
      <trkpt lat="45.50413" lon="6.60824">
        <ele>1769.44</ele>
        <time>2015-03-15T08:28:16Z</time>
      </trkpt>
      <trkpt lat="45.50408" lon="6.6083">
        <ele>1770.41</ele>
        <time>2015-03-15T08:28:30Z</time>
      </trkpt>
      <trkpt lat="45.50405" lon="6.60836">
        <ele>1772.33</ele>
        <time>2015-03-15T08:28:43Z</time>
      </trkpt>
      <trkpt lat="45.50401" lon="6.60841">
        <ele>1773.77</ele>
        <time>2015-03-15T08:28:54Z</time>
      </trkpt>
      <trkpt lat="45.50395" lon="6.60849">
        <ele>1776.17</ele>
        <time>2015-03-15T08:29:09Z</time>
      </trkpt>
      <trkpt lat="45.50391" lon="6.60854">
        <ele>1778.1</ele>
        <time>2015-03-15T08:29:23Z</time>
      </trkpt>
      <trkpt lat="45.50386" lon="6.60857">
        <ele>1778.58</ele>
        <time>2015-03-15T08:29:32Z</time>
      </trkpt>
      <trkpt lat="45.50383" lon="6.60859">
        <ele>1779.06</ele>
        <time>2015-03-15T08:29:39Z</time>
      </trkpt>
      <trkpt lat="45.50378" lon="6.60869">
        <ele>1779.54</ele>
        <time>2015-03-15T08:29:54Z</time>
      </trkpt>
      <trkpt lat="45.50377" lon="6.6087">
        <ele>1781.94</ele>
        <time>2015-03-15T08:29:56Z</time>
      </trkpt>
      <trkpt lat="45.50374" lon="6.60873">
        <ele>1780.98</ele>
        <time>2015-03-15T08:30:08Z</time>
      </trkpt>
      <trkpt lat="45.50373" lon="6.60875">
        <ele>1781.94</ele>
        <time>2015-03-15T08:30:22Z</time>
      </trkpt>
      <trkpt lat="45.50374" lon="6.60873">
        <ele>1783.38</ele>
        <time>2015-03-15T08:30:39Z</time>
      </trkpt>
      <trkpt lat="45.50375" lon="6.60873">
        <ele>1783.38</ele>
        <time>2015-03-15T08:31:06Z</time>
      </trkpt>
      <trkpt lat="45.5037" lon="6.60873">
        <ele>1783.38</ele>
        <time>2015-03-15T08:31:26Z</time>
      </trkpt>
      <trkpt lat="45.50371" lon="6.6087">
        <ele>1783.38</ele>
        <time>2015-03-15T08:31:55Z</time>
      </trkpt>
      <trkpt lat="45.50371" lon="6.60872">
        <ele>1783.86</ele>
        <time>2015-03-15T08:32:18Z</time>
      </trkpt>
      <trkpt lat="45.50373" lon="6.60878">
        <ele>1782.9</ele>
        <time>2015-03-15T08:32:42Z</time>
      </trkpt>
      <trkpt lat="45.50377" lon="6.60882">
        <ele>1784.82</ele>
        <time>2015-03-15T08:32:53Z</time>
      </trkpt>
      <trkpt lat="45.50377" lon="6.60888">
        <ele>1788.19</ele>
        <time>2015-03-15T08:33:04Z</time>
      </trkpt>
      <trkpt lat="45.50376" lon="6.6089">
        <ele>1788.67</ele>
        <time>2015-03-15T08:33:09Z</time>
      </trkpt>
      <trkpt lat="45.50374" lon="6.60898">
        <ele>1790.59</ele>
        <time>2015-03-15T08:33:23Z</time>
      </trkpt>
      <trkpt lat="45.50369" lon="6.60896">
        <ele>1792.03</ele>
        <time>2015-03-15T08:33:35Z</time>
      </trkpt>
      <trkpt lat="45.5036" lon="6.60893">
        <ele>1793.48</ele>
        <time>2015-03-15T08:33:50Z</time>
      </trkpt>
      <trkpt lat="45.50354" lon="6.60895">
        <ele>1794.92</ele>
        <time>2015-03-15T08:34:01Z</time>
      </trkpt>
      <trkpt lat="45.50351" lon="6.60896">
        <ele>1798.28</ele>
        <time>2015-03-15T08:34:07Z</time>
      </trkpt>
      <trkpt lat="45.50348" lon="6.60897">
        <ele>1798.28</ele>
        <time>2015-03-15T08:34:13Z</time>
      </trkpt>
      <trkpt lat="45.50342" lon="6.60899">
        <ele>1800.69</ele>
        <time>2015-03-15T08:34:28Z</time>
      </trkpt>
      <trkpt lat="45.50337" lon="6.60897">
        <ele>1801.65</ele>
        <time>2015-03-15T08:34:36Z</time>
      </trkpt>
      <trkpt lat="45.50333" lon="6.60902">
        <ele>1804.05</ele>
        <time>2015-03-15T08:34:48Z</time>
      </trkpt>
      <trkpt lat="45.50327" lon="6.60905">
        <ele>1804.53</ele>
        <time>2015-03-15T08:35:01Z</time>
      </trkpt>
      <trkpt lat="45.50321" lon="6.60908">
        <ele>1805.49</ele>
        <time>2015-03-15T08:35:13Z</time>
      </trkpt>
      <trkpt lat="45.50319" lon="6.60908">
        <ele>1807.42</ele>
        <time>2015-03-15T08:35:16Z</time>
      </trkpt>
      <trkpt lat="45.50317" lon="6.60913">
        <ele>1809.82</ele>
        <time>2015-03-15T08:35:26Z</time>
      </trkpt>
      <trkpt lat="45.5031" lon="6.60915">
        <ele>1811.26</ele>
        <time>2015-03-15T08:35:41Z</time>
      </trkpt>
      <trkpt lat="45.50305" lon="6.6092">
        <ele>1814.63</ele>
        <time>2015-03-15T08:35:56Z</time>
      </trkpt>
      <trkpt lat="45.50305" lon="6.60922">
        <ele>1815.11</ele>
        <time>2015-03-15T08:36:02Z</time>
      </trkpt>
      <trkpt lat="45.50301" lon="6.60924">
        <ele>1816.55</ele>
        <time>2015-03-15T08:36:09Z</time>
      </trkpt>
      <trkpt lat="45.50301" lon="6.60926">
        <ele>1815.11</ele>
        <time>2015-03-15T08:36:13Z</time>
      </trkpt>
      <trkpt lat="45.503" lon="6.60928">
        <ele>1817.03</ele>
        <time>2015-03-15T08:36:39Z</time>
      </trkpt>
      <trkpt lat="45.50294" lon="6.6093">
        <ele>1818.47</ele>
        <time>2015-03-15T08:36:53Z</time>
      </trkpt>
      <trkpt lat="45.50291" lon="6.60928">
        <ele>1818.95</ele>
        <time>2015-03-15T08:37:12Z</time>
      </trkpt>
      <trkpt lat="45.50286" lon="6.60939">
        <ele>1821.35</ele>
        <time>2015-03-15T08:37:27Z</time>
      </trkpt>
      <trkpt lat="45.50281" lon="6.60949">
        <ele>1823.28</ele>
        <time>2015-03-15T08:37:38Z</time>
      </trkpt>
      <trkpt lat="45.50282" lon="6.60952">
        <ele>1823.76</ele>
        <time>2015-03-15T08:37:51Z</time>
      </trkpt>
      <trkpt lat="45.50285" lon="6.60953">
        <ele>1823.76</ele>
        <time>2015-03-15T08:38:09Z</time>
      </trkpt>
      <trkpt lat="45.50286" lon="6.60955">
        <ele>1823.76</ele>
        <time>2015-03-15T08:38:34Z</time>
      </trkpt>
      <trkpt lat="45.50281" lon="6.6095">
        <ele>1824.72</ele>
        <time>2015-03-15T08:38:57Z</time>
      </trkpt>
      <trkpt lat="45.50272" lon="6.6095">
        <ele>1824.72</ele>
        <time>2015-03-15T08:39:13Z</time>
      </trkpt>
      <trkpt lat="45.50273" lon="6.60949">
        <ele>1824.72</ele>
        <time>2015-03-15T08:39:41Z</time>
      </trkpt>
      <trkpt lat="45.50274" lon="6.60952">
        <ele>1824.72</ele>
        <time>2015-03-15T08:40:16Z</time>
      </trkpt>
      <trkpt lat="45.50275" lon="6.60962">
        <ele>1825.2</ele>
        <time>2015-03-15T08:40:44Z</time>
      </trkpt>
      <trkpt lat="45.5027" lon="6.60959">
        <ele>1825.2</ele>
        <time>2015-03-15T08:41:19Z</time>
      </trkpt>
      <trkpt lat="45.50273" lon="6.60959">
        <ele>1825.2</ele>
        <time>2015-03-15T08:41:47Z</time>
      </trkpt>
      <trkpt lat="45.50277" lon="6.60955">
        <ele>1825.68</ele>
        <time>2015-03-15T08:42:22Z</time>
      </trkpt>
      <trkpt lat="45.50275" lon="6.60964">
        <ele>1826.16</ele>
        <time>2015-03-15T08:42:50Z</time>
      </trkpt>
      <trkpt lat="45.50271" lon="6.60956">
        <ele>1827.6</ele>
        <time>2015-03-15T08:43:23Z</time>
      </trkpt>
      <trkpt lat="45.50261" lon="6.60955">
        <ele>1827.6</ele>
        <time>2015-03-15T08:43:34Z</time>
      </trkpt>
      <trkpt lat="45.50253" lon="6.60955">
        <ele>1829.53</ele>
        <time>2015-03-15T08:43:46Z</time>
      </trkpt>
      <trkpt lat="45.50245" lon="6.60955">
        <ele>1830.97</ele>
        <time>2015-03-15T08:43:57Z</time>
      </trkpt>
      <trkpt lat="45.50239" lon="6.60957">
        <ele>1834.33</ele>
        <time>2015-03-15T08:44:09Z</time>
      </trkpt>
      <trkpt lat="45.50237" lon="6.60958">
        <ele>1835.77</ele>
        <time>2015-03-15T08:44:15Z</time>
      </trkpt>
      <trkpt lat="45.50231" lon="6.60965">
        <ele>1837.7</ele>
        <time>2015-03-15T08:44:28Z</time>
      </trkpt>
      <trkpt lat="45.50236" lon="6.60974">
        <ele>1839.14</ele>
        <time>2015-03-15T08:44:41Z</time>
      </trkpt>
      <trkpt lat="45.50244" lon="6.60979">
        <ele>1841.06</ele>
        <time>2015-03-15T08:44:52Z</time>
      </trkpt>
      <trkpt lat="45.50249" lon="6.60985">
        <ele>1842.02</ele>
        <time>2015-03-15T08:45:02Z</time>
      </trkpt>
      <trkpt lat="45.50252" lon="6.60996">
        <ele>1844.43</ele>
        <time>2015-03-15T08:45:14Z</time>
      </trkpt>
      <trkpt lat="45.50255" lon="6.61008">
        <ele>1844.43</ele>
        <time>2015-03-15T08:45:28Z</time>
      </trkpt>
      <trkpt lat="45.50261" lon="6.61007">
        <ele>1847.79</ele>
        <time>2015-03-15T08:45:39Z</time>
      </trkpt>
      <trkpt lat="45.50261" lon="6.61007">
        <ele>1847.79</ele>
        <time>2015-03-15T08:45:40Z</time>
      </trkpt>
      <trkpt lat="45.50263" lon="6.61013">
        <ele>1849.23</ele>
        <time>2015-03-15T08:45:56Z</time>
      </trkpt>
      <trkpt lat="45.50258" lon="6.61018">
        <ele>1849.23</ele>
        <time>2015-03-15T08:46:12Z</time>
      </trkpt>
      <trkpt lat="45.50255" lon="6.61019">
        <ele>1847.79</ele>
        <time>2015-03-15T08:46:15Z</time>
      </trkpt>
      <trkpt lat="45.50255" lon="6.61019">
        <ele>1847.79</ele>
        <time>2015-03-15T08:46:16Z</time>
      </trkpt>
      <trkpt lat="45.50245" lon="6.61018">
        <ele>1849.23</ele>
        <time>2015-03-15T08:46:26Z</time>
      </trkpt>
      <trkpt lat="45.50238" lon="6.61019">
        <ele>1849.71</ele>
        <time>2015-03-15T08:46:37Z</time>
      </trkpt>
      <trkpt lat="45.50233" lon="6.61017">
        <ele>1852.12</ele>
        <time>2015-03-15T08:46:46Z</time>
      </trkpt>
      <trkpt lat="45.5023" lon="6.61016">
        <ele>1852.12</ele>
        <time>2015-03-15T08:46:50Z</time>
      </trkpt>
      <trkpt lat="45.50224" lon="6.61014">
        <ele>1851.64</ele>
        <time>2015-03-15T08:46:58Z</time>
      </trkpt>
      <trkpt lat="45.50216" lon="6.61016">
        <ele>1854.04</ele>
        <time>2015-03-15T08:47:10Z</time>
      </trkpt>
      <trkpt lat="45.50212" lon="6.61018">
        <ele>1856.44</ele>
        <time>2015-03-15T08:47:17Z</time>
      </trkpt>
      <trkpt lat="45.50208" lon="6.61021">
        <ele>1856.92</ele>
        <time>2015-03-15T08:47:28Z</time>
      </trkpt>
      <trkpt lat="45.50207" lon="6.61022">
        <ele>1858.37</ele>
        <time>2015-03-15T08:47:32Z</time>
      </trkpt>
      <trkpt lat="45.502" lon="6.61027">
        <ele>1860.29</ele>
        <time>2015-03-15T08:47:44Z</time>
      </trkpt>
      <trkpt lat="45.50193" lon="6.61032">
        <ele>1861.25</ele>
        <time>2015-03-15T08:47:57Z</time>
      </trkpt>
      <trkpt lat="45.50188" lon="6.61036">
        <ele>1863.65</ele>
        <time>2015-03-15T08:48:10Z</time>
      </trkpt>
      <trkpt lat="45.50184" lon="6.61039">
        <ele>1864.61</ele>
        <time>2015-03-15T08:48:16Z</time>
      </trkpt>
      <trkpt lat="45.50179" lon="6.61046">
        <ele>1865.58</ele>
        <time>2015-03-15T08:48:30Z</time>
      </trkpt>
      <trkpt lat="45.50178" lon="6.61047">
        <ele>1867.5</ele>
        <time>2015-03-15T08:48:32Z</time>
      </trkpt>
      <trkpt lat="45.50173" lon="6.61053">
        <ele>1868.94</ele>
        <time>2015-03-15T08:48:44Z</time>
      </trkpt>
      <trkpt lat="45.50167" lon="6.61057">
        <ele>1872.3</ele>
        <time>2015-03-15T08:48:57Z</time>
      </trkpt>
      <trkpt lat="45.50164" lon="6.61059">
        <ele>1870.38</ele>
        <time>2015-03-15T08:49:02Z</time>
      </trkpt>
      <trkpt lat="45.50155" lon="6.6106">
        <ele>1873.27</ele>
        <time>2015-03-15T08:49:13Z</time>
      </trkpt>
      <trkpt lat="45.50154" lon="6.6106">
        <ele>1873.27</ele>
        <time>2015-03-15T08:49:14Z</time>
      </trkpt>
      <trkpt lat="45.50153" lon="6.6106">
        <ele>1871.82</ele>
        <time>2015-03-15T08:49:16Z</time>
      </trkpt>
      <trkpt lat="45.50149" lon="6.61058">
        <ele>1871.82</ele>
        <time>2015-03-15T08:49:20Z</time>
      </trkpt>
      <trkpt lat="45.5014" lon="6.61059">
        <ele>1873.75</ele>
        <time>2015-03-15T08:49:34Z</time>
      </trkpt>
      <trkpt lat="45.50139" lon="6.61059">
        <ele>1873.75</ele>
        <time>2015-03-15T08:49:35Z</time>
      </trkpt>
      <trkpt lat="45.50133" lon="6.61067">
        <ele>1874.71</ele>
        <time>2015-03-15T08:49:46Z</time>
      </trkpt>
      <trkpt lat="45.50129" lon="6.61074">
        <ele>1878.55</ele>
        <time>2015-03-15T08:49:59Z</time>
      </trkpt>
      <trkpt lat="45.5013" lon="6.61075">
        <ele>1878.55</ele>
        <time>2015-03-15T08:50:00Z</time>
      </trkpt>
      <trkpt lat="45.50135" lon="6.61085">
        <ele>1879.03</ele>
        <time>2015-03-15T08:50:12Z</time>
      </trkpt>
      <trkpt lat="45.50137" lon="6.61097">
        <ele>1880.48</ele>
        <time>2015-03-15T08:50:25Z</time>
      </trkpt>
      <trkpt lat="45.50136" lon="6.61108">
        <ele>1881.44</ele>
        <time>2015-03-15T08:50:38Z</time>
      </trkpt>
      <trkpt lat="45.50136" lon="6.61114">
        <ele>1882.88</ele>
        <time>2015-03-15T08:50:44Z</time>
      </trkpt>
      <trkpt lat="45.50136" lon="6.61126">
        <ele>1884.8</ele>
        <time>2015-03-15T08:51:00Z</time>
      </trkpt>
      <trkpt lat="45.50135" lon="6.61136">
        <ele>1885.28</ele>
        <time>2015-03-15T08:51:13Z</time>
      </trkpt>
      <trkpt lat="45.50134" lon="6.61137">
        <ele>1888.65</ele>
        <time>2015-03-15T08:51:16Z</time>
      </trkpt>
      <trkpt lat="45.50133" lon="6.61142">
        <ele>1888.65</ele>
        <time>2015-03-15T08:51:23Z</time>
      </trkpt>
      <trkpt lat="45.50131" lon="6.61154">
        <ele>1887.21</ele>
        <time>2015-03-15T08:51:39Z</time>
      </trkpt>
      <trkpt lat="45.50127" lon="6.61165">
        <ele>1888.65</ele>
        <time>2015-03-15T08:51:49Z</time>
      </trkpt>
      <trkpt lat="45.50124" lon="6.61169">
        <ele>1888.65</ele>
        <time>2015-03-15T08:51:55Z</time>
      </trkpt>
      <trkpt lat="45.50123" lon="6.6118">
        <ele>1892.97</ele>
        <time>2015-03-15T08:52:08Z</time>
      </trkpt>
      <trkpt lat="45.50123" lon="6.6118">
        <ele>1892.97</ele>
        <time>2015-03-15T08:52:09Z</time>
      </trkpt>
      <trkpt lat="45.50129" lon="6.61188">
        <ele>1895.38</ele>
        <time>2015-03-15T08:52:21Z</time>
      </trkpt>
      <trkpt lat="45.50133" lon="6.61197">
        <ele>1896.82</ele>
        <time>2015-03-15T08:52:33Z</time>
      </trkpt>
      <trkpt lat="45.50135" lon="6.61209">
        <ele>1898.74</ele>
        <time>2015-03-15T08:52:46Z</time>
      </trkpt>
      <trkpt lat="45.50139" lon="6.61217">
        <ele>1900.66</ele>
        <time>2015-03-15T08:52:57Z</time>
      </trkpt>
      <trkpt lat="45.50141" lon="6.61223">
        <ele>1902.59</ele>
        <time>2015-03-15T08:53:09Z</time>
      </trkpt>
      <trkpt lat="45.50144" lon="6.61232">
        <ele>1903.55</ele>
        <time>2015-03-15T08:53:21Z</time>
      </trkpt>
      <trkpt lat="45.50145" lon="6.61242">
        <ele>1905.47</ele>
        <time>2015-03-15T08:53:33Z</time>
      </trkpt>
      <trkpt lat="45.50146" lon="6.61252">
        <ele>1906.91</ele>
        <time>2015-03-15T08:53:45Z</time>
      </trkpt>
      <trkpt lat="45.50145" lon="6.61256">
        <ele>1908.83</ele>
        <time>2015-03-15T08:53:52Z</time>
      </trkpt>
      <trkpt lat="45.50143" lon="6.61268">
        <ele>1910.76</ele>
        <time>2015-03-15T08:54:05Z</time>
      </trkpt>
      <trkpt lat="45.50139" lon="6.61275">
        <ele>1913.16</ele>
        <time>2015-03-15T08:54:16Z</time>
      </trkpt>
      <trkpt lat="45.50136" lon="6.6128">
        <ele>1912.68</ele>
        <time>2015-03-15T08:54:24Z</time>
      </trkpt>
      <trkpt lat="45.50129" lon="6.6129">
        <ele>1915.08</ele>
        <time>2015-03-15T08:54:38Z</time>
      </trkpt>
      <trkpt lat="45.50125" lon="6.61294">
        <ele>1917.01</ele>
        <time>2015-03-15T08:54:49Z</time>
      </trkpt>
      <trkpt lat="45.50124" lon="6.61296">
        <ele>1918.93</ele>
        <time>2015-03-15T08:54:53Z</time>
      </trkpt>
      <trkpt lat="45.50123" lon="6.61297">
        <ele>1917.49</ele>
        <time>2015-03-15T08:54:55Z</time>
      </trkpt>
      <trkpt lat="45.50118" lon="6.61301">
        <ele>1919.41</ele>
        <time>2015-03-15T08:55:08Z</time>
      </trkpt>
      <trkpt lat="45.50118" lon="6.61302">
        <ele>1920.85</ele>
        <time>2015-03-15T08:55:11Z</time>
      </trkpt>
      <trkpt lat="45.50115" lon="6.61305">
        <ele>1921.81</ele>
        <time>2015-03-15T08:55:17Z</time>
      </trkpt>
      <trkpt lat="45.50112" lon="6.6131">
        <ele>1924.22</ele>
        <time>2015-03-15T08:55:30Z</time>
      </trkpt>
      <trkpt lat="45.50108" lon="6.61316">
        <ele>1925.66</ele>
        <time>2015-03-15T08:55:42Z</time>
      </trkpt>
      <trkpt lat="45.50104" lon="6.61324">
        <ele>1926.62</ele>
        <time>2015-03-15T08:55:54Z</time>
      </trkpt>
      <trkpt lat="45.50099" lon="6.61329">
        <ele>1926.14</ele>
        <time>2015-03-15T08:56:06Z</time>
      </trkpt>
      <trkpt lat="45.50099" lon="6.61331">
        <ele>1928.06</ele>
        <time>2015-03-15T08:56:08Z</time>
      </trkpt>
      <trkpt lat="45.50095" lon="6.6134">
        <ele>1929.5</ele>
        <time>2015-03-15T08:56:20Z</time>
      </trkpt>
      <trkpt lat="45.50089" lon="6.61345">
        <ele>1932.39</ele>
        <time>2015-03-15T08:56:31Z</time>
      </trkpt>
      <trkpt lat="45.50084" lon="6.6135">
        <ele>1931.91</ele>
        <time>2015-03-15T08:56:41Z</time>
      </trkpt>
      <trkpt lat="45.50081" lon="6.61351">
        <ele>1933.35</ele>
        <time>2015-03-15T08:56:46Z</time>
      </trkpt>
      <trkpt lat="45.50076" lon="6.61354">
        <ele>1934.79</ele>
        <time>2015-03-15T08:56:58Z</time>
      </trkpt>
      <trkpt lat="45.5007" lon="6.61357">
        <ele>1935.75</ele>
        <time>2015-03-15T08:57:10Z</time>
      </trkpt>
      <trkpt lat="45.50066" lon="6.61357">
        <ele>1937.19</ele>
        <time>2015-03-15T08:57:15Z</time>
      </trkpt>
      <trkpt lat="45.50063" lon="6.61359">
        <ele>1938.64</ele>
        <time>2015-03-15T08:57:22Z</time>
      </trkpt>
      <trkpt lat="45.50059" lon="6.6137">
        <ele>1939.12</ele>
        <time>2015-03-15T08:57:36Z</time>
      </trkpt>
      <trkpt lat="45.50057" lon="6.61381">
        <ele>1941.52</ele>
        <time>2015-03-15T08:57:51Z</time>
      </trkpt>
      <trkpt lat="45.50056" lon="6.61384">
        <ele>1942.96</ele>
        <time>2015-03-15T08:57:55Z</time>
      </trkpt>
      <trkpt lat="45.50054" lon="6.61394">
        <ele>1942.96</ele>
        <time>2015-03-15T08:58:06Z</time>
      </trkpt>
      <trkpt lat="45.50052" lon="6.61405">
        <ele>1945.85</ele>
        <time>2015-03-15T08:58:19Z</time>
      </trkpt>
      <trkpt lat="45.50052" lon="6.61406">
        <ele>1946.81</ele>
        <time>2015-03-15T08:58:21Z</time>
      </trkpt>
      <trkpt lat="45.50051" lon="6.61412">
        <ele>1948.25</ele>
        <time>2015-03-15T08:58:31Z</time>
      </trkpt>
      <trkpt lat="45.50048" lon="6.61425">
        <ele>1949.69</ele>
        <time>2015-03-15T08:58:45Z</time>
      </trkpt>
      <trkpt lat="45.50048" lon="6.61434">
        <ele>1952.09</ele>
        <time>2015-03-15T08:58:57Z</time>
      </trkpt>
      <trkpt lat="45.50049" lon="6.61443">
        <ele>1952.57</ele>
        <time>2015-03-15T08:59:07Z</time>
      </trkpt>
      <trkpt lat="45.50047" lon="6.61454">
        <ele>1954.5</ele>
        <time>2015-03-15T08:59:20Z</time>
      </trkpt>
      <trkpt lat="45.50046" lon="6.61463">
        <ele>1956.42</ele>
        <time>2015-03-15T08:59:33Z</time>
      </trkpt>
      <trkpt lat="45.50045" lon="6.61465">
        <ele>1957.86</ele>
        <time>2015-03-15T08:59:36Z</time>
      </trkpt>
      <trkpt lat="45.50043" lon="6.61474">
        <ele>1959.3</ele>
        <time>2015-03-15T08:59:48Z</time>
      </trkpt>
      <trkpt lat="45.50041" lon="6.61482">
        <ele>1959.3</ele>
        <time>2015-03-15T08:59:56Z</time>
      </trkpt>
      <trkpt lat="45.50041" lon="6.61485">
        <ele>1961.71</ele>
        <time>2015-03-15T08:59:59Z</time>
      </trkpt>
      <trkpt lat="45.50039" lon="6.61497">
        <ele>1963.63</ele>
        <time>2015-03-15T09:00:14Z</time>
      </trkpt>
      <trkpt lat="45.50032" lon="6.61495">
        <ele>1963.63</ele>
        <time>2015-03-15T09:00:26Z</time>
      </trkpt>
      <trkpt lat="45.50026" lon="6.61492">
        <ele>1966.03</ele>
        <time>2015-03-15T09:00:35Z</time>
      </trkpt>
      <trkpt lat="45.50019" lon="6.61487">
        <ele>1966.03</ele>
        <time>2015-03-15T09:00:47Z</time>
      </trkpt>
      <trkpt lat="45.50018" lon="6.61487">
        <ele>1969.4</ele>
        <time>2015-03-15T09:00:50Z</time>
      </trkpt>
      <trkpt lat="45.50012" lon="6.61484">
        <ele>1970.36</ele>
        <time>2015-03-15T09:01:05Z</time>
      </trkpt>
      <trkpt lat="45.50007" lon="6.61482">
        <ele>1972.28</ele>
        <time>2015-03-15T09:01:18Z</time>
      </trkpt>
      <trkpt lat="45.50003" lon="6.6148">
        <ele>1971.8</ele>
        <time>2015-03-15T09:01:28Z</time>
      </trkpt>
      <trkpt lat="45.49998" lon="6.6148">
        <ele>1975.65</ele>
        <time>2015-03-15T09:01:40Z</time>
      </trkpt>
      <trkpt lat="45.49998" lon="6.61482">
        <ele>1975.65</ele>
        <time>2015-03-15T09:01:53Z</time>
      </trkpt>
      <trkpt lat="45.49997" lon="6.61482">
        <ele>1975.65</ele>
        <time>2015-03-15T09:02:23Z</time>
      </trkpt>
      <trkpt lat="45.49999" lon="6.61486">
        <ele>1975.65</ele>
        <time>2015-03-15T09:02:46Z</time>
      </trkpt>
      <trkpt lat="45.49998" lon="6.61485">
        <ele>1975.65</ele>
        <time>2015-03-15T09:03:11Z</time>
      </trkpt>
      <trkpt lat="45.49998" lon="6.61492">
        <ele>1977.57</ele>
        <time>2015-03-15T09:03:28Z</time>
      </trkpt>
      <trkpt lat="45.49999" lon="6.61504">
        <ele>1979.97</ele>
        <time>2015-03-15T09:03:41Z</time>
      </trkpt>
      <trkpt lat="45.49999" lon="6.6152">
        <ele>1982.38</ele>
        <time>2015-03-15T09:03:56Z</time>
      </trkpt>
      <trkpt lat="45.5" lon="6.6153">
        <ele>1981.41</ele>
        <time>2015-03-15T09:04:10Z</time>
      </trkpt>
      <trkpt lat="45.50001" lon="6.61534">
        <ele>1982.86</ele>
        <time>2015-03-15T09:04:13Z</time>
      </trkpt>
      <trkpt lat="45.50002" lon="6.61545">
        <ele>1983.82</ele>
        <time>2015-03-15T09:04:25Z</time>
      </trkpt>
      <trkpt lat="45.50002" lon="6.6155">
        <ele>1983.82</ele>
        <time>2015-03-15T09:04:29Z</time>
      </trkpt>
      <trkpt lat="45.49999" lon="6.61565">
        <ele>1983.82</ele>
        <time>2015-03-15T09:04:43Z</time>
      </trkpt>
      <trkpt lat="45.49996" lon="6.61575">
        <ele>1985.74</ele>
        <time>2015-03-15T09:04:54Z</time>
      </trkpt>
      <trkpt lat="45.49992" lon="6.61579">
        <ele>1986.7</ele>
        <time>2015-03-15T09:05:01Z</time>
      </trkpt>
      <trkpt lat="45.49987" lon="6.61583">
        <ele>1990.55</ele>
        <time>2015-03-15T09:05:10Z</time>
      </trkpt>
      <trkpt lat="45.4998" lon="6.61593">
        <ele>1990.55</ele>
        <time>2015-03-15T09:05:23Z</time>
      </trkpt>
      <trkpt lat="45.49976" lon="6.61599">
        <ele>1992.95</ele>
        <time>2015-03-15T09:05:33Z</time>
      </trkpt>
      <trkpt lat="45.49973" lon="6.61606">
        <ele>1993.91</ele>
        <time>2015-03-15T09:05:43Z</time>
      </trkpt>
      <trkpt lat="45.49976" lon="6.61614">
        <ele>1996.32</ele>
        <time>2015-03-15T09:05:55Z</time>
      </trkpt>
      <trkpt lat="45.49982" lon="6.61622">
        <ele>1997.28</ele>
        <time>2015-03-15T09:06:07Z</time>
      </trkpt>
      <trkpt lat="45.49984" lon="6.61625">
        <ele>1998.72</ele>
        <time>2015-03-15T09:06:11Z</time>
      </trkpt>
      <trkpt lat="45.49989" lon="6.61634">
        <ele>2000.64</ele>
        <time>2015-03-15T09:06:23Z</time>
      </trkpt>
      <trkpt lat="45.49982" lon="6.61636">
        <ele>2001.12</ele>
        <time>2015-03-15T09:06:33Z</time>
      </trkpt>
      <trkpt lat="45.49974" lon="6.61634">
        <ele>2003.04</ele>
        <time>2015-03-15T09:06:46Z</time>
      </trkpt>
      <trkpt lat="45.49967" lon="6.61633">
        <ele>2003.52</ele>
        <time>2015-03-15T09:06:56Z</time>
      </trkpt>
      <trkpt lat="45.49961" lon="6.61634">
        <ele>2004.49</ele>
        <time>2015-03-15T09:07:06Z</time>
      </trkpt>
      <trkpt lat="45.49957" lon="6.61634">
        <ele>2005.45</ele>
        <time>2015-03-15T09:07:12Z</time>
      </trkpt>
      <trkpt lat="45.49949" lon="6.61634">
        <ele>2008.33</ele>
        <time>2015-03-15T09:07:25Z</time>
      </trkpt>
      <trkpt lat="45.49942" lon="6.61634">
        <ele>2009.77</ele>
        <time>2015-03-15T09:07:36Z</time>
      </trkpt>
      <trkpt lat="45.49938" lon="6.61638">
        <ele>2010.73</ele>
        <time>2015-03-15T09:07:46Z</time>
      </trkpt>
      <trkpt lat="45.49942" lon="6.61644">
        <ele>2012.18</ele>
        <time>2015-03-15T09:07:58Z</time>
      </trkpt>
      <trkpt lat="45.49949" lon="6.61646">
        <ele>2013.62</ele>
        <time>2015-03-15T09:08:09Z</time>
      </trkpt>
      <trkpt lat="45.49955" lon="6.61649">
        <ele>2014.58</ele>
        <time>2015-03-15T09:08:19Z</time>
      </trkpt>
      <trkpt lat="45.49957" lon="6.6165">
        <ele>2014.58</ele>
        <time>2015-03-15T09:08:21Z</time>
      </trkpt>
      <trkpt lat="45.49961" lon="6.61654">
        <ele>2015.06</ele>
        <time>2015-03-15T09:08:27Z</time>
      </trkpt>
      <trkpt lat="45.49969" lon="6.61662">
        <ele>2016.5</ele>
        <time>2015-03-15T09:08:41Z</time>
      </trkpt>
      <trkpt lat="45.49975" lon="6.61669">
        <ele>2017.46</ele>
        <time>2015-03-15T09:08:52Z</time>
      </trkpt>
      <trkpt lat="45.49981" lon="6.61679">
        <ele>2019.39</ele>
        <time>2015-03-15T09:09:05Z</time>
      </trkpt>
      <trkpt lat="45.49985" lon="6.61684">
        <ele>2020.83</ele>
        <time>2015-03-15T09:09:14Z</time>
      </trkpt>
      <trkpt lat="45.49986" lon="6.61691">
        <ele>2019.87</ele>
        <time>2015-03-15T09:09:25Z</time>
      </trkpt>
      <trkpt lat="45.49985" lon="6.61693">
        <ele>2023.71</ele>
        <time>2015-03-15T09:09:30Z</time>
      </trkpt>
      <trkpt lat="45.49987" lon="6.61696">
        <ele>2022.27</ele>
        <time>2015-03-15T09:09:43Z</time>
      </trkpt>
      <trkpt lat="45.49995" lon="6.61707">
        <ele>2023.71</ele>
        <time>2015-03-15T09:09:56Z</time>
      </trkpt>
      <trkpt lat="45.5" lon="6.61713">
        <ele>2024.19</ele>
        <time>2015-03-15T09:10:06Z</time>
      </trkpt>
      <trkpt lat="45.50007" lon="6.61717">
        <ele>2025.15</ele>
        <time>2015-03-15T09:10:17Z</time>
      </trkpt>
      <trkpt lat="45.50011" lon="6.61725">
        <ele>2025.64</ele>
        <time>2015-03-15T09:10:28Z</time>
      </trkpt>
      <trkpt lat="45.50015" lon="6.61731">
        <ele>2026.12</ele>
        <time>2015-03-15T09:10:41Z</time>
      </trkpt>
      <trkpt lat="45.50017" lon="6.61736">
        <ele>2025.15</ele>
        <time>2015-03-15T09:10:46Z</time>
      </trkpt>
      <trkpt lat="45.50024" lon="6.61746">
        <ele>2028.04</ele>
        <time>2015-03-15T09:10:58Z</time>
      </trkpt>
      <trkpt lat="45.50029" lon="6.61753">
        <ele>2029.48</ele>
        <time>2015-03-15T09:11:08Z</time>
      </trkpt>
      <trkpt lat="45.50037" lon="6.61764">
        <ele>2029.48</ele>
        <time>2015-03-15T09:11:22Z</time>
      </trkpt>
      <trkpt lat="45.50041" lon="6.6177">
        <ele>2032.84</ele>
        <time>2015-03-15T09:11:31Z</time>
      </trkpt>
      <trkpt lat="45.50048" lon="6.6178">
        <ele>2033.33</ele>
        <time>2015-03-15T09:11:43Z</time>
      </trkpt>
      <trkpt lat="45.50053" lon="6.61786">
        <ele>2035.73</ele>
        <time>2015-03-15T09:11:55Z</time>
      </trkpt>
      <trkpt lat="45.50059" lon="6.61793">
        <ele>2036.69</ele>
        <time>2015-03-15T09:12:05Z</time>
      </trkpt>
      <trkpt lat="45.50065" lon="6.61804">
        <ele>2038.13</ele>
        <time>2015-03-15T09:12:18Z</time>
      </trkpt>
      <trkpt lat="45.50074" lon="6.61818">
        <ele>2039.57</ele>
        <time>2015-03-15T09:12:32Z</time>
      </trkpt>
      <trkpt lat="45.50077" lon="6.61823">
        <ele>2040.05</ele>
        <time>2015-03-15T09:12:38Z</time>
      </trkpt>
      <trkpt lat="45.50083" lon="6.61832">
        <ele>2040.54</ele>
        <time>2015-03-15T09:12:49Z</time>
      </trkpt>
      <trkpt lat="45.5009" lon="6.61838">
        <ele>2042.46</ele>
        <time>2015-03-15T09:13:00Z</time>
      </trkpt>
      <trkpt lat="45.50102" lon="6.61846">
        <ele>2043.42</ele>
        <time>2015-03-15T09:13:16Z</time>
      </trkpt>
      <trkpt lat="45.50103" lon="6.61847">
        <ele>2043.9</ele>
        <time>2015-03-15T09:13:19Z</time>
      </trkpt>
      <trkpt lat="45.50109" lon="6.61852">
        <ele>2045.34</ele>
        <time>2015-03-15T09:13:29Z</time>
      </trkpt>
      <trkpt lat="45.5011" lon="6.61852">
        <ele>2045.34</ele>
        <time>2015-03-15T09:13:30Z</time>
      </trkpt>
      <trkpt lat="45.50114" lon="6.61854">
        <ele>2045.34</ele>
        <time>2015-03-15T09:13:34Z</time>
      </trkpt>
      <trkpt lat="45.50123" lon="6.61862">
        <ele>2046.3</ele>
        <time>2015-03-15T09:13:46Z</time>
      </trkpt>
      <trkpt lat="45.50132" lon="6.61872">
        <ele>2047.75</ele>
        <time>2015-03-15T09:13:59Z</time>
      </trkpt>
      <trkpt lat="45.50135" lon="6.6188">
        <ele>2049.67</ele>
        <time>2015-03-15T09:14:10Z</time>
      </trkpt>
      <trkpt lat="45.50127" lon="6.61877">
        <ele>2049.67</ele>
        <time>2015-03-15T09:14:22Z</time>
      </trkpt>
      <trkpt lat="45.5012" lon="6.61874">
        <ele>2051.11</ele>
        <time>2015-03-15T09:14:33Z</time>
      </trkpt>
      <trkpt lat="45.50113" lon="6.6187">
        <ele>2052.55</ele>
        <time>2015-03-15T09:14:47Z</time>
      </trkpt>
      <trkpt lat="45.50107" lon="6.61867">
        <ele>2052.55</ele>
        <time>2015-03-15T09:15:06Z</time>
      </trkpt>
      <trkpt lat="45.50097" lon="6.61866">
        <ele>2054.47</ele>
        <time>2015-03-15T09:15:20Z</time>
      </trkpt>
      <trkpt lat="45.50087" lon="6.61863">
        <ele>2054.47</ele>
        <time>2015-03-15T09:15:35Z</time>
      </trkpt>
      <trkpt lat="45.50085" lon="6.61862">
        <ele>2055.44</ele>
        <time>2015-03-15T09:15:38Z</time>
      </trkpt>
      <trkpt lat="45.50081" lon="6.6186">
        <ele>2055.44</ele>
        <time>2015-03-15T09:15:42Z</time>
      </trkpt>
      <trkpt lat="45.50079" lon="6.61858">
        <ele>2054.47</ele>
        <time>2015-03-15T09:15:44Z</time>
      </trkpt>
      <trkpt lat="45.5007" lon="6.61853">
        <ele>2054.47</ele>
        <time>2015-03-15T09:15:56Z</time>
      </trkpt>
      <trkpt lat="45.50061" lon="6.61845">
        <ele>2054.96</ele>
        <time>2015-03-15T09:16:12Z</time>
      </trkpt>
      <trkpt lat="45.50056" lon="6.6184">
        <ele>2056.4</ele>
        <time>2015-03-15T09:16:21Z</time>
      </trkpt>
      <trkpt lat="45.50048" lon="6.61832">
        <ele>2056.88</ele>
        <time>2015-03-15T09:16:34Z</time>
      </trkpt>
      <trkpt lat="45.50041" lon="6.61829">
        <ele>2058.32</ele>
        <time>2015-03-15T09:16:45Z</time>
      </trkpt>
      <trkpt lat="45.50037" lon="6.61828">
        <ele>2057.84</ele>
        <time>2015-03-15T09:16:49Z</time>
      </trkpt>
      <trkpt lat="45.5003" lon="6.61824">
        <ele>2059.28</ele>
        <time>2015-03-15T09:16:58Z</time>
      </trkpt>
      <trkpt lat="45.5002" lon="6.6182">
        <ele>2058.8</ele>
        <time>2015-03-15T09:17:10Z</time>
      </trkpt>
      <trkpt lat="45.50014" lon="6.61816">
        <ele>2061.68</ele>
        <time>2015-03-15T09:17:20Z</time>
      </trkpt>
      <trkpt lat="45.50007" lon="6.6181">
        <ele>2060.72</ele>
        <time>2015-03-15T09:17:31Z</time>
      </trkpt>
      <trkpt lat="45.5" lon="6.61805">
        <ele>2063.13</ele>
        <time>2015-03-15T09:17:43Z</time>
      </trkpt>
      <trkpt lat="45.49992" lon="6.61801">
        <ele>2064.09</ele>
        <time>2015-03-15T09:17:57Z</time>
      </trkpt>
      <trkpt lat="45.4999" lon="6.618">
        <ele>2064.09</ele>
        <time>2015-03-15T09:17:59Z</time>
      </trkpt>
      <trkpt lat="45.49985" lon="6.61798">
        <ele>2064.57</ele>
        <time>2015-03-15T09:18:05Z</time>
      </trkpt>
      <trkpt lat="45.49973" lon="6.61791">
        <ele>2065.05</ele>
        <time>2015-03-15T09:18:18Z</time>
      </trkpt>
      <trkpt lat="45.49964" lon="6.61784">
        <ele>2065.05</ele>
        <time>2015-03-15T09:18:31Z</time>
      </trkpt>
      <trkpt lat="45.49954" lon="6.61775">
        <ele>2066.97</ele>
        <time>2015-03-15T09:18:44Z</time>
      </trkpt>
      <trkpt lat="45.49945" lon="6.6177">
        <ele>2068.41</ele>
        <time>2015-03-15T09:18:56Z</time>
      </trkpt>
      <trkpt lat="45.49938" lon="6.61765">
        <ele>2068.41</ele>
        <time>2015-03-15T09:19:06Z</time>
      </trkpt>
      <trkpt lat="45.49928" lon="6.6176">
        <ele>2068.89</ele>
        <time>2015-03-15T09:19:18Z</time>
      </trkpt>
      <trkpt lat="45.49918" lon="6.61754">
        <ele>2070.34</ele>
        <time>2015-03-15T09:19:32Z</time>
      </trkpt>
      <trkpt lat="45.49907" lon="6.6175">
        <ele>2070.82</ele>
        <time>2015-03-15T09:19:45Z</time>
      </trkpt>
      <trkpt lat="45.49895" lon="6.61749">
        <ele>2072.74</ele>
        <time>2015-03-15T09:20:01Z</time>
      </trkpt>
      <trkpt lat="45.49885" lon="6.61749">
        <ele>2074.66</ele>
        <time>2015-03-15T09:20:16Z</time>
      </trkpt>
      <trkpt lat="45.4988" lon="6.61749">
        <ele>2076.1</ele>
        <time>2015-03-15T09:20:21Z</time>
      </trkpt>
      <trkpt lat="45.49869" lon="6.6175">
        <ele>2076.59</ele>
        <time>2015-03-15T09:20:36Z</time>
      </trkpt>
      <trkpt lat="45.49861" lon="6.61748">
        <ele>2077.55</ele>
        <time>2015-03-15T09:20:44Z</time>
      </trkpt>
      <trkpt lat="45.49849" lon="6.61743">
        <ele>2077.55</ele>
        <time>2015-03-15T09:20:57Z</time>
      </trkpt>
      <trkpt lat="45.49836" lon="6.61739">
        <ele>2078.51</ele>
        <time>2015-03-15T09:21:13Z</time>
      </trkpt>
      <trkpt lat="45.49827" lon="6.61738">
        <ele>2079.47</ele>
        <time>2015-03-15T09:21:25Z</time>
      </trkpt>
      <trkpt lat="45.49827" lon="6.61737">
        <ele>2079.47</ele>
        <time>2015-03-15T09:21:26Z</time>
      </trkpt>
      <trkpt lat="45.49816" lon="6.61739">
        <ele>2080.43</ele>
        <time>2015-03-15T09:21:40Z</time>
      </trkpt>
      <trkpt lat="45.49805" lon="6.61738">
        <ele>2081.87</ele>
        <time>2015-03-15T09:21:55Z</time>
      </trkpt>
      <trkpt lat="45.49793" lon="6.61734">
        <ele>2083.79</ele>
        <time>2015-03-15T09:22:10Z</time>
      </trkpt>
      <trkpt lat="45.49782" lon="6.61728">
        <ele>2084.76</ele>
        <time>2015-03-15T09:22:25Z</time>
      </trkpt>
      <trkpt lat="45.49768" lon="6.61718">
        <ele>2086.2</ele>
        <time>2015-03-15T09:22:42Z</time>
      </trkpt>
      <trkpt lat="45.49756" lon="6.61716">
        <ele>2087.16</ele>
        <time>2015-03-15T09:22:57Z</time>
      </trkpt>
      <trkpt lat="45.49751" lon="6.61716">
        <ele>2087.64</ele>
        <time>2015-03-15T09:23:04Z</time>
      </trkpt>
      <trkpt lat="45.49744" lon="6.61716">
        <ele>2088.12</ele>
        <time>2015-03-15T09:23:12Z</time>
      </trkpt>
      <trkpt lat="45.49734" lon="6.61717">
        <ele>2089.08</ele>
        <time>2015-03-15T09:23:25Z</time>
      </trkpt>
      <trkpt lat="45.4972" lon="6.61709">
        <ele>2090.04</ele>
        <time>2015-03-15T09:23:43Z</time>
      </trkpt>
      <trkpt lat="45.49709" lon="6.61701">
        <ele>2091</ele>
        <time>2015-03-15T09:23:58Z</time>
      </trkpt>
      <trkpt lat="45.49697" lon="6.61692">
        <ele>2092.45</ele>
        <time>2015-03-15T09:24:13Z</time>
      </trkpt>
      <trkpt lat="45.49686" lon="6.61687">
        <ele>2093.41</ele>
        <time>2015-03-15T09:24:29Z</time>
      </trkpt>
      <trkpt lat="45.49678" lon="6.61685">
        <ele>2096.29</ele>
        <time>2015-03-15T09:24:47Z</time>
      </trkpt>
      <trkpt lat="45.4967" lon="6.61682">
        <ele>2099.18</ele>
        <time>2015-03-15T09:25:02Z</time>
      </trkpt>
      <trkpt lat="45.49661" lon="6.61681">
        <ele>2101.1</ele>
        <time>2015-03-15T09:25:18Z</time>
      </trkpt>
      <trkpt lat="45.49652" lon="6.61681">
        <ele>2103.02</ele>
        <time>2015-03-15T09:25:33Z</time>
      </trkpt>
      <trkpt lat="45.4964" lon="6.61683">
        <ele>2106.39</ele>
        <time>2015-03-15T09:25:51Z</time>
      </trkpt>
      <trkpt lat="45.49642" lon="6.61684">
        <ele>2104.94</ele>
        <time>2015-03-15T09:25:57Z</time>
      </trkpt>
      <trkpt lat="45.49646" lon="6.61689">
        <ele>2106.39</ele>
        <time>2015-03-15T09:26:09Z</time>
      </trkpt>
      <trkpt lat="45.4965" lon="6.61696">
        <ele>2108.31</ele>
        <time>2015-03-15T09:26:21Z</time>
      </trkpt>
      <trkpt lat="45.49654" lon="6.61702">
        <ele>2110.71</ele>
        <time>2015-03-15T09:26:36Z</time>
      </trkpt>
      <trkpt lat="45.4966" lon="6.61711">
        <ele>2111.67</ele>
        <time>2015-03-15T09:26:50Z</time>
      </trkpt>
      <trkpt lat="45.49665" lon="6.61718">
        <ele>2113.12</ele>
        <time>2015-03-15T09:27:04Z</time>
      </trkpt>
      <trkpt lat="45.49671" lon="6.61723">
        <ele>2116</ele>
        <time>2015-03-15T09:27:18Z</time>
      </trkpt>
      <trkpt lat="45.49676" lon="6.61729">
        <ele>2117.92</ele>
        <time>2015-03-15T09:27:33Z</time>
      </trkpt>
      <trkpt lat="45.49669" lon="6.61735">
        <ele>2119.84</ele>
        <time>2015-03-15T09:27:48Z</time>
      </trkpt>
      <trkpt lat="45.49661" lon="6.6174">
        <ele>2122.73</ele>
        <time>2015-03-15T09:28:04Z</time>
      </trkpt>
      <trkpt lat="45.49656" lon="6.61745">
        <ele>2124.17</ele>
        <time>2015-03-15T09:28:19Z</time>
      </trkpt>
      <trkpt lat="45.49653" lon="6.61749">
        <ele>2126.57</ele>
        <time>2015-03-15T09:28:32Z</time>
      </trkpt>
      <trkpt lat="45.4965" lon="6.61753">
        <ele>2129.46</ele>
        <time>2015-03-15T09:28:43Z</time>
      </trkpt>
      <trkpt lat="45.49642" lon="6.61759">
        <ele>2131.86</ele>
        <time>2015-03-15T09:29:00Z</time>
      </trkpt>
      <trkpt lat="45.49634" lon="6.61764">
        <ele>2133.3</ele>
        <time>2015-03-15T09:29:17Z</time>
      </trkpt>
      <trkpt lat="45.4963" lon="6.6177">
        <ele>2135.71</ele>
        <time>2015-03-15T09:29:31Z</time>
      </trkpt>
      <trkpt lat="45.49625" lon="6.61777">
        <ele>2137.15</ele>
        <time>2015-03-15T09:29:44Z</time>
      </trkpt>
      <trkpt lat="45.49624" lon="6.61779">
        <ele>2137.63</ele>
        <time>2015-03-15T09:30:00Z</time>
      </trkpt>
      <trkpt lat="45.49621" lon="6.61783">
        <ele>2139.07</ele>
        <time>2015-03-15T09:30:13Z</time>
      </trkpt>
      <trkpt lat="45.49615" lon="6.6179">
        <ele>2140.99</ele>
        <time>2015-03-15T09:30:28Z</time>
      </trkpt>
      <trkpt lat="45.49612" lon="6.61792">
        <ele>2141.95</ele>
        <time>2015-03-15T09:30:48Z</time>
      </trkpt>
      <trkpt lat="45.49606" lon="6.618">
        <ele>2144.36</ele>
        <time>2015-03-15T09:31:04Z</time>
      </trkpt>
      <trkpt lat="45.49603" lon="6.61806">
        <ele>2145.8</ele>
        <time>2015-03-15T09:31:17Z</time>
      </trkpt>
      <trkpt lat="45.49601" lon="6.61816">
        <ele>2148.2</ele>
        <time>2015-03-15T09:31:31Z</time>
      </trkpt>
      <trkpt lat="45.49599" lon="6.61829">
        <ele>2150.13</ele>
        <time>2015-03-15T09:31:47Z</time>
      </trkpt>
      <trkpt lat="45.49597" lon="6.61843">
        <ele>2150.61</ele>
        <time>2015-03-15T09:32:00Z</time>
      </trkpt>
      <trkpt lat="45.49597" lon="6.61844">
        <ele>2151.57</ele>
        <time>2015-03-15T09:32:17Z</time>
      </trkpt>
      <trkpt lat="45.49597" lon="6.61844">
        <ele>2150.13</ele>
        <time>2015-03-15T09:32:19Z</time>
      </trkpt>
      <trkpt lat="45.49595" lon="6.61845">
        <ele>2150.61</ele>
        <time>2015-03-15T09:32:29Z</time>
      </trkpt>
      <trkpt lat="45.49598" lon="6.61854">
        <ele>2150.13</ele>
        <time>2015-03-15T09:32:59Z</time>
      </trkpt>
      <trkpt lat="45.49599" lon="6.6187">
        <ele>2152.53</ele>
        <time>2015-03-15T09:33:13Z</time>
      </trkpt>
      <trkpt lat="45.49599" lon="6.61882">
        <ele>2154.93</ele>
        <time>2015-03-15T09:33:28Z</time>
      </trkpt>
      <trkpt lat="45.49601" lon="6.61892">
        <ele>2157.34</ele>
        <time>2015-03-15T09:33:42Z</time>
      </trkpt>
      <trkpt lat="45.49602" lon="6.61902">
        <ele>2159.26</ele>
        <time>2015-03-15T09:33:56Z</time>
      </trkpt>
      <trkpt lat="45.49603" lon="6.61909">
        <ele>2162.14</ele>
        <time>2015-03-15T09:34:05Z</time>
      </trkpt>
      <trkpt lat="45.49606" lon="6.61918">
        <ele>2163.58</ele>
        <time>2015-03-15T09:34:20Z</time>
      </trkpt>
      <trkpt lat="45.49607" lon="6.61927">
        <ele>2167.43</ele>
        <time>2015-03-15T09:34:36Z</time>
      </trkpt>
      <trkpt lat="45.49609" lon="6.61937">
        <ele>2169.83</ele>
        <time>2015-03-15T09:34:49Z</time>
      </trkpt>
      <trkpt lat="45.49608" lon="6.61937">
        <ele>2169.83</ele>
        <time>2015-03-15T09:34:50Z</time>
      </trkpt>
      <trkpt lat="45.49611" lon="6.61944">
        <ele>2171.76</ele>
        <time>2015-03-15T09:35:01Z</time>
      </trkpt>
      <trkpt lat="45.49616" lon="6.61954">
        <ele>2174.16</ele>
        <time>2015-03-15T09:35:14Z</time>
      </trkpt>
      <trkpt lat="45.49621" lon="6.61963">
        <ele>2173.2</ele>
        <time>2015-03-15T09:35:29Z</time>
      </trkpt>
      <trkpt lat="45.49626" lon="6.61973">
        <ele>2176.08</ele>
        <time>2015-03-15T09:35:42Z</time>
      </trkpt>
      <trkpt lat="45.49631" lon="6.61982">
        <ele>2176.08</ele>
        <time>2015-03-15T09:35:56Z</time>
      </trkpt>
      <trkpt lat="45.49637" lon="6.61997">
        <ele>2178.97</ele>
        <time>2015-03-15T09:36:13Z</time>
      </trkpt>
      <trkpt lat="45.49641" lon="6.62011">
        <ele>2180.89</ele>
        <time>2015-03-15T09:36:30Z</time>
      </trkpt>
      <trkpt lat="45.49645" lon="6.62022">
        <ele>2182.33</ele>
        <time>2015-03-15T09:36:44Z</time>
      </trkpt>
      <trkpt lat="45.49649" lon="6.62032">
        <ele>2183.77</ele>
        <time>2015-03-15T09:36:56Z</time>
      </trkpt>
      <trkpt lat="45.49651" lon="6.62039">
        <ele>2183.77</ele>
        <time>2015-03-15T09:37:04Z</time>
      </trkpt>
      <trkpt lat="45.49653" lon="6.62051">
        <ele>2186.18</ele>
        <time>2015-03-15T09:37:18Z</time>
      </trkpt>
      <trkpt lat="45.49653" lon="6.62061">
        <ele>2188.58</ele>
        <time>2015-03-15T09:37:33Z</time>
      </trkpt>
      <trkpt lat="45.49654" lon="6.62073">
        <ele>2191.46</ele>
        <time>2015-03-15T09:37:49Z</time>
      </trkpt>
      <trkpt lat="45.49654" lon="6.62084">
        <ele>2193.87</ele>
        <time>2015-03-15T09:38:03Z</time>
      </trkpt>
      <trkpt lat="45.49654" lon="6.62097">
        <ele>2195.79</ele>
        <time>2015-03-15T09:38:19Z</time>
      </trkpt>
      <trkpt lat="45.49652" lon="6.62108">
        <ele>2198.67</ele>
        <time>2015-03-15T09:38:34Z</time>
      </trkpt>
      <trkpt lat="45.4965" lon="6.62117">
        <ele>2200.11</ele>
        <time>2015-03-15T09:38:47Z</time>
      </trkpt>
      <trkpt lat="45.49647" lon="6.62125">
        <ele>2202.04</ele>
        <time>2015-03-15T09:38:59Z</time>
      </trkpt>
      <trkpt lat="45.49642" lon="6.62133">
        <ele>2203.48</ele>
        <time>2015-03-15T09:39:14Z</time>
      </trkpt>
      <trkpt lat="45.49636" lon="6.62142">
        <ele>2205.4</ele>
        <time>2015-03-15T09:39:29Z</time>
      </trkpt>
      <trkpt lat="45.49633" lon="6.6215">
        <ele>2206.84</ele>
        <time>2015-03-15T09:39:43Z</time>
      </trkpt>
      <trkpt lat="45.49628" lon="6.62157">
        <ele>2209.73</ele>
        <time>2015-03-15T09:39:59Z</time>
      </trkpt>
      <trkpt lat="45.49623" lon="6.62165">
        <ele>2211.17</ele>
        <time>2015-03-15T09:40:15Z</time>
      </trkpt>
      <trkpt lat="45.49621" lon="6.62171">
        <ele>2212.61</ele>
        <time>2015-03-15T09:40:27Z</time>
      </trkpt>
      <trkpt lat="45.49621" lon="6.62177">
        <ele>2215.01</ele>
        <time>2015-03-15T09:40:39Z</time>
      </trkpt>
      <trkpt lat="45.49622" lon="6.6218">
        <ele>2216.46</ele>
        <time>2015-03-15T09:40:53Z</time>
      </trkpt>
      <trkpt lat="45.4962" lon="6.62183">
        <ele>2215.01</ele>
        <time>2015-03-15T09:41:01Z</time>
      </trkpt>
      <trkpt lat="45.49613" lon="6.62187">
        <ele>2217.42</ele>
        <time>2015-03-15T09:41:12Z</time>
      </trkpt>
      <trkpt lat="45.49604" lon="6.62193">
        <ele>2219.34</ele>
        <time>2015-03-15T09:41:30Z</time>
      </trkpt>
      <trkpt lat="45.49601" lon="6.62199">
        <ele>2219.82</ele>
        <time>2015-03-15T09:41:41Z</time>
      </trkpt>
      <trkpt lat="45.496" lon="6.62203">
        <ele>2221.26</ele>
        <time>2015-03-15T09:41:58Z</time>
      </trkpt>
      <trkpt lat="45.49599" lon="6.62206">
        <ele>2220.3</ele>
        <time>2015-03-15T09:42:09Z</time>
      </trkpt>
      <trkpt lat="45.49599" lon="6.62206">
        <ele>2221.74</ele>
        <time>2015-03-15T09:42:12Z</time>
      </trkpt>
      <trkpt lat="45.49594" lon="6.62213">
        <ele>2225.11</ele>
        <time>2015-03-15T09:42:24Z</time>
      </trkpt>
      <trkpt lat="45.4959" lon="6.62218">
        <ele>2225.59</ele>
        <time>2015-03-15T09:42:40Z</time>
      </trkpt>
      <trkpt lat="45.49591" lon="6.62215">
        <ele>2225.59</ele>
        <time>2015-03-15T09:42:56Z</time>
      </trkpt>
      <trkpt lat="45.49588" lon="6.62218">
        <ele>2226.07</ele>
        <time>2015-03-15T09:43:19Z</time>
      </trkpt>
      <trkpt lat="45.49589" lon="6.62219">
        <ele>2226.07</ele>
        <time>2015-03-15T09:43:43Z</time>
      </trkpt>
      <trkpt lat="45.49588" lon="6.62229">
        <ele>2227.03</ele>
        <time>2015-03-15T09:43:57Z</time>
      </trkpt>
      <trkpt lat="45.49586" lon="6.62235">
        <ele>2228.95</ele>
        <time>2015-03-15T09:44:06Z</time>
      </trkpt>
      <trkpt lat="45.49585" lon="6.62236">
        <ele>2230.4</ele>
        <time>2015-03-15T09:44:10Z</time>
      </trkpt>
      <trkpt lat="45.49585" lon="6.62239">
        <ele>2231.36</ele>
        <time>2015-03-15T09:44:12Z</time>
      </trkpt>
      <trkpt lat="45.49585" lon="6.62241">
        <ele>2229.92</ele>
        <time>2015-03-15T09:44:14Z</time>
      </trkpt>
      <trkpt lat="45.49582" lon="6.6225">
        <ele>2229.43</ele>
        <time>2015-03-15T09:44:27Z</time>
      </trkpt>
      <trkpt lat="45.49582" lon="6.6225">
        <ele>2227.03</ele>
        <time>2015-03-15T09:44:29Z</time>
      </trkpt>
      <trkpt lat="45.49582" lon="6.6225">
        <ele>2228.47</ele>
        <time>2015-03-15T09:44:31Z</time>
      </trkpt>
      <trkpt lat="45.49584" lon="6.6225">
        <ele>2230.4</ele>
        <time>2015-03-15T09:44:55Z</time>
      </trkpt>
      <trkpt lat="45.49582" lon="6.62258">
        <ele>2231.36</ele>
        <time>2015-03-15T09:45:12Z</time>
      </trkpt>
      <trkpt lat="45.49581" lon="6.62268">
        <ele>2234.24</ele>
        <time>2015-03-15T09:45:26Z</time>
      </trkpt>
      <trkpt lat="45.49578" lon="6.62279">
        <ele>2236.64</ele>
        <time>2015-03-15T09:45:41Z</time>
      </trkpt>
      <trkpt lat="45.49574" lon="6.62291">
        <ele>2239.05</ele>
        <time>2015-03-15T09:46:03Z</time>
      </trkpt>
      <trkpt lat="45.49572" lon="6.62294">
        <ele>2239.53</ele>
        <time>2015-03-15T09:46:17Z</time>
      </trkpt>
      <trkpt lat="45.49569" lon="6.62304">
        <ele>2240.97</ele>
        <time>2015-03-15T09:46:32Z</time>
      </trkpt>
      <trkpt lat="45.4957" lon="6.62304">
        <ele>2240.01</ele>
        <time>2015-03-15T09:46:34Z</time>
      </trkpt>
      <trkpt lat="45.4957" lon="6.62306">
        <ele>2240.97</ele>
        <time>2015-03-15T09:46:40Z</time>
      </trkpt>
      <trkpt lat="45.4957" lon="6.62305">
        <ele>2240.01</ele>
        <time>2015-03-15T09:46:44Z</time>
      </trkpt>
      <trkpt lat="45.49569" lon="6.62301">
        <ele>2240.97</ele>
        <time>2015-03-15T09:47:10Z</time>
      </trkpt>
      <trkpt lat="45.49569" lon="6.62301">
        <ele>2240.01</ele>
        <time>2015-03-15T09:47:18Z</time>
      </trkpt>
      <trkpt lat="45.49569" lon="6.62302">
        <ele>2240.49</ele>
        <time>2015-03-15T09:47:29Z</time>
      </trkpt>
      <trkpt lat="45.49569" lon="6.62302">
        <ele>2239.53</ele>
        <time>2015-03-15T09:47:34Z</time>
      </trkpt>
      <trkpt lat="45.49572" lon="6.62305">
        <ele>2240.49</ele>
        <time>2015-03-15T09:47:56Z</time>
      </trkpt>
      <trkpt lat="45.49572" lon="6.62305">
        <ele>2239.05</ele>
        <time>2015-03-15T09:48:26Z</time>
      </trkpt>
      <trkpt lat="45.49572" lon="6.62306">
        <ele>2241.45</ele>
        <time>2015-03-15T09:48:28Z</time>
      </trkpt>
      <trkpt lat="45.49573" lon="6.62316">
        <ele>2240.01</ele>
        <time>2015-03-15T09:48:40Z</time>
      </trkpt>
      <trkpt lat="45.49574" lon="6.62318">
        <ele>2240.97</ele>
        <time>2015-03-15T09:48:42Z</time>
      </trkpt>
      <trkpt lat="45.49569" lon="6.62336">
        <ele>2240.49</ele>
        <time>2015-03-15T09:48:54Z</time>
      </trkpt>
      <trkpt lat="45.49565" lon="6.62351">
        <ele>2240.97</ele>
        <time>2015-03-15T09:49:08Z</time>
      </trkpt>
      <trkpt lat="45.49564" lon="6.62373">
        <ele>2242.41</ele>
        <time>2015-03-15T09:49:25Z</time>
      </trkpt>
      <trkpt lat="45.49561" lon="6.62389">
        <ele>2244.82</ele>
        <time>2015-03-15T09:49:39Z</time>
      </trkpt>
      <trkpt lat="45.49561" lon="6.6239">
        <ele>2244.82</ele>
        <time>2015-03-15T09:49:40Z</time>
      </trkpt>
      <trkpt lat="45.49558" lon="6.62411">
        <ele>2244.82</ele>
        <time>2015-03-15T09:49:54Z</time>
      </trkpt>
      <trkpt lat="45.49555" lon="6.62426">
        <ele>2246.74</ele>
        <time>2015-03-15T09:50:09Z</time>
      </trkpt>
      <trkpt lat="45.49554" lon="6.62439">
        <ele>2248.18</ele>
        <time>2015-03-15T09:50:22Z</time>
      </trkpt>
      <trkpt lat="45.49544" lon="6.62453">
        <ele>2250.58</ele>
        <time>2015-03-15T09:50:39Z</time>
      </trkpt>
      <trkpt lat="45.49538" lon="6.62463">
        <ele>2252.51</ele>
        <time>2015-03-15T09:50:53Z</time>
      </trkpt>
      <trkpt lat="45.49535" lon="6.6247">
        <ele>2254.43</ele>
        <time>2015-03-15T09:51:06Z</time>
      </trkpt>
      <trkpt lat="45.49532" lon="6.62479">
        <ele>2256.83</ele>
        <time>2015-03-15T09:51:21Z</time>
      </trkpt>
      <trkpt lat="45.49525" lon="6.62492">
        <ele>2257.79</ele>
        <time>2015-03-15T09:51:36Z</time>
      </trkpt>
      <trkpt lat="45.49524" lon="6.62495">
        <ele>2258.27</ele>
        <time>2015-03-15T09:51:39Z</time>
      </trkpt>
      <trkpt lat="45.49525" lon="6.62499">
        <ele>2257.31</ele>
        <time>2015-03-15T09:51:41Z</time>
      </trkpt>
      <trkpt lat="45.49525" lon="6.62518">
        <ele>2256.83</ele>
        <time>2015-03-15T09:51:53Z</time>
      </trkpt>
      <trkpt lat="45.49522" lon="6.62525">
        <ele>2258.27</ele>
        <time>2015-03-15T09:52:01Z</time>
      </trkpt>
      <trkpt lat="45.49521" lon="6.62528">
        <ele>2258.75</ele>
        <time>2015-03-15T09:52:05Z</time>
      </trkpt>
      <trkpt lat="45.49518" lon="6.62538">
        <ele>2259.72</ele>
        <time>2015-03-15T09:52:14Z</time>
      </trkpt>
      <trkpt lat="45.49515" lon="6.6255">
        <ele>2260.68</ele>
        <time>2015-03-15T09:52:26Z</time>
      </trkpt>
      <trkpt lat="45.49511" lon="6.62564">
        <ele>2263.08</ele>
        <time>2015-03-15T09:52:42Z</time>
      </trkpt>
      <trkpt lat="45.49507" lon="6.62577">
        <ele>2265.48</ele>
        <time>2015-03-15T09:52:57Z</time>
      </trkpt>
      <trkpt lat="45.49505" lon="6.62588">
        <ele>2267.41</ele>
        <time>2015-03-15T09:53:11Z</time>
      </trkpt>
      <trkpt lat="45.49502" lon="6.626">
        <ele>2268.85</ele>
        <time>2015-03-15T09:53:27Z</time>
      </trkpt>
      <trkpt lat="45.495" lon="6.62611">
        <ele>2269.33</ele>
        <time>2015-03-15T09:53:39Z</time>
      </trkpt>
      <trkpt lat="45.49499" lon="6.62624">
        <ele>2270.77</ele>
        <time>2015-03-15T09:53:53Z</time>
      </trkpt>
      <trkpt lat="45.49498" lon="6.62637">
        <ele>2272.21</ele>
        <time>2015-03-15T09:54:08Z</time>
      </trkpt>
      <trkpt lat="45.49497" lon="6.6265">
        <ele>2275.1</ele>
        <time>2015-03-15T09:54:25Z</time>
      </trkpt>
      <trkpt lat="45.49497" lon="6.62662">
        <ele>2277.5</ele>
        <time>2015-03-15T09:54:42Z</time>
      </trkpt>
      <trkpt lat="45.49499" lon="6.62672">
        <ele>2278.46</ele>
        <time>2015-03-15T09:54:54Z</time>
      </trkpt>
      <trkpt lat="45.495" lon="6.62682">
        <ele>2280.38</ele>
        <time>2015-03-15T09:55:08Z</time>
      </trkpt>
      <trkpt lat="45.49503" lon="6.62692">
        <ele>2282.79</ele>
        <time>2015-03-15T09:55:22Z</time>
      </trkpt>
      <trkpt lat="45.49505" lon="6.627">
        <ele>2285.19</ele>
        <time>2015-03-15T09:55:44Z</time>
      </trkpt>
      <trkpt lat="45.49504" lon="6.62706">
        <ele>2286.63</ele>
        <time>2015-03-15T09:55:59Z</time>
      </trkpt>
      <trkpt lat="45.49508" lon="6.62711">
        <ele>2287.59</ele>
        <time>2015-03-15T09:56:16Z</time>
      </trkpt>
      <trkpt lat="45.4951" lon="6.62723">
        <ele>2290</ele>
        <time>2015-03-15T09:56:31Z</time>
      </trkpt>
      <trkpt lat="45.4951" lon="6.62728">
        <ele>2290.96</ele>
        <time>2015-03-15T09:56:47Z</time>
      </trkpt>
      <trkpt lat="45.49511" lon="6.62738">
        <ele>2293.84</ele>
        <time>2015-03-15T09:57:01Z</time>
      </trkpt>
      <trkpt lat="45.4951" lon="6.62751">
        <ele>2295.77</ele>
        <time>2015-03-15T09:57:16Z</time>
      </trkpt>
      <trkpt lat="45.49511" lon="6.62761">
        <ele>2297.69</ele>
        <time>2015-03-15T09:57:32Z</time>
      </trkpt>
      <trkpt lat="45.49514" lon="6.62773">
        <ele>2300.57</ele>
        <time>2015-03-15T09:57:47Z</time>
      </trkpt>
      <trkpt lat="45.49511" lon="6.62781">
        <ele>2302.49</ele>
        <time>2015-03-15T09:58:02Z</time>
      </trkpt>
      <trkpt lat="45.49508" lon="6.62783">
        <ele>2304.9</ele>
        <time>2015-03-15T09:58:16Z</time>
      </trkpt>
      <trkpt lat="45.49508" lon="6.62793">
        <ele>2307.3</ele>
        <time>2015-03-15T09:58:31Z</time>
      </trkpt>
      <trkpt lat="45.49512" lon="6.62804">
        <ele>2309.7</ele>
        <time>2015-03-15T09:58:45Z</time>
      </trkpt>
      <trkpt lat="45.49515" lon="6.62816">
        <ele>2310.67</ele>
        <time>2015-03-15T09:59:00Z</time>
      </trkpt>
      <trkpt lat="45.49521" lon="6.6283">
        <ele>2314.03</ele>
        <time>2015-03-15T09:59:19Z</time>
      </trkpt>
      <trkpt lat="45.4953" lon="6.62839">
        <ele>2315.95</ele>
        <time>2015-03-15T09:59:37Z</time>
      </trkpt>
      <trkpt lat="45.49535" lon="6.62848">
        <ele>2317.4</ele>
        <time>2015-03-15T09:59:52Z</time>
      </trkpt>
      <trkpt lat="45.49538" lon="6.62857">
        <ele>2319.32</ele>
        <time>2015-03-15T10:00:07Z</time>
      </trkpt>
      <trkpt lat="45.49543" lon="6.62871">
        <ele>2321.24</ele>
        <time>2015-03-15T10:00:25Z</time>
      </trkpt>
      <trkpt lat="45.49546" lon="6.62883">
        <ele>2323.16</ele>
        <time>2015-03-15T10:00:39Z</time>
      </trkpt>
      <trkpt lat="45.49547" lon="6.6289">
        <ele>2324.12</ele>
        <time>2015-03-15T10:00:57Z</time>
      </trkpt>
      <trkpt lat="45.49545" lon="6.62896">
        <ele>2325.09</ele>
        <time>2015-03-15T10:01:16Z</time>
      </trkpt>
      <trkpt lat="45.49545" lon="6.62902">
        <ele>2326.05</ele>
        <time>2015-03-15T10:01:34Z</time>
      </trkpt>
      <trkpt lat="45.49548" lon="6.62904">
        <ele>2327.97</ele>
        <time>2015-03-15T10:01:46Z</time>
      </trkpt>
      <trkpt lat="45.49553" lon="6.62916">
        <ele>2330.37</ele>
        <time>2015-03-15T10:02:01Z</time>
      </trkpt>
      <trkpt lat="45.49558" lon="6.62925">
        <ele>2333.26</ele>
        <time>2015-03-15T10:02:16Z</time>
      </trkpt>
      <trkpt lat="45.49564" lon="6.62929">
        <ele>2335.18</ele>
        <time>2015-03-15T10:02:32Z</time>
      </trkpt>
      <trkpt lat="45.4957" lon="6.62935">
        <ele>2336.14</ele>
        <time>2015-03-15T10:02:44Z</time>
      </trkpt>
      <trkpt lat="45.49576" lon="6.62943">
        <ele>2338.54</ele>
        <time>2015-03-15T10:02:58Z</time>
      </trkpt>
      <trkpt lat="45.49583" lon="6.62952">
        <ele>2341.43</ele>
        <time>2015-03-15T10:03:17Z</time>
      </trkpt>
      <trkpt lat="45.49587" lon="6.62962">
        <ele>2344.79</ele>
        <time>2015-03-15T10:03:32Z</time>
      </trkpt>
      <trkpt lat="45.49595" lon="6.62973">
        <ele>2346.72</ele>
        <time>2015-03-15T10:03:47Z</time>
      </trkpt>
      <trkpt lat="45.496" lon="6.62974">
        <ele>2349.12</ele>
        <time>2015-03-15T10:04:05Z</time>
      </trkpt>
      <trkpt lat="45.49598" lon="6.62974">
        <ele>2350.08</ele>
        <time>2015-03-15T10:04:44Z</time>
      </trkpt>
      <trkpt lat="45.496" lon="6.62974">
        <ele>2351.52</ele>
        <time>2015-03-15T10:04:55Z</time>
      </trkpt>
      <trkpt lat="45.49602" lon="6.62975">
        <ele>2350.08</ele>
        <time>2015-03-15T10:05:01Z</time>
      </trkpt>
      <trkpt lat="45.49603" lon="6.62977">
        <ele>2351.52</ele>
        <time>2015-03-15T10:05:08Z</time>
      </trkpt>
      <trkpt lat="45.4961" lon="6.62984">
        <ele>2352.48</ele>
        <time>2015-03-15T10:05:25Z</time>
      </trkpt>
      <trkpt lat="45.49613" lon="6.62992">
        <ele>2353.93</ele>
        <time>2015-03-15T10:05:37Z</time>
      </trkpt>
      <trkpt lat="45.49619" lon="6.62997">
        <ele>2355.85</ele>
        <time>2015-03-15T10:05:50Z</time>
      </trkpt>
      <trkpt lat="45.49621" lon="6.63006">
        <ele>2356.33</ele>
        <time>2015-03-15T10:06:05Z</time>
      </trkpt>
      <trkpt lat="45.49621" lon="6.63011">
        <ele>2357.77</ele>
        <time>2015-03-15T10:06:13Z</time>
      </trkpt>
      <trkpt lat="45.49623" lon="6.63022">
        <ele>2359.69</ele>
        <time>2015-03-15T10:06:29Z</time>
      </trkpt>
      <trkpt lat="45.49621" lon="6.63032">
        <ele>2362.1</ele>
        <time>2015-03-15T10:06:45Z</time>
      </trkpt>
      <trkpt lat="45.49619" lon="6.63036">
        <ele>2363.54</ele>
        <time>2015-03-15T10:07:00Z</time>
      </trkpt>
      <trkpt lat="45.49619" lon="6.63049">
        <ele>2365.46</ele>
        <time>2015-03-15T10:07:15Z</time>
      </trkpt>
      <trkpt lat="45.4962" lon="6.63065">
        <ele>2366.42</ele>
        <time>2015-03-15T10:07:30Z</time>
      </trkpt>
      <trkpt lat="45.49622" lon="6.63079">
        <ele>2367.86</ele>
        <time>2015-03-15T10:07:47Z</time>
      </trkpt>
      <trkpt lat="45.4962" lon="6.63094">
        <ele>2368.35</ele>
        <time>2015-03-15T10:08:02Z</time>
      </trkpt>
      <trkpt lat="45.49615" lon="6.63109">
        <ele>2370.75</ele>
        <time>2015-03-15T10:08:16Z</time>
      </trkpt>
      <trkpt lat="45.4961" lon="6.63123">
        <ele>2368.83</ele>
        <time>2015-03-15T10:08:31Z</time>
      </trkpt>
      <trkpt lat="45.49607" lon="6.63139">
        <ele>2368.83</ele>
        <time>2015-03-15T10:08:44Z</time>
      </trkpt>
      <trkpt lat="45.49603" lon="6.63161">
        <ele>2365.94</ele>
        <time>2015-03-15T10:08:55Z</time>
      </trkpt>
      <trkpt lat="45.49602" lon="6.63163">
        <ele>2365.94</ele>
        <time>2015-03-15T10:08:56Z</time>
      </trkpt>
      <trkpt lat="45.49592" lon="6.63177">
        <ele>2363.54</ele>
        <time>2015-03-15T10:09:06Z</time>
      </trkpt>
      <trkpt lat="45.49588" lon="6.63185">
        <ele>2364.98</ele>
        <time>2015-03-15T10:09:19Z</time>
      </trkpt>
      <trkpt lat="45.49586" lon="6.63194">
        <ele>2365.94</ele>
        <time>2015-03-15T10:09:34Z</time>
      </trkpt>
      <trkpt lat="45.49586" lon="6.63198">
        <ele>2365.94</ele>
        <time>2015-03-15T10:09:52Z</time>
      </trkpt>
      <trkpt lat="45.49587" lon="6.63203">
        <ele>2366.42</ele>
        <time>2015-03-15T10:10:08Z</time>
      </trkpt>
      <trkpt lat="45.49574" lon="6.63212">
        <ele>2366.42</ele>
        <time>2015-03-15T10:10:20Z</time>
      </trkpt>
      <trkpt lat="45.49568" lon="6.6322">
        <ele>2366.42</ele>
        <time>2015-03-15T10:10:33Z</time>
      </trkpt>
      <trkpt lat="45.4956" lon="6.63231">
        <ele>2366.42</ele>
        <time>2015-03-15T10:10:46Z</time>
      </trkpt>
      <trkpt lat="45.49557" lon="6.63235">
        <ele>2366.9</ele>
        <time>2015-03-15T10:10:51Z</time>
      </trkpt>
      <trkpt lat="45.49553" lon="6.63238">
        <ele>2367.38</ele>
        <time>2015-03-15T10:10:59Z</time>
      </trkpt>
      <trkpt lat="45.49545" lon="6.63246">
        <ele>2367.86</ele>
        <time>2015-03-15T10:11:12Z</time>
      </trkpt>
      <trkpt lat="45.49542" lon="6.63249">
        <ele>2367.86</ele>
        <time>2015-03-15T10:11:16Z</time>
      </trkpt>
      <trkpt lat="45.49534" lon="6.63258">
        <ele>2369.31</ele>
        <time>2015-03-15T10:11:28Z</time>
      </trkpt>
      <trkpt lat="45.49527" lon="6.63264">
        <ele>2369.31</ele>
        <time>2015-03-15T10:11:40Z</time>
      </trkpt>
      <trkpt lat="45.49519" lon="6.63271">
        <ele>2371.71</ele>
        <time>2015-03-15T10:11:54Z</time>
      </trkpt>
      <trkpt lat="45.49513" lon="6.63276">
        <ele>2373.15</ele>
        <time>2015-03-15T10:12:08Z</time>
      </trkpt>
      <trkpt lat="45.4951" lon="6.6328">
        <ele>2373.63</ele>
        <time>2015-03-15T10:12:17Z</time>
      </trkpt>
      <trkpt lat="45.49503" lon="6.63285">
        <ele>2376.04</ele>
        <time>2015-03-15T10:12:29Z</time>
      </trkpt>
      <trkpt lat="45.49496" lon="6.63289">
        <ele>2377.48</ele>
        <time>2015-03-15T10:12:42Z</time>
      </trkpt>
      <trkpt lat="45.49489" lon="6.63298">
        <ele>2379.88</ele>
        <time>2015-03-15T10:12:58Z</time>
      </trkpt>
      <trkpt lat="45.49482" lon="6.63305">
        <ele>2380.84</ele>
        <time>2015-03-15T10:13:13Z</time>
      </trkpt>
      <trkpt lat="45.49475" lon="6.63315">
        <ele>2383.25</ele>
        <time>2015-03-15T10:13:30Z</time>
      </trkpt>
      <trkpt lat="45.4947" lon="6.63325">
        <ele>2384.69</ele>
        <time>2015-03-15T10:13:46Z</time>
      </trkpt>
      <trkpt lat="45.49469" lon="6.63335">
        <ele>2387.57</ele>
        <time>2015-03-15T10:14:02Z</time>
      </trkpt>
      <trkpt lat="45.49471" lon="6.63336">
        <ele>2389.49</ele>
        <time>2015-03-15T10:14:06Z</time>
      </trkpt>
      <trkpt lat="45.49476" lon="6.63339">
        <ele>2390.94</ele>
        <time>2015-03-15T10:14:24Z</time>
      </trkpt>
      <trkpt lat="45.49483" lon="6.63341">
        <ele>2391.9</ele>
        <time>2015-03-15T10:14:39Z</time>
      </trkpt>
      <trkpt lat="45.49492" lon="6.63345">
        <ele>2395.26</ele>
        <time>2015-03-15T10:14:57Z</time>
      </trkpt>
      <trkpt lat="45.49501" lon="6.63348">
        <ele>2396.22</ele>
        <time>2015-03-15T10:15:12Z</time>
      </trkpt>
      <trkpt lat="45.49502" lon="6.63354">
        <ele>2397.67</ele>
        <time>2015-03-15T10:15:26Z</time>
      </trkpt>
      <trkpt lat="45.49506" lon="6.63362">
        <ele>2399.59</ele>
        <time>2015-03-15T10:15:42Z</time>
      </trkpt>
      <trkpt lat="45.49514" lon="6.63365">
        <ele>2402.95</ele>
        <time>2015-03-15T10:15:58Z</time>
      </trkpt>
      <trkpt lat="45.49518" lon="6.63365">
        <ele>2404.39</ele>
        <time>2015-03-15T10:16:11Z</time>
      </trkpt>
      <trkpt lat="45.49528" lon="6.63367">
        <ele>2407.28</ele>
        <time>2015-03-15T10:16:26Z</time>
      </trkpt>
      <trkpt lat="45.49534" lon="6.63367">
        <ele>2410.64</ele>
        <time>2015-03-15T10:16:37Z</time>
      </trkpt>
      <trkpt lat="45.49542" lon="6.63369">
        <ele>2414.01</ele>
        <time>2015-03-15T10:16:52Z</time>
      </trkpt>
      <trkpt lat="45.49536" lon="6.63371">
        <ele>2413.53</ele>
        <time>2015-03-15T10:17:01Z</time>
      </trkpt>
      <trkpt lat="45.49544" lon="6.63373">
        <ele>2412.57</ele>
        <time>2015-03-15T10:17:16Z</time>
      </trkpt>
      <trkpt lat="45.49549" lon="6.63374">
        <ele>2414.01</ele>
        <time>2015-03-15T10:17:23Z</time>
      </trkpt>
      <trkpt lat="45.4955" lon="6.63375">
        <ele>2414.49</ele>
        <time>2015-03-15T10:17:36Z</time>
      </trkpt>
      <trkpt lat="45.49553" lon="6.63376">
        <ele>2414.97</ele>
        <time>2015-03-15T10:18:07Z</time>
      </trkpt>
      <trkpt lat="45.49554" lon="6.63376">
        <ele>2414.97</ele>
        <time>2015-03-15T10:18:43Z</time>
      </trkpt>
      <trkpt lat="45.4956" lon="6.63381">
        <ele>2417.37</ele>
        <time>2015-03-15T10:19:01Z</time>
      </trkpt>
      <trkpt lat="45.49562" lon="6.63382">
        <ele>2419.78</ele>
        <time>2015-03-15T10:19:08Z</time>
      </trkpt>
      <trkpt lat="45.49563" lon="6.63382">
        <ele>2418.81</ele>
        <time>2015-03-15T10:19:28Z</time>
      </trkpt>
      <trkpt lat="45.49565" lon="6.63382">
        <ele>2420.26</ele>
        <time>2015-03-15T10:19:30Z</time>
      </trkpt>
      <trkpt lat="45.49576" lon="6.63384">
        <ele>2422.66</ele>
        <time>2015-03-15T10:19:46Z</time>
      </trkpt>
      <trkpt lat="45.49578" lon="6.63382">
        <ele>2421.22</ele>
        <time>2015-03-15T10:19:56Z</time>
      </trkpt>
      <trkpt lat="45.4958" lon="6.63385">
        <ele>2421.22</ele>
        <time>2015-03-15T10:19:59Z</time>
      </trkpt>
      <trkpt lat="45.49586" lon="6.63396">
        <ele>2421.22</ele>
        <time>2015-03-15T10:20:11Z</time>
      </trkpt>
      <trkpt lat="45.49587" lon="6.63399">
        <ele>2422.66</ele>
        <time>2015-03-15T10:20:14Z</time>
      </trkpt>
      <trkpt lat="45.49588" lon="6.63414">
        <ele>2425.06</ele>
        <time>2015-03-15T10:20:31Z</time>
      </trkpt>
      <trkpt lat="45.49586" lon="6.63423">
        <ele>2427.95</ele>
        <time>2015-03-15T10:20:42Z</time>
      </trkpt>
      <trkpt lat="45.49586" lon="6.6343">
        <ele>2430.35</ele>
        <time>2015-03-15T10:20:50Z</time>
      </trkpt>
      <trkpt lat="45.49586" lon="6.63443">
        <ele>2431.31</ele>
        <time>2015-03-15T10:21:07Z</time>
      </trkpt>
      <trkpt lat="45.49586" lon="6.63447">
        <ele>2432.75</ele>
        <time>2015-03-15T10:21:11Z</time>
      </trkpt>
      <trkpt lat="45.4959" lon="6.6346">
        <ele>2436.12</ele>
        <time>2015-03-15T10:21:28Z</time>
      </trkpt>
      <trkpt lat="45.49596" lon="6.63469">
        <ele>2438.52</ele>
        <time>2015-03-15T10:21:46Z</time>
      </trkpt>
      <trkpt lat="45.49597" lon="6.63475">
        <ele>2440.92</ele>
        <time>2015-03-15T10:22:00Z</time>
      </trkpt>
      <trkpt lat="45.49588" lon="6.63485">
        <ele>2443.33</ele>
        <time>2015-03-15T10:22:17Z</time>
      </trkpt>
      <trkpt lat="45.49579" lon="6.63497">
        <ele>2446.21</ele>
        <time>2015-03-15T10:22:36Z</time>
      </trkpt>
      <trkpt lat="45.49572" lon="6.63505">
        <ele>2447.17</ele>
        <time>2015-03-15T10:22:52Z</time>
      </trkpt>
      <trkpt lat="45.4957" lon="6.6351">
        <ele>2450.06</ele>
        <time>2015-03-15T10:23:07Z</time>
      </trkpt>
      <trkpt lat="45.49574" lon="6.63515">
        <ele>2451.5</ele>
        <time>2015-03-15T10:23:15Z</time>
      </trkpt>
      <trkpt lat="45.49579" lon="6.6352">
        <ele>2454.38</ele>
        <time>2015-03-15T10:23:30Z</time>
      </trkpt>
      <trkpt lat="45.49587" lon="6.63525">
        <ele>2457.75</ele>
        <time>2015-03-15T10:23:45Z</time>
      </trkpt>
      <trkpt lat="45.49593" lon="6.63531">
        <ele>2461.11</ele>
        <time>2015-03-15T10:23:59Z</time>
      </trkpt>
      <trkpt lat="45.49592" lon="6.63532">
        <ele>2462.07</ele>
        <time>2015-03-15T10:24:05Z</time>
      </trkpt>
      <trkpt lat="45.49593" lon="6.63532">
        <ele>2460.63</ele>
        <time>2015-03-15T10:24:09Z</time>
      </trkpt>
      <trkpt lat="45.49594" lon="6.63533">
        <ele>2462.07</ele>
        <time>2015-03-15T10:24:14Z</time>
      </trkpt>
      <trkpt lat="45.49593" lon="6.63533">
        <ele>2465.92</ele>
        <time>2015-03-15T10:24:20Z</time>
      </trkpt>
      <trkpt lat="45.4959" lon="6.63533">
        <ele>2462.07</ele>
        <time>2015-03-15T10:24:25Z</time>
      </trkpt>
      <trkpt lat="45.49589" lon="6.63533">
        <ele>2462.07</ele>
        <time>2015-03-15T10:24:26Z</time>
      </trkpt>
      <trkpt lat="45.49586" lon="6.63533">
        <ele>2460.63</ele>
        <time>2015-03-15T10:24:29Z</time>
      </trkpt>
      <trkpt lat="45.49576" lon="6.63535">
        <ele>2459.67</ele>
        <time>2015-03-15T10:24:45Z</time>
      </trkpt>
      <trkpt lat="45.49576" lon="6.63535">
        <ele>2461.11</ele>
        <time>2015-03-15T10:24:51Z</time>
      </trkpt>
      <trkpt lat="45.49574" lon="6.63536">
        <ele>2461.11</ele>
        <time>2015-03-15T10:25:06Z</time>
      </trkpt>
      <trkpt lat="45.49574" lon="6.63538">
        <ele>2459.67</ele>
        <time>2015-03-15T10:25:13Z</time>
      </trkpt>
      <trkpt lat="45.49575" lon="6.63537">
        <ele>2459.67</ele>
        <time>2015-03-15T10:25:34Z</time>
      </trkpt>
      <trkpt lat="45.49574" lon="6.63538">
        <ele>2459.19</ele>
        <time>2015-03-15T10:25:58Z</time>
      </trkpt>
      <trkpt lat="45.49574" lon="6.63537">
        <ele>2460.15</ele>
        <time>2015-03-15T10:26:03Z</time>
      </trkpt>
      <trkpt lat="45.49574" lon="6.63537">
        <ele>2459.19</ele>
        <time>2015-03-15T10:26:29Z</time>
      </trkpt>
      <trkpt lat="45.49574" lon="6.63537">
        <ele>2459.19</ele>
        <time>2015-03-15T10:26:30Z</time>
      </trkpt>
      <trkpt lat="45.49574" lon="6.63537">
        <ele>2459.19</ele>
        <time>2015-03-15T10:26:55Z</time>
      </trkpt>
      <trkpt lat="45.49574" lon="6.63537">
        <ele>2461.11</ele>
        <time>2015-03-15T10:26:57Z</time>
      </trkpt>
      <trkpt lat="45.49574" lon="6.63538">
        <ele>2459.67</ele>
        <time>2015-03-15T10:27:07Z</time>
      </trkpt>
      <trkpt lat="45.49575" lon="6.63537">
        <ele>2460.15</ele>
        <time>2015-03-15T10:27:22Z</time>
      </trkpt>
      <trkpt lat="45.49572" lon="6.63539">
        <ele>2459.19</ele>
        <time>2015-03-15T10:27:42Z</time>
      </trkpt>
      <trkpt lat="45.49572" lon="6.63538">
        <ele>2460.15</ele>
        <time>2015-03-15T10:28:07Z</time>
      </trkpt>
      <trkpt lat="45.49572" lon="6.63537">
        <ele>2460.15</ele>
        <time>2015-03-15T10:28:08Z</time>
      </trkpt>
      <trkpt lat="45.49573" lon="6.63536">
        <ele>2462.07</ele>
        <time>2015-03-15T10:28:32Z</time>
      </trkpt>
      <trkpt lat="45.49574" lon="6.63536">
        <ele>2461.11</ele>
        <time>2015-03-15T10:28:46Z</time>
      </trkpt>
      <trkpt lat="45.49574" lon="6.63536">
        <ele>2460.15</ele>
        <time>2015-03-15T10:29:14Z</time>
      </trkpt>
      <trkpt lat="45.49575" lon="6.63535">
        <ele>2459.19</ele>
        <time>2015-03-15T10:29:38Z</time>
      </trkpt>
      <trkpt lat="45.49575" lon="6.63535">
        <ele>2458.71</ele>
        <time>2015-03-15T10:30:04Z</time>
      </trkpt>
      <trkpt lat="45.49565" lon="6.6354">
        <ele>2458.71</ele>
        <time>2015-03-15T10:30:20Z</time>
      </trkpt>
      <trkpt lat="45.49567" lon="6.6354">
        <ele>2460.63</ele>
        <time>2015-03-15T10:30:49Z</time>
      </trkpt>
      <trkpt lat="45.49566" lon="6.6354">
        <ele>2461.59</ele>
        <time>2015-03-15T10:30:57Z</time>
      </trkpt>
      <trkpt lat="45.49566" lon="6.63542">
        <ele>2460.63</ele>
        <time>2015-03-15T10:31:02Z</time>
      </trkpt>
      <trkpt lat="45.49566" lon="6.6354">
        <ele>2460.63</ele>
        <time>2015-03-15T10:31:39Z</time>
      </trkpt>
      <trkpt lat="45.49566" lon="6.6354">
        <ele>2460.15</ele>
        <time>2015-03-15T10:32:10Z</time>
      </trkpt>
      <trkpt lat="45.49566" lon="6.63541">
        <ele>2459.67</ele>
        <time>2015-03-15T10:32:46Z</time>
      </trkpt>
      <trkpt lat="45.49562" lon="6.63542">
        <ele>2461.11</ele>
        <time>2015-03-15T10:33:17Z</time>
      </trkpt>
      <trkpt lat="45.49553" lon="6.63549">
        <ele>2464</ele>
        <time>2015-03-15T10:33:33Z</time>
      </trkpt>
      <trkpt lat="45.49551" lon="6.63552">
        <ele>2464.96</ele>
        <time>2015-03-15T10:33:38Z</time>
      </trkpt>
      <trkpt lat="45.4955" lon="6.63554">
        <ele>2465.92</ele>
        <time>2015-03-15T10:33:53Z</time>
      </trkpt>
      <trkpt lat="45.49556" lon="6.63559">
        <ele>2469.28</ele>
        <time>2015-03-15T10:34:04Z</time>
      </trkpt>
      <trkpt lat="45.49555" lon="6.63565">
        <ele>2471.21</ele>
        <time>2015-03-15T10:34:20Z</time>
      </trkpt>
      <trkpt lat="45.49548" lon="6.63571">
        <ele>2474.09</ele>
        <time>2015-03-15T10:34:36Z</time>
      </trkpt>
      <trkpt lat="45.49543" lon="6.63577">
        <ele>2476.01</ele>
        <time>2015-03-15T10:34:52Z</time>
      </trkpt>
      <trkpt lat="45.49536" lon="6.63586">
        <ele>2479.38</ele>
        <time>2015-03-15T10:35:08Z</time>
      </trkpt>
      <trkpt lat="45.49526" lon="6.63598">
        <ele>2481.78</ele>
        <time>2015-03-15T10:35:27Z</time>
      </trkpt>
      <trkpt lat="45.4953" lon="6.636">
        <ele>2483.22</ele>
        <time>2015-03-15T10:35:41Z</time>
      </trkpt>
      <trkpt lat="45.49532" lon="6.63602">
        <ele>2484.66</ele>
        <time>2015-03-15T10:35:44Z</time>
      </trkpt>
      <trkpt lat="45.49536" lon="6.63604">
        <ele>2486.11</ele>
        <time>2015-03-15T10:36:03Z</time>
      </trkpt>
      <trkpt lat="45.4954" lon="6.63608">
        <ele>2486.59</ele>
        <time>2015-03-15T10:36:38Z</time>
      </trkpt>
      <trkpt lat="45.49534" lon="6.63615">
        <ele>2488.51</ele>
        <time>2015-03-15T10:36:53Z</time>
      </trkpt>
      <trkpt lat="45.49533" lon="6.63617">
        <ele>2489.47</ele>
        <time>2015-03-15T10:37:16Z</time>
      </trkpt>
      <trkpt lat="45.4953" lon="6.63622">
        <ele>2490.43</ele>
        <time>2015-03-15T10:37:43Z</time>
      </trkpt>
      <trkpt lat="45.4953" lon="6.63623">
        <ele>2490.91</ele>
        <time>2015-03-15T10:37:45Z</time>
      </trkpt>
      <trkpt lat="45.49526" lon="6.63636">
        <ele>2493.8</ele>
        <time>2015-03-15T10:38:04Z</time>
      </trkpt>
      <trkpt lat="45.49525" lon="6.63645">
        <ele>2495.72</ele>
        <time>2015-03-15T10:38:16Z</time>
      </trkpt>
      <trkpt lat="45.49524" lon="6.63657">
        <ele>2499.08</ele>
        <time>2015-03-15T10:38:29Z</time>
      </trkpt>
      <trkpt lat="45.49523" lon="6.63669">
        <ele>2502.45</ele>
        <time>2015-03-15T10:38:46Z</time>
      </trkpt>
      <trkpt lat="45.49523" lon="6.6367">
        <ele>2502.45</ele>
        <time>2015-03-15T10:38:47Z</time>
      </trkpt>
      <trkpt lat="45.4952" lon="6.6368">
        <ele>2504.37</ele>
        <time>2015-03-15T10:39:05Z</time>
      </trkpt>
      <trkpt lat="45.49521" lon="6.63681">
        <ele>2501.97</ele>
        <time>2015-03-15T10:39:12Z</time>
      </trkpt>
      <trkpt lat="45.49522" lon="6.6368">
        <ele>2503.41</ele>
        <time>2015-03-15T10:39:16Z</time>
      </trkpt>
      <trkpt lat="45.49523" lon="6.63679">
        <ele>2502.45</ele>
        <time>2015-03-15T10:39:19Z</time>
      </trkpt>
      <trkpt lat="45.49521" lon="6.63679">
        <ele>2501.97</ele>
        <time>2015-03-15T10:39:32Z</time>
      </trkpt>
      <trkpt lat="45.49523" lon="6.6368">
        <ele>2500.05</ele>
        <time>2015-03-15T10:39:46Z</time>
      </trkpt>
      <trkpt lat="45.49523" lon="6.6368">
        <ele>2504.37</ele>
        <time>2015-03-15T10:39:49Z</time>
      </trkpt>
      <trkpt lat="45.49522" lon="6.63681">
        <ele>2505.81</ele>
        <time>2015-03-15T10:39:50Z</time>
      </trkpt>
      <trkpt lat="45.49518" lon="6.63691">
        <ele>2505.33</ele>
        <time>2015-03-15T10:40:00Z</time>
      </trkpt>
      <trkpt lat="45.49518" lon="6.63702">
        <ele>2507.26</ele>
        <time>2015-03-15T10:40:10Z</time>
      </trkpt>
      <trkpt lat="45.49515" lon="6.63707">
        <ele>2510.14</ele>
        <time>2015-03-15T10:40:18Z</time>
      </trkpt>
      <trkpt lat="45.49514" lon="6.63706">
        <ele>2513.02</ele>
        <time>2015-03-15T10:40:22Z</time>
      </trkpt>
      <trkpt lat="45.49515" lon="6.63706">
        <ele>2513.02</ele>
        <time>2015-03-15T10:40:23Z</time>
      </trkpt>
      <trkpt lat="45.49514" lon="6.63709">
        <ele>2510.14</ele>
        <time>2015-03-15T10:40:33Z</time>
      </trkpt>
      <trkpt lat="45.49513" lon="6.63715">
        <ele>2511.1</ele>
        <time>2015-03-15T10:40:39Z</time>
      </trkpt>
      <trkpt lat="45.49512" lon="6.63721">
        <ele>2513.02</ele>
        <time>2015-03-15T10:40:45Z</time>
      </trkpt>
      <trkpt lat="45.49511" lon="6.63724">
        <ele>2514.47</ele>
        <time>2015-03-15T10:40:48Z</time>
      </trkpt>
      <trkpt lat="45.4951" lon="6.63736">
        <ele>2517.83</ele>
        <time>2015-03-15T10:41:02Z</time>
      </trkpt>
      <trkpt lat="45.49508" lon="6.63747">
        <ele>2518.79</ele>
        <time>2015-03-15T10:41:15Z</time>
      </trkpt>
      <trkpt lat="45.49508" lon="6.63749">
        <ele>2516.87</ele>
        <time>2015-03-15T10:41:17Z</time>
      </trkpt>
      <trkpt lat="45.49508" lon="6.63754">
        <ele>2519.27</ele>
        <time>2015-03-15T10:41:22Z</time>
      </trkpt>
      <trkpt lat="45.49507" lon="6.63759">
        <ele>2522.16</ele>
        <time>2015-03-15T10:41:27Z</time>
      </trkpt>
      <trkpt lat="45.49507" lon="6.63764">
        <ele>2523.6</ele>
        <time>2015-03-15T10:41:37Z</time>
      </trkpt>
      <trkpt lat="45.49508" lon="6.63768">
        <ele>2519.75</ele>
        <time>2015-03-15T10:41:44Z</time>
      </trkpt>
      <trkpt lat="45.49508" lon="6.63769">
        <ele>2524.08</ele>
        <time>2015-03-15T10:41:45Z</time>
      </trkpt>
      <trkpt lat="45.49506" lon="6.63772">
        <ele>2525.04</ele>
        <time>2015-03-15T10:41:58Z</time>
      </trkpt>
      <trkpt lat="45.49505" lon="6.63774">
        <ele>2523.6</ele>
        <time>2015-03-15T10:42:01Z</time>
      </trkpt>
      <trkpt lat="45.49503" lon="6.63775">
        <ele>2525.04</ele>
        <time>2015-03-15T10:42:05Z</time>
      </trkpt>
      <trkpt lat="45.49497" lon="6.63784">
        <ele>2526.96</ele>
        <time>2015-03-15T10:42:21Z</time>
      </trkpt>
      <trkpt lat="45.49495" lon="6.63794">
        <ele>2530.33</ele>
        <time>2015-03-15T10:42:36Z</time>
      </trkpt>
      <trkpt lat="45.49496" lon="6.63798">
        <ele>2533.69</ele>
        <time>2015-03-15T10:42:52Z</time>
      </trkpt>
      <trkpt lat="45.49497" lon="6.63799">
        <ele>2532.73</ele>
        <time>2015-03-15T10:43:26Z</time>
      </trkpt>
      <trkpt lat="45.49499" lon="6.63799">
        <ele>2533.69</ele>
        <time>2015-03-15T10:43:36Z</time>
      </trkpt>
      <trkpt lat="45.49499" lon="6.63799">
        <ele>2533.69</ele>
        <time>2015-03-15T10:43:59Z</time>
      </trkpt>
      <trkpt lat="45.49499" lon="6.63799">
        <ele>2534.65</ele>
        <time>2015-03-15T10:44:02Z</time>
      </trkpt>
      <trkpt lat="45.49499" lon="6.63798">
        <ele>2533.21</ele>
        <time>2015-03-15T10:44:04Z</time>
      </trkpt>
      <trkpt lat="45.49502" lon="6.63801">
        <ele>2536.1</ele>
        <time>2015-03-15T10:44:12Z</time>
      </trkpt>
      <trkpt lat="45.495" lon="6.63802">
        <ele>2536.1</ele>
        <time>2015-03-15T10:44:31Z</time>
      </trkpt>
      <trkpt lat="45.49498" lon="6.63809">
        <ele>2535.61</ele>
        <time>2015-03-15T10:44:49Z</time>
      </trkpt>
      <trkpt lat="45.49497" lon="6.63817">
        <ele>2538.98</ele>
        <time>2015-03-15T10:44:59Z</time>
      </trkpt>
      <trkpt lat="45.49496" lon="6.63825">
        <ele>2542.82</ele>
        <time>2015-03-15T10:45:13Z</time>
      </trkpt>
      <trkpt lat="45.49492" lon="6.63833">
        <ele>2544.27</ele>
        <time>2015-03-15T10:45:27Z</time>
      </trkpt>
      <trkpt lat="45.49491" lon="6.63842">
        <ele>2546.67</ele>
        <time>2015-03-15T10:45:41Z</time>
      </trkpt>
      <trkpt lat="45.49491" lon="6.63843">
        <ele>2546.67</ele>
        <time>2015-03-15T10:45:42Z</time>
      </trkpt>
      <trkpt lat="45.49488" lon="6.63852">
        <ele>2550.03</ele>
        <time>2015-03-15T10:45:56Z</time>
      </trkpt>
      <trkpt lat="45.49484" lon="6.63869">
        <ele>2552.92</ele>
        <time>2015-03-15T10:46:18Z</time>
      </trkpt>
      <trkpt lat="45.49483" lon="6.63873">
        <ele>2556.76</ele>
        <time>2015-03-15T10:46:23Z</time>
      </trkpt>
      <trkpt lat="45.49483" lon="6.63876">
        <ele>2553.88</ele>
        <time>2015-03-15T10:46:27Z</time>
      </trkpt>
      <trkpt lat="45.4948" lon="6.63884">
        <ele>2554.36</ele>
        <time>2015-03-15T10:46:39Z</time>
      </trkpt>
      <trkpt lat="45.49477" lon="6.63898">
        <ele>2556.76</ele>
        <time>2015-03-15T10:46:57Z</time>
      </trkpt>
      <trkpt lat="45.49478" lon="6.63909">
        <ele>2559.17</ele>
        <time>2015-03-15T10:47:12Z</time>
      </trkpt>
      <trkpt lat="45.49478" lon="6.63919">
        <ele>2560.61</ele>
        <time>2015-03-15T10:47:31Z</time>
      </trkpt>
      <trkpt lat="45.49476" lon="6.63928">
        <ele>2561.09</ele>
        <time>2015-03-15T10:47:46Z</time>
      </trkpt>
      <trkpt lat="45.49476" lon="6.6393">
        <ele>2561.57</ele>
        <time>2015-03-15T10:48:02Z</time>
      </trkpt>
      <trkpt lat="45.49477" lon="6.63931">
        <ele>2560.13</ele>
        <time>2015-03-15T10:48:31Z</time>
      </trkpt>
      <trkpt lat="45.49481" lon="6.63938">
        <ele>2559.17</ele>
        <time>2015-03-15T10:48:43Z</time>
      </trkpt>
      <trkpt lat="45.49479" lon="6.63939">
        <ele>2559.17</ele>
        <time>2015-03-15T10:49:09Z</time>
      </trkpt>
      <trkpt lat="45.4948" lon="6.63939">
        <ele>2559.17</ele>
        <time>2015-03-15T10:49:34Z</time>
      </trkpt>
      <trkpt lat="45.4948" lon="6.63937">
        <ele>2560.61</ele>
        <time>2015-03-15T10:50:01Z</time>
      </trkpt>
      <trkpt lat="45.49478" lon="6.63934">
        <ele>2561.57</ele>
        <time>2015-03-15T10:50:27Z</time>
      </trkpt>
      <trkpt lat="45.49474" lon="6.63927">
        <ele>2562.53</ele>
        <time>2015-03-15T10:50:40Z</time>
      </trkpt>
      <trkpt lat="45.49474" lon="6.63924">
        <ele>2564.45</ele>
        <time>2015-03-15T10:50:45Z</time>
      </trkpt>
      <trkpt lat="45.49475" lon="6.63925">
        <ele>2560.61</ele>
        <time>2015-03-15T10:51:02Z</time>
      </trkpt>
      <trkpt lat="45.49475" lon="6.63925">
        <ele>2560.61</ele>
        <time>2015-03-15T10:51:03Z</time>
      </trkpt>
      <trkpt lat="45.49476" lon="6.63928">
        <ele>2561.09</ele>
        <time>2015-03-15T10:51:23Z</time>
      </trkpt>
      <trkpt lat="45.49476" lon="6.63928">
        <ele>2562.53</ele>
        <time>2015-03-15T10:51:52Z</time>
      </trkpt>
      <trkpt lat="45.49474" lon="6.63929">
        <ele>2563.97</ele>
        <time>2015-03-15T10:52:28Z</time>
      </trkpt>
      <trkpt lat="45.49476" lon="6.63928">
        <ele>2562.05</ele>
        <time>2015-03-15T10:52:48Z</time>
      </trkpt>
      <trkpt lat="45.49475" lon="6.63928">
        <ele>2561.57</ele>
        <time>2015-03-15T10:53:21Z</time>
      </trkpt>
      <trkpt lat="45.49474" lon="6.6393">
        <ele>2561.57</ele>
        <time>2015-03-15T10:53:46Z</time>
      </trkpt>
      <trkpt lat="45.49474" lon="6.63929">
        <ele>2561.57</ele>
        <time>2015-03-15T10:54:16Z</time>
      </trkpt>
      <trkpt lat="45.49474" lon="6.63928">
        <ele>2561.57</ele>
        <time>2015-03-15T10:54:38Z</time>
      </trkpt>
      <trkpt lat="45.49475" lon="6.63929">
        <ele>2563.01</ele>
        <time>2015-03-15T10:54:52Z</time>
      </trkpt>
      <trkpt lat="45.49475" lon="6.63928">
        <ele>2562.05</ele>
        <time>2015-03-15T10:55:17Z</time>
      </trkpt>
      <trkpt lat="45.49475" lon="6.6392">
        <ele>2561.57</ele>
        <time>2015-03-15T10:55:34Z</time>
      </trkpt>
      <trkpt lat="45.49476" lon="6.63919">
        <ele>2561.57</ele>
        <time>2015-03-15T10:55:54Z</time>
      </trkpt>
      <trkpt lat="45.49478" lon="6.63919">
        <ele>2561.57</ele>
        <time>2015-03-15T10:56:26Z</time>
      </trkpt>
      <trkpt lat="45.49475" lon="6.63918">
        <ele>2560.13</ele>
        <time>2015-03-15T10:57:00Z</time>
      </trkpt>
      <trkpt lat="45.49475" lon="6.63905">
        <ele>2559.65</ele>
        <time>2015-03-15T10:57:15Z</time>
      </trkpt>
      <trkpt lat="45.49476" lon="6.63898">
        <ele>2557.73</ele>
        <time>2015-03-15T10:57:20Z</time>
      </trkpt>
      <trkpt lat="45.4948" lon="6.63887">
        <ele>2556.28</ele>
        <time>2015-03-15T10:57:27Z</time>
      </trkpt>
      <trkpt lat="45.49483" lon="6.63875">
        <ele>2552.92</ele>
        <time>2015-03-15T10:57:37Z</time>
      </trkpt>
      <trkpt lat="45.49486" lon="6.63857">
        <ele>2551</ele>
        <time>2015-03-15T10:57:51Z</time>
      </trkpt>
      <trkpt lat="45.49489" lon="6.6385">
        <ele>2549.55</ele>
        <time>2015-03-15T10:57:56Z</time>
      </trkpt>
      <trkpt lat="45.49489" lon="6.63842">
        <ele>2545.23</ele>
        <time>2015-03-15T10:58:02Z</time>
      </trkpt>
      <trkpt lat="45.49494" lon="6.63827">
        <ele>2541.38</ele>
        <time>2015-03-15T10:58:15Z</time>
      </trkpt>
      <trkpt lat="45.49494" lon="6.63827">
        <ele>2541.38</ele>
        <time>2015-03-15T10:58:16Z</time>
      </trkpt>
      <trkpt lat="45.49495" lon="6.63821">
        <ele>2538.5</ele>
        <time>2015-03-15T10:58:27Z</time>
      </trkpt>
      <trkpt lat="45.49498" lon="6.63811">
        <ele>2535.13</ele>
        <time>2015-03-15T10:58:38Z</time>
      </trkpt>
      <trkpt lat="45.49499" lon="6.63806">
        <ele>2534.17</ele>
        <time>2015-03-15T10:58:42Z</time>
      </trkpt>
      <trkpt lat="45.49499" lon="6.63802">
        <ele>2533.69</ele>
        <time>2015-03-15T10:58:53Z</time>
      </trkpt>
      <trkpt lat="45.49494" lon="6.63805">
        <ele>2533.69</ele>
        <time>2015-03-15T10:59:09Z</time>
      </trkpt>
      <trkpt lat="45.49495" lon="6.63805">
        <ele>2534.65</ele>
        <time>2015-03-15T10:59:27Z</time>
      </trkpt>
      <trkpt lat="45.49496" lon="6.63805">
        <ele>2537.54</ele>
        <time>2015-03-15T10:59:54Z</time>
      </trkpt>
      <trkpt lat="45.49497" lon="6.63803">
        <ele>2536.1</ele>
        <time>2015-03-15T10:59:56Z</time>
      </trkpt>
      <trkpt lat="45.49499" lon="6.63804">
        <ele>2533.21</ele>
        <time>2015-03-15T11:00:17Z</time>
      </trkpt>
      <trkpt lat="45.49499" lon="6.63803">
        <ele>2535.13</ele>
        <time>2015-03-15T11:00:28Z</time>
      </trkpt>
      <trkpt lat="45.49499" lon="6.63803">
        <ele>2535.61</ele>
        <time>2015-03-15T11:00:40Z</time>
      </trkpt>
      <trkpt lat="45.49499" lon="6.63802">
        <ele>2534.65</ele>
        <time>2015-03-15T11:00:54Z</time>
      </trkpt>
      <trkpt lat="45.49499" lon="6.63802">
        <ele>2536.1</ele>
        <time>2015-03-15T11:01:15Z</time>
      </trkpt>
      <trkpt lat="45.49499" lon="6.63803">
        <ele>2536.1</ele>
        <time>2015-03-15T11:01:16Z</time>
      </trkpt>
      <trkpt lat="45.49499" lon="6.63803">
        <ele>2534.65</ele>
        <time>2015-03-15T11:01:18Z</time>
      </trkpt>
      <trkpt lat="45.49499" lon="6.63803">
        <ele>2536.1</ele>
        <time>2015-03-15T11:01:36Z</time>
      </trkpt>
      <trkpt lat="45.49499" lon="6.63803">
        <ele>2535.61</ele>
        <time>2015-03-15T11:02:01Z</time>
      </trkpt>
      <trkpt lat="45.495" lon="6.63802">
        <ele>2535.61</ele>
        <time>2015-03-15T11:02:18Z</time>
      </trkpt>
      <trkpt lat="45.49498" lon="6.63803">
        <ele>2536.1</ele>
        <time>2015-03-15T11:02:34Z</time>
      </trkpt>
      <trkpt lat="45.49498" lon="6.63803">
        <ele>2534.65</ele>
        <time>2015-03-15T11:02:55Z</time>
      </trkpt>
      <trkpt lat="45.49499" lon="6.63801">
        <ele>2533.21</ele>
        <time>2015-03-15T11:03:22Z</time>
      </trkpt>
      <trkpt lat="45.49499" lon="6.63801">
        <ele>2532.73</ele>
        <time>2015-03-15T11:03:49Z</time>
      </trkpt>
      <trkpt lat="45.49498" lon="6.63803">
        <ele>2534.17</ele>
        <time>2015-03-15T11:04:12Z</time>
      </trkpt>
      <trkpt lat="45.49498" lon="6.63803">
        <ele>2537.06</ele>
        <time>2015-03-15T11:04:22Z</time>
      </trkpt>
      <trkpt lat="45.49499" lon="6.63803">
        <ele>2533.69</ele>
        <time>2015-03-15T11:04:25Z</time>
      </trkpt>
      <trkpt lat="45.49499" lon="6.63803">
        <ele>2533.69</ele>
        <time>2015-03-15T11:04:26Z</time>
      </trkpt>
      <trkpt lat="45.49499" lon="6.63805">
        <ele>2533.69</ele>
        <time>2015-03-15T11:04:45Z</time>
      </trkpt>
      <trkpt lat="45.49499" lon="6.63803">
        <ele>2533.21</ele>
        <time>2015-03-15T11:05:12Z</time>
      </trkpt>
      <trkpt lat="45.495" lon="6.63803">
        <ele>2531.77</ele>
        <time>2015-03-15T11:05:14Z</time>
      </trkpt>
      <trkpt lat="45.495" lon="6.63804">
        <ele>2535.13</ele>
        <time>2015-03-15T11:05:22Z</time>
      </trkpt>
      <trkpt lat="45.49497" lon="6.63803">
        <ele>2531.77</ele>
        <time>2015-03-15T11:05:34Z</time>
      </trkpt>
      <trkpt lat="45.49498" lon="6.63803">
        <ele>2532.25</ele>
        <time>2015-03-15T11:05:38Z</time>
      </trkpt>
      <trkpt lat="45.49498" lon="6.63803">
        <ele>2534.17</ele>
        <time>2015-03-15T11:06:02Z</time>
      </trkpt>
      <trkpt lat="45.49499" lon="6.63802">
        <ele>2532.25</ele>
        <time>2015-03-15T11:06:05Z</time>
      </trkpt>
      <trkpt lat="45.49499" lon="6.63802">
        <ele>2534.17</ele>
        <time>2015-03-15T11:06:08Z</time>
      </trkpt>
      <trkpt lat="45.49499" lon="6.638">
        <ele>2532.25</ele>
        <time>2015-03-15T11:06:14Z</time>
      </trkpt>
      <trkpt lat="45.495" lon="6.638">
        <ele>2531.29</ele>
        <time>2015-03-15T11:06:31Z</time>
      </trkpt>
      <trkpt lat="45.49499" lon="6.638">
        <ele>2533.69</ele>
        <time>2015-03-15T11:06:39Z</time>
      </trkpt>
      <trkpt lat="45.49499" lon="6.638">
        <ele>2533.69</ele>
        <time>2015-03-15T11:06:56Z</time>
      </trkpt>
      <trkpt lat="45.49498" lon="6.63798">
        <ele>2533.69</ele>
        <time>2015-03-15T11:07:01Z</time>
      </trkpt>
      <trkpt lat="45.49489" lon="6.6379">
        <ele>2528.4</ele>
        <time>2015-03-15T11:07:05Z</time>
      </trkpt>
      <trkpt lat="45.49489" lon="6.63788">
        <ele>2528.4</ele>
        <time>2015-03-15T11:07:06Z</time>
      </trkpt>
      <trkpt lat="45.49488" lon="6.63785">
        <ele>2527.44</ele>
        <time>2015-03-15T11:07:07Z</time>
      </trkpt>
      <trkpt lat="45.49489" lon="6.63781">
        <ele>2525.52</ele>
        <time>2015-03-15T11:07:08Z</time>
      </trkpt>
      <trkpt lat="45.49489" lon="6.63777">
        <ele>2524.56</ele>
        <time>2015-03-15T11:07:09Z</time>
      </trkpt>
      <trkpt lat="45.4949" lon="6.63771">
        <ele>2523.12</ele>
        <time>2015-03-15T11:07:10Z</time>
      </trkpt>
      <trkpt lat="45.49492" lon="6.63764">
        <ele>2520.23</ele>
        <time>2015-03-15T11:07:11Z</time>
      </trkpt>
      <trkpt lat="45.49494" lon="6.63757">
        <ele>2517.83</ele>
        <time>2015-03-15T11:07:12Z</time>
      </trkpt>
      <trkpt lat="45.49498" lon="6.63751">
        <ele>2516.39</ele>
        <time>2015-03-15T11:07:13Z</time>
      </trkpt>
      <trkpt lat="45.49502" lon="6.63744">
        <ele>2514.95</ele>
        <time>2015-03-15T11:07:14Z</time>
      </trkpt>
      <trkpt lat="45.49504" lon="6.63734">
        <ele>2514.47</ele>
        <time>2015-03-15T11:07:15Z</time>
      </trkpt>
      <trkpt lat="45.49506" lon="6.63723">
        <ele>2512.54</ele>
        <time>2015-03-15T11:07:16Z</time>
      </trkpt>
      <trkpt lat="45.49508" lon="6.63714">
        <ele>2508.22</ele>
        <time>2015-03-15T11:07:17Z</time>
      </trkpt>
      <trkpt lat="45.49514" lon="6.63701">
        <ele>2505.33</ele>
        <time>2015-03-15T11:07:19Z</time>
      </trkpt>
      <trkpt lat="45.49516" lon="6.63692">
        <ele>2503.89</ele>
        <time>2015-03-15T11:07:20Z</time>
      </trkpt>
      <trkpt lat="45.49516" lon="6.63685">
        <ele>2502.45</ele>
        <time>2015-03-15T11:07:21Z</time>
      </trkpt>
      <trkpt lat="45.49514" lon="6.63682">
        <ele>2501.49</ele>
        <time>2015-03-15T11:07:23Z</time>
      </trkpt>
      <trkpt lat="45.49515" lon="6.63684">
        <ele>2501.01</ele>
        <time>2015-03-15T11:07:41Z</time>
      </trkpt>
      <trkpt lat="45.49511" lon="6.6368">
        <ele>2499.57</ele>
        <time>2015-03-15T11:07:43Z</time>
      </trkpt>
      <trkpt lat="45.49511" lon="6.63675">
        <ele>2498.6</ele>
        <time>2015-03-15T11:07:44Z</time>
      </trkpt>
      <trkpt lat="45.49512" lon="6.63669">
        <ele>2497.64</ele>
        <time>2015-03-15T11:07:45Z</time>
      </trkpt>
      <trkpt lat="45.49514" lon="6.63663">
        <ele>2497.16</ele>
        <time>2015-03-15T11:07:46Z</time>
      </trkpt>
      <trkpt lat="45.49516" lon="6.63656">
        <ele>2495.24</ele>
        <time>2015-03-15T11:07:47Z</time>
      </trkpt>
      <trkpt lat="45.49519" lon="6.6365">
        <ele>2494.76</ele>
        <time>2015-03-15T11:07:48Z</time>
      </trkpt>
      <trkpt lat="45.49522" lon="6.63645">
        <ele>2494.76</ele>
        <time>2015-03-15T11:07:49Z</time>
      </trkpt>
      <trkpt lat="45.49525" lon="6.6364">
        <ele>2494.28</ele>
        <time>2015-03-15T11:07:50Z</time>
      </trkpt>
      <trkpt lat="45.49529" lon="6.63636">
        <ele>2493.8</ele>
        <time>2015-03-15T11:07:51Z</time>
      </trkpt>
      <trkpt lat="45.49538" lon="6.63628">
        <ele>2490.91</ele>
        <time>2015-03-15T11:07:53Z</time>
      </trkpt>
      <trkpt lat="45.49544" lon="6.63622">
        <ele>2490.43</ele>
        <time>2015-03-15T11:07:55Z</time>
      </trkpt>
      <trkpt lat="45.4954" lon="6.63609">
        <ele>2486.59</ele>
        <time>2015-03-15T11:08:00Z</time>
      </trkpt>
      <trkpt lat="45.49548" lon="6.63596">
        <ele>2483.22</ele>
        <time>2015-03-15T11:08:03Z</time>
      </trkpt>
      <trkpt lat="45.49545" lon="6.63585">
        <ele>2478.42</ele>
        <time>2015-03-15T11:08:05Z</time>
      </trkpt>
      <trkpt lat="45.49546" lon="6.63568">
        <ele>2474.09</ele>
        <time>2015-03-15T11:08:08Z</time>
      </trkpt>
      <trkpt lat="45.49546" lon="6.63561">
        <ele>2471.21</ele>
        <time>2015-03-15T11:08:09Z</time>
      </trkpt>
      <trkpt lat="45.49558" lon="6.63554">
        <ele>2467.84</ele>
        <time>2015-03-15T11:08:12Z</time>
      </trkpt>
      <trkpt lat="45.49562" lon="6.63554">
        <ele>2467.84</ele>
        <time>2015-03-15T11:08:13Z</time>
      </trkpt>
      <trkpt lat="45.49571" lon="6.63553">
        <ele>2465.92</ele>
        <time>2015-03-15T11:08:15Z</time>
      </trkpt>
      <trkpt lat="45.49575" lon="6.63539">
        <ele>2461.11</ele>
        <time>2015-03-15T11:08:18Z</time>
      </trkpt>
      <trkpt lat="45.49581" lon="6.63532">
        <ele>2457.75</ele>
        <time>2015-03-15T11:08:20Z</time>
      </trkpt>
      <trkpt lat="45.49588" lon="6.63506">
        <ele>2450.06</ele>
        <time>2015-03-15T11:08:25Z</time>
      </trkpt>
      <trkpt lat="45.49598" lon="6.63492">
        <ele>2445.73</ele>
        <time>2015-03-15T11:08:28Z</time>
      </trkpt>
      <trkpt lat="45.49599" lon="6.63482">
        <ele>2442.85</ele>
        <time>2015-03-15T11:08:30Z</time>
      </trkpt>
      <trkpt lat="45.49595" lon="6.63479">
        <ele>2441.41</ele>
        <time>2015-03-15T11:08:31Z</time>
      </trkpt>
      <trkpt lat="45.49588" lon="6.63463">
        <ele>2436.12</ele>
        <time>2015-03-15T11:08:35Z</time>
      </trkpt>
      <trkpt lat="45.49591" lon="6.63461">
        <ele>2435.64</ele>
        <time>2015-03-15T11:08:36Z</time>
      </trkpt>
      <trkpt lat="45.49594" lon="6.63461">
        <ele>2435.64</ele>
        <time>2015-03-15T11:08:37Z</time>
      </trkpt>
      <trkpt lat="45.49595" lon="6.63458">
        <ele>2435.16</ele>
        <time>2015-03-15T11:08:43Z</time>
      </trkpt>
      <trkpt lat="45.49594" lon="6.63457">
        <ele>2434.68</ele>
        <time>2015-03-15T11:08:44Z</time>
      </trkpt>
      <trkpt lat="45.49592" lon="6.63456">
        <ele>2434.68</ele>
        <time>2015-03-15T11:08:45Z</time>
      </trkpt>
      <trkpt lat="45.49579" lon="6.63448">
        <ele>2430.35</ele>
        <time>2015-03-15T11:08:48Z</time>
      </trkpt>
      <trkpt lat="45.49577" lon="6.63442">
        <ele>2427.95</ele>
        <time>2015-03-15T11:08:49Z</time>
      </trkpt>
      <trkpt lat="45.49579" lon="6.63436">
        <ele>2427.95</ele>
        <time>2015-03-15T11:08:50Z</time>
      </trkpt>
      <trkpt lat="45.49589" lon="6.63415">
        <ele>2426.99</ele>
        <time>2015-03-15T11:08:54Z</time>
      </trkpt>
      <trkpt lat="45.49599" lon="6.63402">
        <ele>2425.06</ele>
        <time>2015-03-15T11:08:57Z</time>
      </trkpt>
      <trkpt lat="45.49597" lon="6.6339">
        <ele>2420.74</ele>
        <time>2015-03-15T11:09:00Z</time>
      </trkpt>
      <trkpt lat="45.49589" lon="6.63388">
        <ele>2417.85</ele>
        <time>2015-03-15T11:09:02Z</time>
      </trkpt>
      <trkpt lat="45.49578" lon="6.63382">
        <ele>2418.33</ele>
        <time>2015-03-15T11:09:08Z</time>
      </trkpt>
      <trkpt lat="45.49579" lon="6.63382">
        <ele>2420.26</ele>
        <time>2015-03-15T11:09:11Z</time>
      </trkpt>
      <trkpt lat="45.49581" lon="6.63378">
        <ele>2421.22</ele>
        <time>2015-03-15T11:09:23Z</time>
      </trkpt>
      <trkpt lat="45.49585" lon="6.63379">
        <ele>2419.78</ele>
        <time>2015-03-15T11:09:25Z</time>
      </trkpt>
      <trkpt lat="45.49594" lon="6.63379">
        <ele>2416.41</ele>
        <time>2015-03-15T11:09:27Z</time>
      </trkpt>
      <trkpt lat="45.49599" lon="6.63379">
        <ele>2416.41</ele>
        <time>2015-03-15T11:09:28Z</time>
      </trkpt>
      <trkpt lat="45.49609" lon="6.63376">
        <ele>2415.45</ele>
        <time>2015-03-15T11:09:32Z</time>
      </trkpt>
      <trkpt lat="45.49612" lon="6.63364">
        <ele>2411.6</ele>
        <time>2015-03-15T11:09:37Z</time>
      </trkpt>
      <trkpt lat="45.49613" lon="6.63354">
        <ele>2406.8</ele>
        <time>2015-03-15T11:09:40Z</time>
      </trkpt>
      <trkpt lat="45.49616" lon="6.63351">
        <ele>2406.32</ele>
        <time>2015-03-15T11:09:41Z</time>
      </trkpt>
      <trkpt lat="45.49624" lon="6.6334">
        <ele>2401.99</ele>
        <time>2015-03-15T11:09:44Z</time>
      </trkpt>
      <trkpt lat="45.4962" lon="6.6334">
        <ele>2400.55</ele>
        <time>2015-03-15T11:09:46Z</time>
      </trkpt>
      <trkpt lat="45.49613" lon="6.63335">
        <ele>2395.74</ele>
        <time>2015-03-15T11:09:50Z</time>
      </trkpt>
      <trkpt lat="45.49619" lon="6.63321">
        <ele>2390.94</ele>
        <time>2015-03-15T11:09:53Z</time>
      </trkpt>
      <trkpt lat="45.49615" lon="6.63314">
        <ele>2387.09</ele>
        <time>2015-03-15T11:09:55Z</time>
      </trkpt>
      <trkpt lat="45.49617" lon="6.63305">
        <ele>2384.21</ele>
        <time>2015-03-15T11:09:57Z</time>
      </trkpt>
      <trkpt lat="45.49613" lon="6.63292">
        <ele>2379.4</ele>
        <time>2015-03-15T11:10:03Z</time>
      </trkpt>
      <trkpt lat="45.49605" lon="6.63277">
        <ele>2374.11</ele>
        <time>2015-03-15T11:10:06Z</time>
      </trkpt>
      <trkpt lat="45.49598" lon="6.63268">
        <ele>2370.75</ele>
        <time>2015-03-15T11:10:08Z</time>
      </trkpt>
      <trkpt lat="45.49601" lon="6.63258">
        <ele>2368.83</ele>
        <time>2015-03-15T11:10:13Z</time>
      </trkpt>
      <trkpt lat="45.496" lon="6.63246">
        <ele>2365.46</ele>
        <time>2015-03-15T11:10:16Z</time>
      </trkpt>
      <trkpt lat="45.49601" lon="6.6324">
        <ele>2364.5</ele>
        <time>2015-03-15T11:10:17Z</time>
      </trkpt>
      <trkpt lat="45.49607" lon="6.63209">
        <ele>2361.14</ele>
        <time>2015-03-15T11:10:21Z</time>
      </trkpt>
      <trkpt lat="45.49603" lon="6.63195">
        <ele>2359.69</ele>
        <time>2015-03-15T11:10:23Z</time>
      </trkpt>
      <trkpt lat="45.49599" lon="6.63184">
        <ele>2360.17</ele>
        <time>2015-03-15T11:10:25Z</time>
      </trkpt>
      <trkpt lat="45.49588" lon="6.63127">
        <ele>2359.21</ele>
        <time>2015-03-15T11:10:37Z</time>
      </trkpt>
      <trkpt lat="45.49586" lon="6.63108">
        <ele>2356.81</ele>
        <time>2015-03-15T11:10:40Z</time>
      </trkpt>
      <trkpt lat="45.49584" lon="6.63102">
        <ele>2356.33</ele>
        <time>2015-03-15T11:10:41Z</time>
      </trkpt>
      <trkpt lat="45.49581" lon="6.63093">
        <ele>2355.37</ele>
        <time>2015-03-15T11:10:43Z</time>
      </trkpt>
      <trkpt lat="45.49579" lon="6.63085">
        <ele>2354.41</ele>
        <time>2015-03-15T11:10:45Z</time>
      </trkpt>
      <trkpt lat="45.49585" lon="6.63073">
        <ele>2349.12</ele>
        <time>2015-03-15T11:10:48Z</time>
      </trkpt>
      <trkpt lat="45.49594" lon="6.63076">
        <ele>2350.08</ele>
        <time>2015-03-15T11:10:51Z</time>
      </trkpt>
      <trkpt lat="45.49595" lon="6.63073">
        <ele>2349.6</ele>
        <time>2015-03-15T11:10:54Z</time>
      </trkpt>
      <trkpt lat="45.49595" lon="6.6307">
        <ele>2348.64</ele>
        <time>2015-03-15T11:10:55Z</time>
      </trkpt>
      <trkpt lat="45.49596" lon="6.63066">
        <ele>2348.16</ele>
        <time>2015-03-15T11:10:56Z</time>
      </trkpt>
      <trkpt lat="45.49594" lon="6.63046">
        <ele>2344.79</ele>
        <time>2015-03-15T11:11:01Z</time>
      </trkpt>
      <trkpt lat="45.49593" lon="6.63033">
        <ele>2343.83</ele>
        <time>2015-03-15T11:11:03Z</time>
      </trkpt>
      <trkpt lat="45.49592" lon="6.6302">
        <ele>2343.83</ele>
        <time>2015-03-15T11:11:11Z</time>
      </trkpt>
      <trkpt lat="45.49592" lon="6.63001">
        <ele>2342.39</ele>
        <time>2015-03-15T11:11:18Z</time>
      </trkpt>
      <trkpt lat="45.49594" lon="6.62996">
        <ele>2341.91</ele>
        <time>2015-03-15T11:11:19Z</time>
      </trkpt>
      <trkpt lat="45.49596" lon="6.62988">
        <ele>2341.43</ele>
        <time>2015-03-15T11:11:21Z</time>
      </trkpt>
      <trkpt lat="45.49591" lon="6.62978">
        <ele>2338.54</ele>
        <time>2015-03-15T11:11:23Z</time>
      </trkpt>
      <trkpt lat="45.49588" lon="6.62974">
        <ele>2337.58</ele>
        <time>2015-03-15T11:11:24Z</time>
      </trkpt>
      <trkpt lat="45.49582" lon="6.62965">
        <ele>2339.99</ele>
        <time>2015-03-15T11:11:27Z</time>
      </trkpt>
      <trkpt lat="45.49579" lon="6.6296">
        <ele>2337.58</ele>
        <time>2015-03-15T11:11:28Z</time>
      </trkpt>
      <trkpt lat="45.49578" lon="6.62956">
        <ele>2337.1</ele>
        <time>2015-03-15T11:11:29Z</time>
      </trkpt>
      <trkpt lat="45.4958" lon="6.62954">
        <ele>2337.1</ele>
        <time>2015-03-15T11:11:38Z</time>
      </trkpt>
      <trkpt lat="45.49585" lon="6.62947">
        <ele>2335.18</ele>
        <time>2015-03-15T11:11:40Z</time>
      </trkpt>
      <trkpt lat="45.49586" lon="6.62942">
        <ele>2333.74</ele>
        <time>2015-03-15T11:11:41Z</time>
      </trkpt>
      <trkpt lat="45.49584" lon="6.62937">
        <ele>2332.3</ele>
        <time>2015-03-15T11:11:42Z</time>
      </trkpt>
      <trkpt lat="45.49582" lon="6.62933">
        <ele>2329.89</ele>
        <time>2015-03-15T11:11:43Z</time>
      </trkpt>
      <trkpt lat="45.49581" lon="6.62928">
        <ele>2328.45</ele>
        <time>2015-03-15T11:11:44Z</time>
      </trkpt>
      <trkpt lat="45.49583" lon="6.62925">
        <ele>2328.45</ele>
        <time>2015-03-15T11:11:45Z</time>
      </trkpt>
      <trkpt lat="45.49587" lon="6.6292">
        <ele>2326.53</ele>
        <time>2015-03-15T11:11:46Z</time>
      </trkpt>
      <trkpt lat="45.49587" lon="6.62914">
        <ele>2324.61</ele>
        <time>2015-03-15T11:11:47Z</time>
      </trkpt>
      <trkpt lat="45.49585" lon="6.62911">
        <ele>2322.68</ele>
        <time>2015-03-15T11:11:48Z</time>
      </trkpt>
      <trkpt lat="45.49584" lon="6.62907">
        <ele>2321.72</ele>
        <time>2015-03-15T11:11:49Z</time>
      </trkpt>
      <trkpt lat="45.49584" lon="6.62902">
        <ele>2320.28</ele>
        <time>2015-03-15T11:11:50Z</time>
      </trkpt>
      <trkpt lat="45.49588" lon="6.62899">
        <ele>2317.4</ele>
        <time>2015-03-15T11:11:51Z</time>
      </trkpt>
      <trkpt lat="45.49597" lon="6.62889">
        <ele>2313.07</ele>
        <time>2015-03-15T11:11:56Z</time>
      </trkpt>
      <trkpt lat="45.49591" lon="6.62884">
        <ele>2311.15</ele>
        <time>2015-03-15T11:11:58Z</time>
      </trkpt>
      <trkpt lat="45.4959" lon="6.62863">
        <ele>2304.9</ele>
        <time>2015-03-15T11:12:02Z</time>
      </trkpt>
      <trkpt lat="45.49588" lon="6.62851">
        <ele>2302.01</ele>
        <time>2015-03-15T11:12:04Z</time>
      </trkpt>
      <trkpt lat="45.49586" lon="6.6284">
        <ele>2298.65</ele>
        <time>2015-03-15T11:12:06Z</time>
      </trkpt>
      <trkpt lat="45.4958" lon="6.62833">
        <ele>2294.8</ele>
        <time>2015-03-15T11:12:08Z</time>
      </trkpt>
      <trkpt lat="45.4958" lon="6.6282">
        <ele>2292.88</ele>
        <time>2015-03-15T11:12:10Z</time>
      </trkpt>
      <trkpt lat="45.49578" lon="6.62792">
        <ele>2283.75</ele>
        <time>2015-03-15T11:12:14Z</time>
      </trkpt>
      <trkpt lat="45.49576" lon="6.62772">
        <ele>2278.94</ele>
        <time>2015-03-15T11:12:17Z</time>
      </trkpt>
      <trkpt lat="45.49579" lon="6.62747">
        <ele>2275.58</ele>
        <time>2015-03-15T11:12:21Z</time>
      </trkpt>
      <trkpt lat="45.49578" lon="6.62741">
        <ele>2273.17</ele>
        <time>2015-03-15T11:12:22Z</time>
      </trkpt>
      <trkpt lat="45.49575" lon="6.6272">
        <ele>2268.85</ele>
        <time>2015-03-15T11:12:25Z</time>
      </trkpt>
      <trkpt lat="45.49577" lon="6.62708">
        <ele>2267.89</ele>
        <time>2015-03-15T11:12:27Z</time>
      </trkpt>
      <trkpt lat="45.49579" lon="6.62685">
        <ele>2264.52</ele>
        <time>2015-03-15T11:12:31Z</time>
      </trkpt>
      <trkpt lat="45.49568" lon="6.62662">
        <ele>2262.6</ele>
        <time>2015-03-15T11:12:37Z</time>
      </trkpt>
      <trkpt lat="45.49567" lon="6.6265">
        <ele>2263.08</ele>
        <time>2015-03-15T11:12:47Z</time>
      </trkpt>
      <trkpt lat="45.49567" lon="6.62649">
        <ele>2262.6</ele>
        <time>2015-03-15T11:13:11Z</time>
      </trkpt>
      <trkpt lat="45.49565" lon="6.62647">
        <ele>2262.6</ele>
        <time>2015-03-15T11:13:36Z</time>
      </trkpt>
      <trkpt lat="45.49566" lon="6.62649">
        <ele>2262.6</ele>
        <time>2015-03-15T11:13:54Z</time>
      </trkpt>
      <trkpt lat="45.49566" lon="6.62648">
        <ele>2262.6</ele>
        <time>2015-03-15T11:14:14Z</time>
      </trkpt>
      <trkpt lat="45.49564" lon="6.62635">
        <ele>2261.16</ele>
        <time>2015-03-15T11:14:18Z</time>
      </trkpt>
      <trkpt lat="45.49567" lon="6.62611">
        <ele>2256.35</ele>
        <time>2015-03-15T11:14:22Z</time>
      </trkpt>
      <trkpt lat="45.49567" lon="6.62589">
        <ele>2251.54</ele>
        <time>2015-03-15T11:14:25Z</time>
      </trkpt>
      <trkpt lat="45.49568" lon="6.62582">
        <ele>2251.54</ele>
        <time>2015-03-15T11:14:26Z</time>
      </trkpt>
      <trkpt lat="45.49569" lon="6.62568">
        <ele>2250.1</ele>
        <time>2015-03-15T11:14:28Z</time>
      </trkpt>
      <trkpt lat="45.49574" lon="6.62539">
        <ele>2245.78</ele>
        <time>2015-03-15T11:14:32Z</time>
      </trkpt>
      <trkpt lat="45.49574" lon="6.6252">
        <ele>2242.89</ele>
        <time>2015-03-15T11:14:34Z</time>
      </trkpt>
      <trkpt lat="45.49573" lon="6.62511">
        <ele>2241.93</ele>
        <time>2015-03-15T11:14:35Z</time>
      </trkpt>
      <trkpt lat="45.49573" lon="6.62492">
        <ele>2240.97</ele>
        <time>2015-03-15T11:14:37Z</time>
      </trkpt>
      <trkpt lat="45.49572" lon="6.62443">
        <ele>2239.05</ele>
        <time>2015-03-15T11:14:42Z</time>
      </trkpt>
      <trkpt lat="45.49571" lon="6.62423">
        <ele>2238.09</ele>
        <time>2015-03-15T11:14:44Z</time>
      </trkpt>
      <trkpt lat="45.49567" lon="6.62402">
        <ele>2234.72</ele>
        <time>2015-03-15T11:14:46Z</time>
      </trkpt>
      <trkpt lat="45.49567" lon="6.62391">
        <ele>2233.76</ele>
        <time>2015-03-15T11:14:47Z</time>
      </trkpt>
      <trkpt lat="45.49567" lon="6.62381">
        <ele>2233.76</ele>
        <time>2015-03-15T11:14:48Z</time>
      </trkpt>
      <trkpt lat="45.49568" lon="6.62315">
        <ele>2232.8</ele>
        <time>2015-03-15T11:14:55Z</time>
      </trkpt>
      <trkpt lat="45.49569" lon="6.62308">
        <ele>2232.8</ele>
        <time>2015-03-15T11:14:56Z</time>
      </trkpt>
      <trkpt lat="45.49569" lon="6.62299">
        <ele>2232.8</ele>
        <time>2015-03-15T11:14:57Z</time>
      </trkpt>
      <trkpt lat="45.49571" lon="6.62291">
        <ele>2232.32</ele>
        <time>2015-03-15T11:14:58Z</time>
      </trkpt>
      <trkpt lat="45.49572" lon="6.62282">
        <ele>2230.88</ele>
        <time>2015-03-15T11:14:59Z</time>
      </trkpt>
      <trkpt lat="45.49571" lon="6.62276">
        <ele>2229.92</ele>
        <time>2015-03-15T11:15:00Z</time>
      </trkpt>
      <trkpt lat="45.4957" lon="6.62273">
        <ele>2229.92</ele>
        <time>2015-03-15T11:15:01Z</time>
      </trkpt>
      <trkpt lat="45.4957" lon="6.62271">
        <ele>2229.92</ele>
        <time>2015-03-15T11:15:02Z</time>
      </trkpt>
      <trkpt lat="45.49569" lon="6.6227">
        <ele>2229.43</ele>
        <time>2015-03-15T11:15:03Z</time>
      </trkpt>
      <trkpt lat="45.4957" lon="6.62268">
        <ele>2228.95</ele>
        <time>2015-03-15T11:15:15Z</time>
      </trkpt>
      <trkpt lat="45.49568" lon="6.62256">
        <ele>2226.55</ele>
        <time>2015-03-15T11:15:19Z</time>
      </trkpt>
      <trkpt lat="45.49578" lon="6.62245">
        <ele>2220.3</ele>
        <time>2015-03-15T11:15:22Z</time>
      </trkpt>
      <trkpt lat="45.49585" lon="6.62247">
        <ele>2221.26</ele>
        <time>2015-03-15T11:15:24Z</time>
      </trkpt>
      <trkpt lat="45.49584" lon="6.62246">
        <ele>2222.22</ele>
        <time>2015-03-15T11:15:26Z</time>
      </trkpt>
      <trkpt lat="45.49583" lon="6.62243">
        <ele>2222.22</ele>
        <time>2015-03-15T11:15:27Z</time>
      </trkpt>
      <trkpt lat="45.49582" lon="6.62239">
        <ele>2220.78</ele>
        <time>2015-03-15T11:15:28Z</time>
      </trkpt>
      <trkpt lat="45.49578" lon="6.62223">
        <ele>2216.46</ele>
        <time>2015-03-15T11:15:31Z</time>
      </trkpt>
      <trkpt lat="45.49578" lon="6.62222">
        <ele>2216.46</ele>
        <time>2015-03-15T11:15:36Z</time>
      </trkpt>
      <trkpt lat="45.49573" lon="6.62215">
        <ele>2212.13</ele>
        <time>2015-03-15T11:15:40Z</time>
      </trkpt>
      <trkpt lat="45.49571" lon="6.62207">
        <ele>2208.29</ele>
        <time>2015-03-15T11:15:44Z</time>
      </trkpt>
      <trkpt lat="45.49566" lon="6.62197">
        <ele>2202.52</ele>
        <time>2015-03-15T11:15:49Z</time>
      </trkpt>
      <trkpt lat="45.49564" lon="6.62192">
        <ele>2199.15</ele>
        <time>2015-03-15T11:15:58Z</time>
      </trkpt>
      <trkpt lat="45.49562" lon="6.62184">
        <ele>2195.79</ele>
        <time>2015-03-15T11:16:04Z</time>
      </trkpt>
      <trkpt lat="45.49562" lon="6.62184">
        <ele>2195.79</ele>
        <time>2015-03-15T11:16:05Z</time>
      </trkpt>
      <trkpt lat="45.49565" lon="6.62182">
        <ele>2192.9</ele>
        <time>2015-03-15T11:16:19Z</time>
      </trkpt>
      <trkpt lat="45.49564" lon="6.62179">
        <ele>2192.42</ele>
        <time>2015-03-15T11:16:20Z</time>
      </trkpt>
      <trkpt lat="45.49569" lon="6.62171">
        <ele>2188.58</ele>
        <time>2015-03-15T11:16:23Z</time>
      </trkpt>
      <trkpt lat="45.4957" lon="6.6217">
        <ele>2188.58</ele>
        <time>2015-03-15T11:16:35Z</time>
      </trkpt>
      <trkpt lat="45.49569" lon="6.6217">
        <ele>2189.54</ele>
        <time>2015-03-15T11:17:00Z</time>
      </trkpt>
      <trkpt lat="45.4957" lon="6.62169">
        <ele>2189.54</ele>
        <time>2015-03-15T11:17:22Z</time>
      </trkpt>
      <trkpt lat="45.49572" lon="6.62166">
        <ele>2188.1</ele>
        <time>2015-03-15T11:17:25Z</time>
      </trkpt>
      <trkpt lat="45.49582" lon="6.62156">
        <ele>2185.21</ele>
        <time>2015-03-15T11:17:30Z</time>
      </trkpt>
      <trkpt lat="45.49602" lon="6.62136">
        <ele>2183.29</ele>
        <time>2015-03-15T11:17:39Z</time>
      </trkpt>
      <trkpt lat="45.49605" lon="6.62134">
        <ele>2183.29</ele>
        <time>2015-03-15T11:17:48Z</time>
      </trkpt>
      <trkpt lat="45.4961" lon="6.62122">
        <ele>2181.37</ele>
        <time>2015-03-15T11:17:52Z</time>
      </trkpt>
      <trkpt lat="45.49627" lon="6.62097">
        <ele>2178.97</ele>
        <time>2015-03-15T11:18:04Z</time>
      </trkpt>
      <trkpt lat="45.49628" lon="6.62094">
        <ele>2178.97</ele>
        <time>2015-03-15T11:18:05Z</time>
      </trkpt>
      <trkpt lat="45.49636" lon="6.6206">
        <ele>2176.56</ele>
        <time>2015-03-15T11:18:16Z</time>
      </trkpt>
      <trkpt lat="45.49636" lon="6.62026">
        <ele>2174.16</ele>
        <time>2015-03-15T11:18:24Z</time>
      </trkpt>
      <trkpt lat="45.49634" lon="6.62006">
        <ele>2171.27</ele>
        <time>2015-03-15T11:18:26Z</time>
      </trkpt>
      <trkpt lat="45.49631" lon="6.61997">
        <ele>2169.35</ele>
        <time>2015-03-15T11:18:27Z</time>
      </trkpt>
      <trkpt lat="45.49629" lon="6.61988">
        <ele>2168.87</ele>
        <time>2015-03-15T11:18:28Z</time>
      </trkpt>
      <trkpt lat="45.49628" lon="6.61969">
        <ele>2170.79</ele>
        <time>2015-03-15T11:18:33Z</time>
      </trkpt>
      <trkpt lat="45.49627" lon="6.61965">
        <ele>2170.79</ele>
        <time>2015-03-15T11:18:44Z</time>
      </trkpt>
      <trkpt lat="45.49626" lon="6.61964">
        <ele>2170.79</ele>
        <time>2015-03-15T11:18:54Z</time>
      </trkpt>
      <trkpt lat="45.49624" lon="6.6196">
        <ele>2168.87</ele>
        <time>2015-03-15T11:18:55Z</time>
      </trkpt>
      <trkpt lat="45.49623" lon="6.61955">
        <ele>2167.91</ele>
        <time>2015-03-15T11:18:56Z</time>
      </trkpt>
      <trkpt lat="45.49624" lon="6.6195">
        <ele>2167.43</ele>
        <time>2015-03-15T11:18:57Z</time>
      </trkpt>
      <trkpt lat="45.49625" lon="6.61947">
        <ele>2166.95</ele>
        <time>2015-03-15T11:18:58Z</time>
      </trkpt>
      <trkpt lat="45.49626" lon="6.61943">
        <ele>2166.95</ele>
        <time>2015-03-15T11:18:59Z</time>
      </trkpt>
      <trkpt lat="45.49634" lon="6.61921">
        <ele>2164.55</ele>
        <time>2015-03-15T11:19:03Z</time>
      </trkpt>
      <trkpt lat="45.49637" lon="6.6191">
        <ele>2164.06</ele>
        <time>2015-03-15T11:19:05Z</time>
      </trkpt>
      <trkpt lat="45.4964" lon="6.61897">
        <ele>2160.7</ele>
        <time>2015-03-15T11:19:07Z</time>
      </trkpt>
      <trkpt lat="45.49639" lon="6.61891">
        <ele>2159.74</ele>
        <time>2015-03-15T11:19:08Z</time>
      </trkpt>
      <trkpt lat="45.49636" lon="6.61887">
        <ele>2158.78</ele>
        <time>2015-03-15T11:19:09Z</time>
      </trkpt>
      <trkpt lat="45.49632" lon="6.61883">
        <ele>2157.82</ele>
        <time>2015-03-15T11:19:10Z</time>
      </trkpt>
      <trkpt lat="45.49629" lon="6.61876">
        <ele>2156.37</ele>
        <time>2015-03-15T11:19:11Z</time>
      </trkpt>
      <trkpt lat="45.4963" lon="6.61868">
        <ele>2154.45</ele>
        <time>2015-03-15T11:19:12Z</time>
      </trkpt>
      <trkpt lat="45.49632" lon="6.6186">
        <ele>2153.97</ele>
        <time>2015-03-15T11:19:13Z</time>
      </trkpt>
      <trkpt lat="45.49634" lon="6.61853">
        <ele>2152.53</ele>
        <time>2015-03-15T11:19:14Z</time>
      </trkpt>
      <trkpt lat="45.49633" lon="6.61846">
        <ele>2152.05</ele>
        <time>2015-03-15T11:19:15Z</time>
      </trkpt>
      <trkpt lat="45.49633" lon="6.6184">
        <ele>2150.13</ele>
        <time>2015-03-15T11:19:16Z</time>
      </trkpt>
      <trkpt lat="45.49635" lon="6.61835">
        <ele>2150.13</ele>
        <time>2015-03-15T11:19:17Z</time>
      </trkpt>
      <trkpt lat="45.49641" lon="6.61835">
        <ele>2149.16</ele>
        <time>2015-03-15T11:19:21Z</time>
      </trkpt>
      <trkpt lat="45.49636" lon="6.61826">
        <ele>2145.8</ele>
        <time>2015-03-15T11:19:25Z</time>
      </trkpt>
      <trkpt lat="45.49623" lon="6.61813">
        <ele>2141.95</ele>
        <time>2015-03-15T11:19:30Z</time>
      </trkpt>
      <trkpt lat="45.49621" lon="6.61808">
        <ele>2141.47</ele>
        <time>2015-03-15T11:19:31Z</time>
      </trkpt>
      <trkpt lat="45.49621" lon="6.61803">
        <ele>2139.07</ele>
        <time>2015-03-15T11:19:32Z</time>
      </trkpt>
      <trkpt lat="45.49622" lon="6.61801">
        <ele>2137.63</ele>
        <time>2015-03-15T11:19:33Z</time>
      </trkpt>
      <trkpt lat="45.49628" lon="6.61799">
        <ele>2136.67</ele>
        <time>2015-03-15T11:19:35Z</time>
      </trkpt>
      <trkpt lat="45.49635" lon="6.61799">
        <ele>2134.26</ele>
        <time>2015-03-15T11:19:37Z</time>
      </trkpt>
      <trkpt lat="45.49646" lon="6.61786">
        <ele>2131.38</ele>
        <time>2015-03-15T11:19:40Z</time>
      </trkpt>
      <trkpt lat="45.49647" lon="6.61767">
        <ele>2127.53</ele>
        <time>2015-03-15T11:19:43Z</time>
      </trkpt>
      <trkpt lat="45.49648" lon="6.61754">
        <ele>2124.17</ele>
        <time>2015-03-15T11:19:45Z</time>
      </trkpt>
      <trkpt lat="45.49646" lon="6.61748">
        <ele>2122.25</ele>
        <time>2015-03-15T11:19:47Z</time>
      </trkpt>
      <trkpt lat="45.49633" lon="6.61732">
        <ele>2117.92</ele>
        <time>2015-03-15T11:19:54Z</time>
      </trkpt>
      <trkpt lat="45.49633" lon="6.61728">
        <ele>2116</ele>
        <time>2015-03-15T11:19:55Z</time>
      </trkpt>
      <trkpt lat="45.49636" lon="6.61728">
        <ele>2115.04</ele>
        <time>2015-03-15T11:19:56Z</time>
      </trkpt>
      <trkpt lat="45.49654" lon="6.6173">
        <ele>2112.15</ele>
        <time>2015-03-15T11:20:00Z</time>
      </trkpt>
      <trkpt lat="45.49657" lon="6.6173">
        <ele>2111.67</ele>
        <time>2015-03-15T11:20:01Z</time>
      </trkpt>
      <trkpt lat="45.49666" lon="6.61724">
        <ele>2109.75</ele>
        <time>2015-03-15T11:20:05Z</time>
      </trkpt>
      <trkpt lat="45.49666" lon="6.6172">
        <ele>2107.83</ele>
        <time>2015-03-15T11:20:06Z</time>
      </trkpt>
      <trkpt lat="45.49664" lon="6.61715">
        <ele>2106.87</ele>
        <time>2015-03-15T11:20:07Z</time>
      </trkpt>
      <trkpt lat="45.49663" lon="6.61709">
        <ele>2103.98</ele>
        <time>2015-03-15T11:20:08Z</time>
      </trkpt>
      <trkpt lat="45.49664" lon="6.61703">
        <ele>2102.54</ele>
        <time>2015-03-15T11:20:09Z</time>
      </trkpt>
      <trkpt lat="45.49665" lon="6.617">
        <ele>2102.54</ele>
        <time>2015-03-15T11:20:10Z</time>
      </trkpt>
      <trkpt lat="45.49666" lon="6.61696">
        <ele>2101.1</ele>
        <time>2015-03-15T11:20:11Z</time>
      </trkpt>
      <trkpt lat="45.49665" lon="6.61693">
        <ele>2100.14</ele>
        <time>2015-03-15T11:20:12Z</time>
      </trkpt>
      <trkpt lat="45.49664" lon="6.6169">
        <ele>2099.18</ele>
        <time>2015-03-15T11:20:13Z</time>
      </trkpt>
      <trkpt lat="45.49666" lon="6.61688">
        <ele>2097.73</ele>
        <time>2015-03-15T11:20:14Z</time>
      </trkpt>
      <trkpt lat="45.49672" lon="6.61688">
        <ele>2093.89</ele>
        <time>2015-03-15T11:20:17Z</time>
      </trkpt>
      <trkpt lat="45.49674" lon="6.61688">
        <ele>2093.41</ele>
        <time>2015-03-15T11:20:18Z</time>
      </trkpt>
      <trkpt lat="45.49676" lon="6.6169">
        <ele>2092.45</ele>
        <time>2015-03-15T11:20:19Z</time>
      </trkpt>
      <trkpt lat="45.49681" lon="6.61691">
        <ele>2092.45</ele>
        <time>2015-03-15T11:20:23Z</time>
      </trkpt>
      <trkpt lat="45.49682" lon="6.61692">
        <ele>2090.52</ele>
        <time>2015-03-15T11:20:24Z</time>
      </trkpt>
      <trkpt lat="45.49684" lon="6.61694">
        <ele>2090.04</ele>
        <time>2015-03-15T11:20:25Z</time>
      </trkpt>
      <trkpt lat="45.49686" lon="6.61694">
        <ele>2090.04</ele>
        <time>2015-03-15T11:20:26Z</time>
      </trkpt>
      <trkpt lat="45.49688" lon="6.61695">
        <ele>2089.08</ele>
        <time>2015-03-15T11:20:27Z</time>
      </trkpt>
      <trkpt lat="45.49691" lon="6.61696">
        <ele>2087.16</ele>
        <time>2015-03-15T11:20:28Z</time>
      </trkpt>
      <trkpt lat="45.49695" lon="6.61698">
        <ele>2085.24</ele>
        <time>2015-03-15T11:20:29Z</time>
      </trkpt>
      <trkpt lat="45.49709" lon="6.61703">
        <ele>2081.87</ele>
        <time>2015-03-15T11:20:31Z</time>
      </trkpt>
      <trkpt lat="45.49731" lon="6.61712">
        <ele>2080.43</ele>
        <time>2015-03-15T11:20:34Z</time>
      </trkpt>
      <trkpt lat="45.49738" lon="6.61713">
        <ele>2079.95</ele>
        <time>2015-03-15T11:20:35Z</time>
      </trkpt>
      <trkpt lat="45.49759" lon="6.61714">
        <ele>2078.03</ele>
        <time>2015-03-15T11:20:38Z</time>
      </trkpt>
      <trkpt lat="45.49765" lon="6.61716">
        <ele>2077.07</ele>
        <time>2015-03-15T11:20:39Z</time>
      </trkpt>
      <trkpt lat="45.49771" lon="6.6172">
        <ele>2074.66</ele>
        <time>2015-03-15T11:20:40Z</time>
      </trkpt>
      <trkpt lat="45.49777" lon="6.61723">
        <ele>2074.66</ele>
        <time>2015-03-15T11:20:41Z</time>
      </trkpt>
      <trkpt lat="45.49782" lon="6.61726">
        <ele>2076.59</ele>
        <time>2015-03-15T11:20:42Z</time>
      </trkpt>
      <trkpt lat="45.49794" lon="6.61731">
        <ele>2072.26</ele>
        <time>2015-03-15T11:20:44Z</time>
      </trkpt>
      <trkpt lat="45.49801" lon="6.61733">
        <ele>2069.38</ele>
        <time>2015-03-15T11:20:45Z</time>
      </trkpt>
      <trkpt lat="45.49808" lon="6.61735">
        <ele>2069.38</ele>
        <time>2015-03-15T11:20:46Z</time>
      </trkpt>
      <trkpt lat="45.49862" lon="6.61748">
        <ele>2066.49</ele>
        <time>2015-03-15T11:20:53Z</time>
      </trkpt>
      <trkpt lat="45.49869" lon="6.61749">
        <ele>2066.49</ele>
        <time>2015-03-15T11:20:54Z</time>
      </trkpt>
      <trkpt lat="45.49876" lon="6.61749">
        <ele>2066.97</ele>
        <time>2015-03-15T11:20:55Z</time>
      </trkpt>
      <trkpt lat="45.49896" lon="6.61749">
        <ele>2064.09</ele>
        <time>2015-03-15T11:20:58Z</time>
      </trkpt>
      <trkpt lat="45.49911" lon="6.61753">
        <ele>2061.68</ele>
        <time>2015-03-15T11:21:00Z</time>
      </trkpt>
      <trkpt lat="45.49918" lon="6.61756">
        <ele>2059.76</ele>
        <time>2015-03-15T11:21:01Z</time>
      </trkpt>
      <trkpt lat="45.49933" lon="6.61765">
        <ele>2056.4</ele>
        <time>2015-03-15T11:21:03Z</time>
      </trkpt>
      <trkpt lat="45.4994" lon="6.61769">
        <ele>2056.4</ele>
        <time>2015-03-15T11:21:04Z</time>
      </trkpt>
      <trkpt lat="45.49958" lon="6.61779">
        <ele>2056.4</ele>
        <time>2015-03-15T11:21:07Z</time>
      </trkpt>
      <trkpt lat="45.49963" lon="6.61783">
        <ele>2054.96</ele>
        <time>2015-03-15T11:21:08Z</time>
      </trkpt>
      <trkpt lat="45.49968" lon="6.61787">
        <ele>2054.96</ele>
        <time>2015-03-15T11:21:09Z</time>
      </trkpt>
      <trkpt lat="45.50015" lon="6.61817">
        <ele>2053.51</ele>
        <time>2015-03-15T11:21:21Z</time>
      </trkpt>
      <trkpt lat="45.50023" lon="6.61824">
        <ele>2050.63</ele>
        <time>2015-03-15T11:21:23Z</time>
      </trkpt>
      <trkpt lat="45.50028" lon="6.61827">
        <ele>2049.67</ele>
        <time>2015-03-15T11:21:24Z</time>
      </trkpt>
      <trkpt lat="45.50033" lon="6.61829">
        <ele>2049.67</ele>
        <time>2015-03-15T11:21:25Z</time>
      </trkpt>
      <trkpt lat="45.5005" lon="6.61836">
        <ele>2047.75</ele>
        <time>2015-03-15T11:21:29Z</time>
      </trkpt>
      <trkpt lat="45.50069" lon="6.61848">
        <ele>2044.86</ele>
        <time>2015-03-15T11:21:36Z</time>
      </trkpt>
      <trkpt lat="45.50075" lon="6.61851">
        <ele>2044.38</ele>
        <time>2015-03-15T11:21:38Z</time>
      </trkpt>
      <trkpt lat="45.50087" lon="6.61852">
        <ele>2042.46</ele>
        <time>2015-03-15T11:21:41Z</time>
      </trkpt>
      <trkpt lat="45.50097" lon="6.61852">
        <ele>2041.02</ele>
        <time>2015-03-15T11:21:44Z</time>
      </trkpt>
      <trkpt lat="45.50107" lon="6.61852">
        <ele>2039.57</ele>
        <time>2015-03-15T11:21:51Z</time>
      </trkpt>
      <trkpt lat="45.50111" lon="6.61851">
        <ele>2037.65</ele>
        <time>2015-03-15T11:21:52Z</time>
      </trkpt>
      <trkpt lat="45.50114" lon="6.61851">
        <ele>2037.17</ele>
        <time>2015-03-15T11:21:53Z</time>
      </trkpt>
      <trkpt lat="45.50117" lon="6.61851">
        <ele>2037.65</ele>
        <time>2015-03-15T11:21:56Z</time>
      </trkpt>
      <trkpt lat="45.50114" lon="6.61841">
        <ele>2034.29</ele>
        <time>2015-03-15T11:21:59Z</time>
      </trkpt>
      <trkpt lat="45.50108" lon="6.61831">
        <ele>2030.92</ele>
        <time>2015-03-15T11:22:02Z</time>
      </trkpt>
      <trkpt lat="45.50108" lon="6.61821">
        <ele>2026.6</ele>
        <time>2015-03-15T11:22:04Z</time>
      </trkpt>
      <trkpt lat="45.50115" lon="6.6182">
        <ele>2023.71</ele>
        <time>2015-03-15T11:22:06Z</time>
      </trkpt>
      <trkpt lat="45.50121" lon="6.61811">
        <ele>2018.91</ele>
        <time>2015-03-15T11:22:09Z</time>
      </trkpt>
      <trkpt lat="45.5012" lon="6.61807">
        <ele>2018.43</ele>
        <time>2015-03-15T11:22:10Z</time>
      </trkpt>
      <trkpt lat="45.50114" lon="6.61799">
        <ele>2016.02</ele>
        <time>2015-03-15T11:22:13Z</time>
      </trkpt>
      <trkpt lat="45.50111" lon="6.61781">
        <ele>2010.73</ele>
        <time>2015-03-15T11:22:16Z</time>
      </trkpt>
      <trkpt lat="45.50125" lon="6.61783">
        <ele>2006.41</ele>
        <time>2015-03-15T11:22:19Z</time>
      </trkpt>
      <trkpt lat="45.5013" lon="6.61782">
        <ele>2006.41</ele>
        <time>2015-03-15T11:22:20Z</time>
      </trkpt>
      <trkpt lat="45.50132" lon="6.61778">
        <ele>2004.97</ele>
        <time>2015-03-15T11:22:21Z</time>
      </trkpt>
      <trkpt lat="45.50131" lon="6.61773">
        <ele>2004.01</ele>
        <time>2015-03-15T11:22:22Z</time>
      </trkpt>
      <trkpt lat="45.5013" lon="6.61768">
        <ele>2002.56</ele>
        <time>2015-03-15T11:22:23Z</time>
      </trkpt>
      <trkpt lat="45.50129" lon="6.61762">
        <ele>2001.6</ele>
        <time>2015-03-15T11:22:24Z</time>
      </trkpt>
      <trkpt lat="45.50133" lon="6.61757">
        <ele>1998.24</ele>
        <time>2015-03-15T11:22:26Z</time>
      </trkpt>
      <trkpt lat="45.50136" lon="6.61755">
        <ele>1997.76</ele>
        <time>2015-03-15T11:22:27Z</time>
      </trkpt>
      <trkpt lat="45.50138" lon="6.61746">
        <ele>1994.39</ele>
        <time>2015-03-15T11:22:29Z</time>
      </trkpt>
      <trkpt lat="45.50137" lon="6.61743">
        <ele>1993.43</ele>
        <time>2015-03-15T11:22:30Z</time>
      </trkpt>
      <trkpt lat="45.50135" lon="6.61739">
        <ele>1992.95</ele>
        <time>2015-03-15T11:22:31Z</time>
      </trkpt>
      <trkpt lat="45.50127" lon="6.61718">
        <ele>1989.59</ele>
        <time>2015-03-15T11:22:40Z</time>
      </trkpt>
      <trkpt lat="45.50121" lon="6.61693">
        <ele>1986.22</ele>
        <time>2015-03-15T11:22:44Z</time>
      </trkpt>
      <trkpt lat="45.5012" lon="6.61686">
        <ele>1985.26</ele>
        <time>2015-03-15T11:22:45Z</time>
      </trkpt>
      <trkpt lat="45.50125" lon="6.61677">
        <ele>1981.41</ele>
        <time>2015-03-15T11:22:49Z</time>
      </trkpt>
      <trkpt lat="45.50126" lon="6.61677">
        <ele>1981.41</ele>
        <time>2015-03-15T11:22:50Z</time>
      </trkpt>
      <trkpt lat="45.50128" lon="6.61681">
        <ele>1982.86</ele>
        <time>2015-03-15T11:23:01Z</time>
      </trkpt>
      <trkpt lat="45.50131" lon="6.61687">
        <ele>1982.86</ele>
        <time>2015-03-15T11:23:27Z</time>
      </trkpt>
      <trkpt lat="45.50136" lon="6.61682">
        <ele>1981.9</ele>
        <time>2015-03-15T11:23:43Z</time>
      </trkpt>
      <trkpt lat="45.50138" lon="6.61683">
        <ele>1983.34</ele>
        <time>2015-03-15T11:23:53Z</time>
      </trkpt>
      <trkpt lat="45.50134" lon="6.61683">
        <ele>1983.34</ele>
        <time>2015-03-15T11:24:09Z</time>
      </trkpt>
      <trkpt lat="45.50139" lon="6.61684">
        <ele>1979.97</ele>
        <time>2015-03-15T11:24:12Z</time>
      </trkpt>
      <trkpt lat="45.50142" lon="6.61687">
        <ele>1978.53</ele>
        <time>2015-03-15T11:24:13Z</time>
      </trkpt>
      <trkpt lat="45.50153" lon="6.61697">
        <ele>1975.65</ele>
        <time>2015-03-15T11:24:16Z</time>
      </trkpt>
      <trkpt lat="45.50154" lon="6.61698">
        <ele>1978.53</ele>
        <time>2015-03-15T11:24:17Z</time>
      </trkpt>
      <trkpt lat="45.50158" lon="6.6169">
        <ele>1977.09</ele>
        <time>2015-03-15T11:24:21Z</time>
      </trkpt>
      <trkpt lat="45.5016" lon="6.61681">
        <ele>1975.65</ele>
        <time>2015-03-15T11:24:23Z</time>
      </trkpt>
      <trkpt lat="45.50172" lon="6.61665">
        <ele>1969.88</ele>
        <time>2015-03-15T11:24:28Z</time>
      </trkpt>
      <trkpt lat="45.50177" lon="6.61662">
        <ele>1966.51</ele>
        <time>2015-03-15T11:24:30Z</time>
      </trkpt>
      <trkpt lat="45.50187" lon="6.61648">
        <ele>1962.19</ele>
        <time>2015-03-15T11:24:35Z</time>
      </trkpt>
      <trkpt lat="45.50193" lon="6.61638">
        <ele>1961.23</ele>
        <time>2015-03-15T11:24:37Z</time>
      </trkpt>
      <trkpt lat="45.50199" lon="6.6163">
        <ele>1963.15</ele>
        <time>2015-03-15T11:24:39Z</time>
      </trkpt>
      <trkpt lat="45.50212" lon="6.61626">
        <ele>1959.3</ele>
        <time>2015-03-15T11:24:46Z</time>
      </trkpt>
      <trkpt lat="45.5022" lon="6.61621">
        <ele>1956.42</ele>
        <time>2015-03-15T11:24:50Z</time>
      </trkpt>
      <trkpt lat="45.50224" lon="6.61618">
        <ele>1955.46</ele>
        <time>2015-03-15T11:24:52Z</time>
      </trkpt>
      <trkpt lat="45.50228" lon="6.61614">
        <ele>1954.02</ele>
        <time>2015-03-15T11:24:53Z</time>
      </trkpt>
      <trkpt lat="45.50236" lon="6.61604">
        <ele>1951.13</ele>
        <time>2015-03-15T11:24:55Z</time>
      </trkpt>
      <trkpt lat="45.50241" lon="6.61601">
        <ele>1950.17</ele>
        <time>2015-03-15T11:24:56Z</time>
      </trkpt>
      <trkpt lat="45.50246" lon="6.61601">
        <ele>1948.25</ele>
        <time>2015-03-15T11:24:57Z</time>
      </trkpt>
      <trkpt lat="45.50251" lon="6.61601">
        <ele>1946.81</ele>
        <time>2015-03-15T11:24:58Z</time>
      </trkpt>
      <trkpt lat="45.50255" lon="6.61603">
        <ele>1946.81</ele>
        <time>2015-03-15T11:24:59Z</time>
      </trkpt>
      <trkpt lat="45.50265" lon="6.61606">
        <ele>1945.85</ele>
        <time>2015-03-15T11:25:01Z</time>
      </trkpt>
      <trkpt lat="45.50269" lon="6.61608">
        <ele>1944.88</ele>
        <time>2015-03-15T11:25:02Z</time>
      </trkpt>
      <trkpt lat="45.50273" lon="6.6161">
        <ele>1943.44</ele>
        <time>2015-03-15T11:25:03Z</time>
      </trkpt>
      <trkpt lat="45.50278" lon="6.6161">
        <ele>1943.44</ele>
        <time>2015-03-15T11:25:04Z</time>
      </trkpt>
      <trkpt lat="45.50282" lon="6.6161">
        <ele>1943.44</ele>
        <time>2015-03-15T11:25:05Z</time>
      </trkpt>
      <trkpt lat="45.50287" lon="6.61609">
        <ele>1942</ele>
        <time>2015-03-15T11:25:06Z</time>
      </trkpt>
      <trkpt lat="45.50293" lon="6.6161">
        <ele>1942</ele>
        <time>2015-03-15T11:25:07Z</time>
      </trkpt>
      <trkpt lat="45.50298" lon="6.61612">
        <ele>1941.52</ele>
        <time>2015-03-15T11:25:08Z</time>
      </trkpt>
      <trkpt lat="45.50303" lon="6.61616">
        <ele>1941.52</ele>
        <time>2015-03-15T11:25:09Z</time>
      </trkpt>
      <trkpt lat="45.50308" lon="6.61621">
        <ele>1940.56</ele>
        <time>2015-03-15T11:25:10Z</time>
      </trkpt>
      <trkpt lat="45.50313" lon="6.61624">
        <ele>1940.08</ele>
        <time>2015-03-15T11:25:11Z</time>
      </trkpt>
      <trkpt lat="45.50318" lon="6.61624">
        <ele>1939.12</ele>
        <time>2015-03-15T11:25:12Z</time>
      </trkpt>
      <trkpt lat="45.50324" lon="6.61622">
        <ele>1939.12</ele>
        <time>2015-03-15T11:25:13Z</time>
      </trkpt>
      <trkpt lat="45.50329" lon="6.61619">
        <ele>1937.19</ele>
        <time>2015-03-15T11:25:14Z</time>
      </trkpt>
      <trkpt lat="45.50335" lon="6.61614">
        <ele>1938.64</ele>
        <time>2015-03-15T11:25:15Z</time>
      </trkpt>
      <trkpt lat="45.5034" lon="6.61608">
        <ele>1938.64</ele>
        <time>2015-03-15T11:25:16Z</time>
      </trkpt>
      <trkpt lat="45.50345" lon="6.61602">
        <ele>1935.75</ele>
        <time>2015-03-15T11:25:17Z</time>
      </trkpt>
      <trkpt lat="45.50349" lon="6.61596">
        <ele>1935.27</ele>
        <time>2015-03-15T11:25:18Z</time>
      </trkpt>
      <trkpt lat="45.50352" lon="6.61588">
        <ele>1934.79</ele>
        <time>2015-03-15T11:25:19Z</time>
      </trkpt>
      <trkpt lat="45.50354" lon="6.6158">
        <ele>1934.79</ele>
        <time>2015-03-15T11:25:20Z</time>
      </trkpt>
      <trkpt lat="45.50355" lon="6.61572">
        <ele>1934.79</ele>
        <time>2015-03-15T11:25:21Z</time>
      </trkpt>
      <trkpt lat="45.5036" lon="6.61552">
        <ele>1933.35</ele>
        <time>2015-03-15T11:25:24Z</time>
      </trkpt>
      <trkpt lat="45.50362" lon="6.61544">
        <ele>1935.75</ele>
        <time>2015-03-15T11:25:26Z</time>
      </trkpt>
      <trkpt lat="45.5037" lon="6.61517">
        <ele>1936.23</ele>
        <time>2015-03-15T11:25:37Z</time>
      </trkpt>
      <trkpt lat="45.50372" lon="6.61513">
        <ele>1936.23</ele>
        <time>2015-03-15T11:25:38Z</time>
      </trkpt>
      <trkpt lat="45.50389" lon="6.61492">
        <ele>1931.43</ele>
        <time>2015-03-15T11:25:42Z</time>
      </trkpt>
      <trkpt lat="45.50394" lon="6.61486">
        <ele>1931.43</ele>
        <time>2015-03-15T11:25:43Z</time>
      </trkpt>
      <trkpt lat="45.50401" lon="6.61464">
        <ele>1932.87</ele>
        <time>2015-03-15T11:25:48Z</time>
      </trkpt>
      <trkpt lat="45.50405" lon="6.61457">
        <ele>1932.87</ele>
        <time>2015-03-15T11:25:50Z</time>
      </trkpt>
      <trkpt lat="45.50408" lon="6.61455">
        <ele>1930.95</ele>
        <time>2015-03-15T11:25:52Z</time>
      </trkpt>
      <trkpt lat="45.5041" lon="6.61455">
        <ele>1930.95</ele>
        <time>2015-03-15T11:25:59Z</time>
      </trkpt>
      <trkpt lat="45.50414" lon="6.61452">
        <ele>1929.5</ele>
        <time>2015-03-15T11:26:02Z</time>
      </trkpt>
      <trkpt lat="45.50417" lon="6.61451">
        <ele>1928.06</ele>
        <time>2015-03-15T11:26:03Z</time>
      </trkpt>
      <trkpt lat="45.50419" lon="6.61451">
        <ele>1928.06</ele>
        <time>2015-03-15T11:26:04Z</time>
      </trkpt>
      <trkpt lat="45.50423" lon="6.6145">
        <ele>1926.62</ele>
        <time>2015-03-15T11:26:09Z</time>
      </trkpt>
      <trkpt lat="45.50424" lon="6.61444">
        <ele>1924.7</ele>
        <time>2015-03-15T11:26:11Z</time>
      </trkpt>
      <trkpt lat="45.50423" lon="6.61442">
        <ele>1922.77</ele>
        <time>2015-03-15T11:26:12Z</time>
      </trkpt>
      <trkpt lat="45.50422" lon="6.6144">
        <ele>1922.29</ele>
        <time>2015-03-15T11:26:13Z</time>
      </trkpt>
      <trkpt lat="45.50421" lon="6.61438">
        <ele>1921.81</ele>
        <time>2015-03-15T11:26:14Z</time>
      </trkpt>
      <trkpt lat="45.50417" lon="6.61432">
        <ele>1918.45</ele>
        <time>2015-03-15T11:26:18Z</time>
      </trkpt>
      <trkpt lat="45.50402" lon="6.61403">
        <ele>1915.56</ele>
        <time>2015-03-15T11:26:27Z</time>
      </trkpt>
      <trkpt lat="45.504" lon="6.61398">
        <ele>1915.56</ele>
        <time>2015-03-15T11:26:28Z</time>
      </trkpt>
      <trkpt lat="45.50397" lon="6.61392">
        <ele>1914.6</ele>
        <time>2015-03-15T11:26:29Z</time>
      </trkpt>
      <trkpt lat="45.504" lon="6.61373">
        <ele>1907.87</ele>
        <time>2015-03-15T11:26:33Z</time>
      </trkpt>
      <trkpt lat="45.50405" lon="6.61375">
        <ele>1906.43</ele>
        <time>2015-03-15T11:26:34Z</time>
      </trkpt>
      <trkpt lat="45.50428" lon="6.61387">
        <ele>1901.63</ele>
        <time>2015-03-15T11:26:38Z</time>
      </trkpt>
      <trkpt lat="45.5046" lon="6.61407">
        <ele>1897.3</ele>
        <time>2015-03-15T11:26:43Z</time>
      </trkpt>
      <trkpt lat="45.50467" lon="6.61408">
        <ele>1896.34</ele>
        <time>2015-03-15T11:26:44Z</time>
      </trkpt>
      <trkpt lat="45.50472" lon="6.61401">
        <ele>1894.9</ele>
        <time>2015-03-15T11:26:46Z</time>
      </trkpt>
      <trkpt lat="45.50475" lon="6.61391">
        <ele>1893.93</ele>
        <time>2015-03-15T11:26:48Z</time>
      </trkpt>
      <trkpt lat="45.50478" lon="6.61389">
        <ele>1892.01</ele>
        <time>2015-03-15T11:26:49Z</time>
      </trkpt>
      <trkpt lat="45.50482" lon="6.61389">
        <ele>1890.57</ele>
        <time>2015-03-15T11:26:50Z</time>
      </trkpt>
      <trkpt lat="45.50491" lon="6.61389">
        <ele>1888.17</ele>
        <time>2015-03-15T11:26:52Z</time>
      </trkpt>
      <trkpt lat="45.50497" lon="6.61383">
        <ele>1886.72</ele>
        <time>2015-03-15T11:26:54Z</time>
      </trkpt>
      <trkpt lat="45.50494" lon="6.61374">
        <ele>1885.76</ele>
        <time>2015-03-15T11:26:56Z</time>
      </trkpt>
      <trkpt lat="45.50491" lon="6.61352">
        <ele>1880.48</ele>
        <time>2015-03-15T11:26:59Z</time>
      </trkpt>
      <trkpt lat="45.50494" lon="6.61349">
        <ele>1880.96</ele>
        <time>2015-03-15T11:27:00Z</time>
      </trkpt>
      <trkpt lat="45.50505" lon="6.6134">
        <ele>1878.07</ele>
        <time>2015-03-15T11:27:05Z</time>
      </trkpt>
      <trkpt lat="45.50513" lon="6.61333">
        <ele>1875.19</ele>
        <time>2015-03-15T11:27:09Z</time>
      </trkpt>
      <trkpt lat="45.50527" lon="6.61323">
        <ele>1869.9</ele>
        <time>2015-03-15T11:27:13Z</time>
      </trkpt>
      <trkpt lat="45.50532" lon="6.6132">
        <ele>1870.38</ele>
        <time>2015-03-15T11:27:14Z</time>
      </trkpt>
      <trkpt lat="45.5055" lon="6.61314">
        <ele>1866.54</ele>
        <time>2015-03-15T11:27:17Z</time>
      </trkpt>
      <trkpt lat="45.50556" lon="6.61311">
        <ele>1866.54</ele>
        <time>2015-03-15T11:27:18Z</time>
      </trkpt>
      <trkpt lat="45.50561" lon="6.61309">
        <ele>1865.09</ele>
        <time>2015-03-15T11:27:19Z</time>
      </trkpt>
      <trkpt lat="45.50568" lon="6.61304">
        <ele>1867.98</ele>
        <time>2015-03-15T11:27:22Z</time>
      </trkpt>
      <trkpt lat="45.50566" lon="6.6131">
        <ele>1865.09</ele>
        <time>2015-03-15T11:27:39Z</time>
      </trkpt>
      <trkpt lat="45.50567" lon="6.61312">
        <ele>1872.79</ele>
        <time>2015-03-15T11:27:40Z</time>
      </trkpt>
      <trkpt lat="45.50567" lon="6.61314">
        <ele>1868.94</ele>
        <time>2015-03-15T11:27:41Z</time>
      </trkpt>
      <trkpt lat="45.5057" lon="6.61307">
        <ele>1868.46</ele>
        <time>2015-03-15T11:27:49Z</time>
      </trkpt>
      <trkpt lat="45.50578" lon="6.61304">
        <ele>1867.98</ele>
        <time>2015-03-15T11:28:02Z</time>
      </trkpt>
      <trkpt lat="45.50579" lon="6.61304">
        <ele>1867.98</ele>
        <time>2015-03-15T11:28:03Z</time>
      </trkpt>
      <trkpt lat="45.50587" lon="6.61303">
        <ele>1868.46</ele>
        <time>2015-03-15T11:28:09Z</time>
      </trkpt>
      <trkpt lat="45.50609" lon="6.61291">
        <ele>1866.06</ele>
        <time>2015-03-15T11:28:20Z</time>
      </trkpt>
      <trkpt lat="45.50618" lon="6.61281">
        <ele>1865.09</ele>
        <time>2015-03-15T11:28:32Z</time>
      </trkpt>
      <trkpt lat="45.50617" lon="6.61279">
        <ele>1865.09</ele>
        <time>2015-03-15T11:28:41Z</time>
      </trkpt>
      <trkpt lat="45.5062" lon="6.61271">
        <ele>1862.69</ele>
        <time>2015-03-15T11:28:45Z</time>
      </trkpt>
      <trkpt lat="45.50621" lon="6.61256">
        <ele>1860.77</ele>
        <time>2015-03-15T11:28:51Z</time>
      </trkpt>
      <trkpt lat="45.50629" lon="6.61243">
        <ele>1858.85</ele>
        <time>2015-03-15T11:28:56Z</time>
      </trkpt>
      <trkpt lat="45.5064" lon="6.61247">
        <ele>1854.52</ele>
        <time>2015-03-15T11:28:59Z</time>
      </trkpt>
      <trkpt lat="45.50645" lon="6.61262">
        <ele>1851.16</ele>
        <time>2015-03-15T11:29:01Z</time>
      </trkpt>
      <trkpt lat="45.50652" lon="6.61263">
        <ele>1848.27</ele>
        <time>2015-03-15T11:29:03Z</time>
      </trkpt>
      <trkpt lat="45.50656" lon="6.61259">
        <ele>1847.31</ele>
        <time>2015-03-15T11:29:04Z</time>
      </trkpt>
      <trkpt lat="45.50672" lon="6.61248">
        <ele>1843.47</ele>
        <time>2015-03-15T11:29:07Z</time>
      </trkpt>
      <trkpt lat="45.50684" lon="6.61243">
        <ele>1842.5</ele>
        <time>2015-03-15T11:29:09Z</time>
      </trkpt>
      <trkpt lat="45.50694" lon="6.61246">
        <ele>1840.58</ele>
        <time>2015-03-15T11:29:11Z</time>
      </trkpt>
      <trkpt lat="45.50695" lon="6.61261">
        <ele>1840.1</ele>
        <time>2015-03-15T11:29:16Z</time>
      </trkpt>
      <trkpt lat="45.50696" lon="6.61263">
        <ele>1841.54</ele>
        <time>2015-03-15T11:29:37Z</time>
      </trkpt>
      <trkpt lat="45.50694" lon="6.61264">
        <ele>1841.54</ele>
        <time>2015-03-15T11:29:59Z</time>
      </trkpt>
      <trkpt lat="45.50693" lon="6.61268">
        <ele>1842.02</ele>
        <time>2015-03-15T11:30:29Z</time>
      </trkpt>
      <trkpt lat="45.50693" lon="6.61279">
        <ele>1840.1</ele>
        <time>2015-03-15T11:30:33Z</time>
      </trkpt>
      <trkpt lat="45.50692" lon="6.61292">
        <ele>1838.18</ele>
        <time>2015-03-15T11:30:36Z</time>
      </trkpt>
      <trkpt lat="45.5069" lon="6.61301">
        <ele>1837.7</ele>
        <time>2015-03-15T11:30:42Z</time>
      </trkpt>
      <trkpt lat="45.50691" lon="6.61302">
        <ele>1835.77</ele>
        <time>2015-03-15T11:30:45Z</time>
      </trkpt>
      <trkpt lat="45.50693" lon="6.61304">
        <ele>1833.37</ele>
        <time>2015-03-15T11:30:49Z</time>
      </trkpt>
      <trkpt lat="45.50696" lon="6.6131">
        <ele>1830.49</ele>
        <time>2015-03-15T11:30:58Z</time>
      </trkpt>
      <trkpt lat="45.50698" lon="6.61312">
        <ele>1828.56</ele>
        <time>2015-03-15T11:31:01Z</time>
      </trkpt>
      <trkpt lat="45.50704" lon="6.61316">
        <ele>1827.6</ele>
        <time>2015-03-15T11:31:08Z</time>
      </trkpt>
      <trkpt lat="45.50708" lon="6.61319">
        <ele>1825.68</ele>
        <time>2015-03-15T11:31:12Z</time>
      </trkpt>
      <trkpt lat="45.50719" lon="6.61329">
        <ele>1822.32</ele>
        <time>2015-03-15T11:31:16Z</time>
      </trkpt>
      <trkpt lat="45.50722" lon="6.61332">
        <ele>1822.32</ele>
        <time>2015-03-15T11:31:17Z</time>
      </trkpt>
      <trkpt lat="45.50724" lon="6.61334">
        <ele>1822.32</ele>
        <time>2015-03-15T11:31:18Z</time>
      </trkpt>
      <trkpt lat="45.5073" lon="6.61344">
        <ele>1820.87</ele>
        <time>2015-03-15T11:31:23Z</time>
      </trkpt>
      <trkpt lat="45.50729" lon="6.61351">
        <ele>1817.03</ele>
        <time>2015-03-15T11:31:26Z</time>
      </trkpt>
      <trkpt lat="45.50727" lon="6.61357">
        <ele>1815.59</ele>
        <time>2015-03-15T11:31:28Z</time>
      </trkpt>
      <trkpt lat="45.50736" lon="6.6135">
        <ele>1814.15</ele>
        <time>2015-03-15T11:31:33Z</time>
      </trkpt>
      <trkpt lat="45.50748" lon="6.61336">
        <ele>1810.78</ele>
        <time>2015-03-15T11:31:42Z</time>
      </trkpt>
      <trkpt lat="45.50752" lon="6.61334">
        <ele>1810.3</ele>
        <time>2015-03-15T11:31:43Z</time>
      </trkpt>
      <trkpt lat="45.50755" lon="6.61335">
        <ele>1807.9</ele>
        <time>2015-03-15T11:31:46Z</time>
      </trkpt>
      <trkpt lat="45.50759" lon="6.61336">
        <ele>1807.42</ele>
        <time>2015-03-15T11:31:51Z</time>
      </trkpt>
      <trkpt lat="45.50757" lon="6.61347">
        <ele>1805.97</ele>
        <time>2015-03-15T11:31:54Z</time>
      </trkpt>
      <trkpt lat="45.50763" lon="6.61351">
        <ele>1804.53</ele>
        <time>2015-03-15T11:31:59Z</time>
      </trkpt>
      <trkpt lat="45.50766" lon="6.61352">
        <ele>1803.57</ele>
        <time>2015-03-15T11:32:01Z</time>
      </trkpt>
      <trkpt lat="45.50778" lon="6.61355">
        <ele>1802.13</ele>
        <time>2015-03-15T11:32:05Z</time>
      </trkpt>
      <trkpt lat="45.50786" lon="6.61355">
        <ele>1800.69</ele>
        <time>2015-03-15T11:32:10Z</time>
      </trkpt>
      <trkpt lat="45.50785" lon="6.61353">
        <ele>1799.24</ele>
        <time>2015-03-15T11:32:11Z</time>
      </trkpt>
      <trkpt lat="45.50785" lon="6.61345">
        <ele>1796.36</ele>
        <time>2015-03-15T11:32:12Z</time>
      </trkpt>
      <trkpt lat="45.50785" lon="6.6134">
        <ele>1795.88</ele>
        <time>2015-03-15T11:32:13Z</time>
      </trkpt>
      <trkpt lat="45.50785" lon="6.61334">
        <ele>1794.44</ele>
        <time>2015-03-15T11:32:14Z</time>
      </trkpt>
      <trkpt lat="45.50793" lon="6.61331">
        <ele>1797.32</ele>
        <time>2015-03-15T11:32:16Z</time>
      </trkpt>
      <trkpt lat="45.50801" lon="6.61337">
        <ele>1797.32</ele>
        <time>2015-03-15T11:32:31Z</time>
      </trkpt>
      <trkpt lat="45.508" lon="6.61342">
        <ele>1795.88</ele>
        <time>2015-03-15T11:32:38Z</time>
      </trkpt>
      <trkpt lat="45.508" lon="6.61338">
        <ele>1795.4</ele>
        <time>2015-03-15T11:33:03Z</time>
      </trkpt>
      <trkpt lat="45.50799" lon="6.61338">
        <ele>1796.84</ele>
        <time>2015-03-15T11:33:14Z</time>
      </trkpt>
      <trkpt lat="45.50802" lon="6.61341">
        <ele>1794.92</ele>
        <time>2015-03-15T11:33:33Z</time>
      </trkpt>
      <trkpt lat="45.50802" lon="6.61344">
        <ele>1794.92</ele>
        <time>2015-03-15T11:33:34Z</time>
      </trkpt>
      <trkpt lat="45.50801" lon="6.61347">
        <ele>1794.44</ele>
        <time>2015-03-15T11:33:35Z</time>
      </trkpt>
      <trkpt lat="45.50803" lon="6.61349">
        <ele>1793.48</ele>
        <time>2015-03-15T11:33:36Z</time>
      </trkpt>
      <trkpt lat="45.50806" lon="6.61351">
        <ele>1792.52</ele>
        <time>2015-03-15T11:33:37Z</time>
      </trkpt>
      <trkpt lat="45.5081" lon="6.61352">
        <ele>1792.03</ele>
        <time>2015-03-15T11:33:38Z</time>
      </trkpt>
      <trkpt lat="45.50815" lon="6.61355">
        <ele>1790.59</ele>
        <time>2015-03-15T11:33:39Z</time>
      </trkpt>
      <trkpt lat="45.50824" lon="6.61362">
        <ele>1788.19</ele>
        <time>2015-03-15T11:33:41Z</time>
      </trkpt>
      <trkpt lat="45.50829" lon="6.61367">
        <ele>1785.79</ele>
        <time>2015-03-15T11:33:42Z</time>
      </trkpt>
      <trkpt lat="45.50834" lon="6.61373">
        <ele>1783.86</ele>
        <time>2015-03-15T11:33:43Z</time>
      </trkpt>
      <trkpt lat="45.50845" lon="6.61385">
        <ele>1782.42</ele>
        <time>2015-03-15T11:33:45Z</time>
      </trkpt>
      <trkpt lat="45.50851" lon="6.6139">
        <ele>1783.86</ele>
        <time>2015-03-15T11:33:46Z</time>
      </trkpt>
      <trkpt lat="45.50857" lon="6.61394">
        <ele>1784.82</ele>
        <time>2015-03-15T11:33:47Z</time>
      </trkpt>
      <trkpt lat="45.50862" lon="6.61396">
        <ele>1784.82</ele>
        <time>2015-03-15T11:33:48Z</time>
      </trkpt>
      <trkpt lat="45.50867" lon="6.614">
        <ele>1784.82</ele>
        <time>2015-03-15T11:33:49Z</time>
      </trkpt>
      <trkpt lat="45.50871" lon="6.61405">
        <ele>1784.82</ele>
        <time>2015-03-15T11:33:50Z</time>
      </trkpt>
      <trkpt lat="45.50875" lon="6.61412">
        <ele>1782.9</ele>
        <time>2015-03-15T11:33:51Z</time>
      </trkpt>
      <trkpt lat="45.5089" lon="6.61435">
        <ele>1779.06</ele>
        <time>2015-03-15T11:33:54Z</time>
      </trkpt>
      <trkpt lat="45.50898" lon="6.61448">
        <ele>1778.58</ele>
        <time>2015-03-15T11:33:56Z</time>
      </trkpt>
      <trkpt lat="45.50901" lon="6.61453">
        <ele>1777.13</ele>
        <time>2015-03-15T11:33:57Z</time>
      </trkpt>
      <trkpt lat="45.50904" lon="6.61464">
        <ele>1775.21</ele>
        <time>2015-03-15T11:33:59Z</time>
      </trkpt>
      <trkpt lat="45.50907" lon="6.61471">
        <ele>1774.25</ele>
        <time>2015-03-15T11:34:00Z</time>
      </trkpt>
      <trkpt lat="45.5091" lon="6.61477">
        <ele>1773.77</ele>
        <time>2015-03-15T11:34:01Z</time>
      </trkpt>
      <trkpt lat="45.50914" lon="6.61483">
        <ele>1772.81</ele>
        <time>2015-03-15T11:34:02Z</time>
      </trkpt>
      <trkpt lat="45.50916" lon="6.61489">
        <ele>1771.85</ele>
        <time>2015-03-15T11:34:03Z</time>
      </trkpt>
      <trkpt lat="45.50919" lon="6.61496">
        <ele>1770.89</ele>
        <time>2015-03-15T11:34:04Z</time>
      </trkpt>
      <trkpt lat="45.5092" lon="6.61503">
        <ele>1770.89</ele>
        <time>2015-03-15T11:34:05Z</time>
      </trkpt>
      <trkpt lat="45.50922" lon="6.61509">
        <ele>1770.41</ele>
        <time>2015-03-15T11:34:06Z</time>
      </trkpt>
      <trkpt lat="45.50927" lon="6.61513">
        <ele>1769.92</ele>
        <time>2015-03-15T11:34:07Z</time>
      </trkpt>
      <trkpt lat="45.50932" lon="6.61518">
        <ele>1768.96</ele>
        <time>2015-03-15T11:34:08Z</time>
      </trkpt>
      <trkpt lat="45.50937" lon="6.61523">
        <ele>1768</ele>
        <time>2015-03-15T11:34:09Z</time>
      </trkpt>
      <trkpt lat="45.50943" lon="6.61528">
        <ele>1766.56</ele>
        <time>2015-03-15T11:34:10Z</time>
      </trkpt>
      <trkpt lat="45.50963" lon="6.61542">
        <ele>1763.68</ele>
        <time>2015-03-15T11:34:13Z</time>
      </trkpt>
      <trkpt lat="45.5097" lon="6.61548">
        <ele>1762.23</ele>
        <time>2015-03-15T11:34:14Z</time>
      </trkpt>
      <trkpt lat="45.51015" lon="6.61587">
        <ele>1759.35</ele>
        <time>2015-03-15T11:34:20Z</time>
      </trkpt>
      <trkpt lat="45.51023" lon="6.61593">
        <ele>1759.35</ele>
        <time>2015-03-15T11:34:21Z</time>
      </trkpt>
      <trkpt lat="45.51042" lon="6.61611">
        <ele>1755.99</ele>
        <time>2015-03-15T11:34:24Z</time>
      </trkpt>
      <trkpt lat="45.51055" lon="6.61624">
        <ele>1755.02</ele>
        <time>2015-03-15T11:34:26Z</time>
      </trkpt>
      <trkpt lat="45.51082" lon="6.6165">
        <ele>1751.18</ele>
        <time>2015-03-15T11:34:30Z</time>
      </trkpt>
      <trkpt lat="45.51104" lon="6.61669">
        <ele>1747.33</ele>
        <time>2015-03-15T11:34:33Z</time>
      </trkpt>
      <trkpt lat="45.51124" lon="6.61692">
        <ele>1742.53</ele>
        <time>2015-03-15T11:34:36Z</time>
      </trkpt>
      <trkpt lat="45.5113" lon="6.61699">
        <ele>1743.97</ele>
        <time>2015-03-15T11:34:37Z</time>
      </trkpt>
      <trkpt lat="45.51135" lon="6.61703">
        <ele>1745.41</ele>
        <time>2015-03-15T11:34:38Z</time>
      </trkpt>
      <trkpt lat="45.51135" lon="6.61703">
        <ele>1745.89</ele>
        <time>2015-03-15T11:34:39Z</time>
      </trkpt>
      <trkpt lat="45.51129" lon="6.61703">
        <ele>1745.89</ele>
        <time>2015-03-15T11:34:40Z</time>
      </trkpt>
      <trkpt lat="45.51131" lon="6.61701">
        <ele>1745.89</ele>
        <time>2015-03-15T11:34:41Z</time>
      </trkpt>
      <trkpt lat="45.51124" lon="6.61698">
        <ele>1745.89</ele>
        <time>2015-03-15T11:34:42Z</time>
      </trkpt>
      <trkpt lat="45.51122" lon="6.61694">
        <ele>1744.45</ele>
        <time>2015-03-15T11:34:43Z</time>
      </trkpt>
      <trkpt lat="45.51117" lon="6.61688">
        <ele>1743.97</ele>
        <time>2015-03-15T11:34:44Z</time>
      </trkpt>
      <trkpt lat="45.51112" lon="6.61683">
        <ele>1743.97</ele>
        <time>2015-03-15T11:34:45Z</time>
      </trkpt>
      <trkpt lat="45.51102" lon="6.61663">
        <ele>1741.08</ele>
        <time>2015-03-15T11:34:48Z</time>
      </trkpt>
      <trkpt lat="45.51088" lon="6.61629">
        <ele>1737.72</ele>
        <time>2015-03-15T11:34:52Z</time>
      </trkpt>
      <trkpt lat="45.51066" lon="6.61585">
        <ele>1735.32</ele>
        <time>2015-03-15T11:34:57Z</time>
      </trkpt>
      <trkpt lat="45.51062" lon="6.61576">
        <ele>1733.39</ele>
        <time>2015-03-15T11:34:58Z</time>
      </trkpt>
      <trkpt lat="45.51059" lon="6.61568">
        <ele>1733.39</ele>
        <time>2015-03-15T11:34:59Z</time>
      </trkpt>
      <trkpt lat="45.51055" lon="6.61562">
        <ele>1733.39</ele>
        <time>2015-03-15T11:35:00Z</time>
      </trkpt>
      <trkpt lat="45.51051" lon="6.61558">
        <ele>1733.39</ele>
        <time>2015-03-15T11:35:01Z</time>
      </trkpt>
      <trkpt lat="45.51047" lon="6.61557">
        <ele>1732.43</ele>
        <time>2015-03-15T11:35:02Z</time>
      </trkpt>
      <trkpt lat="45.51046" lon="6.6156">
        <ele>1731.47</ele>
        <time>2015-03-15T11:35:03Z</time>
      </trkpt>
      <trkpt lat="45.51043" lon="6.6157">
        <ele>1729.07</ele>
        <time>2015-03-15T11:35:05Z</time>
      </trkpt>
      <trkpt lat="45.51043" lon="6.616">
        <ele>1726.18</ele>
        <time>2015-03-15T11:35:09Z</time>
      </trkpt>
      <trkpt lat="45.51052" lon="6.61644">
        <ele>1719.94</ele>
        <time>2015-03-15T11:35:14Z</time>
      </trkpt>
      <trkpt lat="45.51066" lon="6.61696">
        <ele>1716.57</ele>
        <time>2015-03-15T11:35:19Z</time>
      </trkpt>
      <trkpt lat="45.51075" lon="6.61742">
        <ele>1713.21</ele>
        <time>2015-03-15T11:35:23Z</time>
      </trkpt>
      <trkpt lat="45.51079" lon="6.61768">
        <ele>1710.8</ele>
        <time>2015-03-15T11:35:26Z</time>
      </trkpt>
      <trkpt lat="45.51084" lon="6.61808">
        <ele>1706</ele>
        <time>2015-03-15T11:35:31Z</time>
      </trkpt>
      <trkpt lat="45.51099" lon="6.61833">
        <ele>1705.04</ele>
        <time>2015-03-15T11:35:32Z</time>
      </trkpt>
      <trkpt lat="45.5112" lon="6.6187">
        <ele>1700.71</ele>
        <time>2015-03-15T11:35:35Z</time>
      </trkpt>
      <trkpt lat="45.51126" lon="6.61882">
        <ele>1700.71</ele>
        <time>2015-03-15T11:35:36Z</time>
      </trkpt>
      <trkpt lat="45.51156" lon="6.6191">
        <ele>1696.86</ele>
        <time>2015-03-15T11:35:39Z</time>
      </trkpt>
      <trkpt lat="45.51165" lon="6.61922">
        <ele>1695.9</ele>
        <time>2015-03-15T11:35:40Z</time>
      </trkpt>
      <trkpt lat="45.51218" lon="6.61971">
        <ele>1692.06</ele>
        <time>2015-03-15T11:35:46Z</time>
      </trkpt>
      <trkpt lat="45.51226" lon="6.6198">
        <ele>1692.06</ele>
        <time>2015-03-15T11:35:47Z</time>
      </trkpt>
      <trkpt lat="45.51244" lon="6.61998">
        <ele>1688.69</ele>
        <time>2015-03-15T11:35:49Z</time>
      </trkpt>
      <trkpt lat="45.51261" lon="6.62014">
        <ele>1685.81</ele>
        <time>2015-03-15T11:35:51Z</time>
      </trkpt>
      <trkpt lat="45.51278" lon="6.62031">
        <ele>1684.37</ele>
        <time>2015-03-15T11:35:53Z</time>
      </trkpt>
      <trkpt lat="45.51304" lon="6.6207">
        <ele>1681</ele>
        <time>2015-03-15T11:35:57Z</time>
      </trkpt>
      <trkpt lat="45.51307" lon="6.62079">
        <ele>1681</ele>
        <time>2015-03-15T11:35:58Z</time>
      </trkpt>
      <trkpt lat="45.5131" lon="6.62094">
        <ele>1679.56</ele>
        <time>2015-03-15T11:36:00Z</time>
      </trkpt>
      <trkpt lat="45.51302" lon="6.62134">
        <ele>1675.72</ele>
        <time>2015-03-15T11:36:04Z</time>
      </trkpt>
      <trkpt lat="45.51302" lon="6.62149">
        <ele>1672.83</ele>
        <time>2015-03-15T11:36:06Z</time>
      </trkpt>
      <trkpt lat="45.51304" lon="6.62169">
        <ele>1669.47</ele>
        <time>2015-03-15T11:36:09Z</time>
      </trkpt>
      <trkpt lat="45.51325" lon="6.62187">
        <ele>1666.58</ele>
        <time>2015-03-15T11:36:14Z</time>
      </trkpt>
      <trkpt lat="45.51324" lon="6.62203">
        <ele>1666.1</ele>
        <time>2015-03-15T11:36:17Z</time>
      </trkpt>
      <trkpt lat="45.51326" lon="6.62216">
        <ele>1665.14</ele>
        <time>2015-03-15T11:36:20Z</time>
      </trkpt>
      <trkpt lat="45.51329" lon="6.62222">
        <ele>1664.18</ele>
        <time>2015-03-15T11:36:22Z</time>
      </trkpt>
      <trkpt lat="45.51334" lon="6.62233">
        <ele>1663.22</ele>
        <time>2015-03-15T11:36:23Z</time>
      </trkpt>
      <trkpt lat="45.51351" lon="6.62212">
        <ele>1661.78</ele>
        <time>2015-03-15T11:36:26Z</time>
      </trkpt>
      <trkpt lat="45.51353" lon="6.62202">
        <ele>1660.33</ele>
        <time>2015-03-15T11:36:27Z</time>
      </trkpt>
      <trkpt lat="45.51359" lon="6.62178">
        <ele>1657.93</ele>
        <time>2015-03-15T11:36:29Z</time>
      </trkpt>
      <trkpt lat="45.51368" lon="6.62134">
        <ele>1654.57</ele>
        <time>2015-03-15T11:36:33Z</time>
      </trkpt>
      <trkpt lat="45.51373" lon="6.62096">
        <ele>1651.68</ele>
        <time>2015-03-15T11:36:36Z</time>
      </trkpt>
      <trkpt lat="45.51376" lon="6.62073">
        <ele>1649.76</ele>
        <time>2015-03-15T11:36:38Z</time>
      </trkpt>
      <trkpt lat="45.51381" lon="6.62047">
        <ele>1651.2</ele>
        <time>2015-03-15T11:36:41Z</time>
      </trkpt>
      <trkpt lat="45.51392" lon="6.62001">
        <ele>1649.28</ele>
        <time>2015-03-15T11:36:46Z</time>
      </trkpt>
      <trkpt lat="45.51393" lon="6.61992">
        <ele>1647.84</ele>
        <time>2015-03-15T11:36:47Z</time>
      </trkpt>
      <trkpt lat="45.51393" lon="6.61986">
        <ele>1647.36</ele>
        <time>2015-03-15T11:36:48Z</time>
      </trkpt>
      <trkpt lat="45.51404" lon="6.61941">
        <ele>1643.99</ele>
        <time>2015-03-15T11:36:52Z</time>
      </trkpt>
      <trkpt lat="45.51409" lon="6.61896">
        <ele>1641.11</ele>
        <time>2015-03-15T11:36:56Z</time>
      </trkpt>
      <trkpt lat="45.5141" lon="6.61883">
        <ele>1640.15</ele>
        <time>2015-03-15T11:36:57Z</time>
      </trkpt>
      <trkpt lat="45.51413" lon="6.61857">
        <ele>1640.15</ele>
        <time>2015-03-15T11:37:00Z</time>
      </trkpt>
      <trkpt lat="45.51416" lon="6.61749">
        <ele>1637.74</ele>
        <time>2015-03-15T11:37:13Z</time>
      </trkpt>
      <trkpt lat="45.51411" lon="6.61717">
        <ele>1635.82</ele>
        <time>2015-03-15T11:37:17Z</time>
      </trkpt>
      <trkpt lat="45.51409" lon="6.61708">
        <ele>1635.34</ele>
        <time>2015-03-15T11:37:18Z</time>
      </trkpt>
      <trkpt lat="45.51406" lon="6.6169">
        <ele>1633.9</ele>
        <time>2015-03-15T11:37:20Z</time>
      </trkpt>
      <trkpt lat="45.51403" lon="6.61652">
        <ele>1631.01</ele>
        <time>2015-03-15T11:37:24Z</time>
      </trkpt>
      <trkpt lat="45.51398" lon="6.61619">
        <ele>1627.65</ele>
        <time>2015-03-15T11:37:27Z</time>
      </trkpt>
      <trkpt lat="45.51393" lon="6.61585">
        <ele>1624.77</ele>
        <time>2015-03-15T11:37:30Z</time>
      </trkpt>
      <trkpt lat="45.51391" lon="6.61564">
        <ele>1623.8</ele>
        <time>2015-03-15T11:37:32Z</time>
      </trkpt>
      <trkpt lat="45.51386" lon="6.61531">
        <ele>1621.4</ele>
        <time>2015-03-15T11:37:35Z</time>
      </trkpt>
      <trkpt lat="45.51382" lon="6.61512">
        <ele>1621.4</ele>
        <time>2015-03-15T11:37:37Z</time>
      </trkpt>
      <trkpt lat="45.51379" lon="6.61505">
        <ele>1619.96</ele>
        <time>2015-03-15T11:37:38Z</time>
      </trkpt>
      <trkpt lat="45.51368" lon="6.61482">
        <ele>1618.52</ele>
        <time>2015-03-15T11:37:41Z</time>
      </trkpt>
      <trkpt lat="45.51362" lon="6.61475">
        <ele>1617.56</ele>
        <time>2015-03-15T11:37:42Z</time>
      </trkpt>
      <trkpt lat="45.51357" lon="6.61472">
        <ele>1616.11</ele>
        <time>2015-03-15T11:37:43Z</time>
      </trkpt>
      <trkpt lat="45.51352" lon="6.61477">
        <ele>1614.67</ele>
        <time>2015-03-15T11:37:45Z</time>
      </trkpt>
      <trkpt lat="45.51353" lon="6.61483">
        <ele>1613.71</ele>
        <time>2015-03-15T11:37:46Z</time>
      </trkpt>
      <trkpt lat="45.51354" lon="6.61489">
        <ele>1613.23</ele>
        <time>2015-03-15T11:37:47Z</time>
      </trkpt>
      <trkpt lat="45.51355" lon="6.61503">
        <ele>1610.83</ele>
        <time>2015-03-15T11:37:49Z</time>
      </trkpt>
      <trkpt lat="45.5136" lon="6.61534">
        <ele>1606.98</ele>
        <time>2015-03-15T11:37:52Z</time>
      </trkpt>
      <trkpt lat="45.51365" lon="6.61556">
        <ele>1604.58</ele>
        <time>2015-03-15T11:37:54Z</time>
      </trkpt>
      <trkpt lat="45.5137" lon="6.61568">
        <ele>1603.62</ele>
        <time>2015-03-15T11:37:55Z</time>
      </trkpt>
      <trkpt lat="45.51375" lon="6.61579">
        <ele>1603.62</ele>
        <time>2015-03-15T11:37:56Z</time>
      </trkpt>
      <trkpt lat="45.51381" lon="6.6159">
        <ele>1602.17</ele>
        <time>2015-03-15T11:37:57Z</time>
      </trkpt>
      <trkpt lat="45.51388" lon="6.61601">
        <ele>1601.21</ele>
        <time>2015-03-15T11:37:58Z</time>
      </trkpt>
      <trkpt lat="45.51396" lon="6.61613">
        <ele>1599.77</ele>
        <time>2015-03-15T11:37:59Z</time>
      </trkpt>
      <trkpt lat="45.51405" lon="6.61625">
        <ele>1598.33</ele>
        <time>2015-03-15T11:38:00Z</time>
      </trkpt>
      <trkpt lat="45.51414" lon="6.61636">
        <ele>1596.89</ele>
        <time>2015-03-15T11:38:01Z</time>
      </trkpt>
      <trkpt lat="45.51447" lon="6.61682">
        <ele>1593.04</ele>
        <time>2015-03-15T11:38:05Z</time>
      </trkpt>
      <trkpt lat="45.51469" lon="6.61719">
        <ele>1593.04</ele>
        <time>2015-03-15T11:38:09Z</time>
      </trkpt>
      <trkpt lat="45.51477" lon="6.61724">
        <ele>1593.04</ele>
        <time>2015-03-15T11:38:10Z</time>
      </trkpt>
      <trkpt lat="45.51483" lon="6.61729">
        <ele>1593.04</ele>
        <time>2015-03-15T11:38:11Z</time>
      </trkpt>
      <trkpt lat="45.51509" lon="6.61703">
        <ele>1589.68</ele>
        <time>2015-03-15T11:38:14Z</time>
      </trkpt>
      <trkpt lat="45.51517" lon="6.61683">
        <ele>1588.72</ele>
        <time>2015-03-15T11:38:15Z</time>
      </trkpt>
      <trkpt lat="45.5152" lon="6.61669">
        <ele>1587.27</ele>
        <time>2015-03-15T11:38:16Z</time>
      </trkpt>
      <trkpt lat="45.51521" lon="6.61655">
        <ele>1586.31</ele>
        <time>2015-03-15T11:38:17Z</time>
      </trkpt>
      <trkpt lat="45.5152" lon="6.61642">
        <ele>1585.35</ele>
        <time>2015-03-15T11:38:18Z</time>
      </trkpt>
      <trkpt lat="45.51515" lon="6.61601">
        <ele>1581.51</ele>
        <time>2015-03-15T11:38:21Z</time>
      </trkpt>
      <trkpt lat="45.51509" lon="6.6156">
        <ele>1579.1</ele>
        <time>2015-03-15T11:38:24Z</time>
      </trkpt>
      <trkpt lat="45.51504" lon="6.61534">
        <ele>1575.74</ele>
        <time>2015-03-15T11:38:26Z</time>
      </trkpt>
      <trkpt lat="45.51499" lon="6.61507">
        <ele>1574.3</ele>
        <time>2015-03-15T11:38:28Z</time>
      </trkpt>
      <trkpt lat="45.51497" lon="6.61492">
        <ele>1572.85</ele>
        <time>2015-03-15T11:38:29Z</time>
      </trkpt>
      <trkpt lat="45.51496" lon="6.61477">
        <ele>1572.85</ele>
        <time>2015-03-15T11:38:30Z</time>
      </trkpt>
      <trkpt lat="45.51496" lon="6.61461">
        <ele>1570.45</ele>
        <time>2015-03-15T11:38:31Z</time>
      </trkpt>
      <trkpt lat="45.51497" lon="6.61446">
        <ele>1569.49</ele>
        <time>2015-03-15T11:38:32Z</time>
      </trkpt>
      <trkpt lat="45.51499" lon="6.6143">
        <ele>1568.53</ele>
        <time>2015-03-15T11:38:33Z</time>
      </trkpt>
      <trkpt lat="45.51502" lon="6.61415">
        <ele>1565.16</ele>
        <time>2015-03-15T11:38:34Z</time>
      </trkpt>
      <trkpt lat="45.5152" lon="6.61347">
        <ele>1562.76</ele>
        <time>2015-03-15T11:38:39Z</time>
      </trkpt>
      <trkpt lat="45.51529" lon="6.61312">
        <ele>1565.16</ele>
        <time>2015-03-15T11:38:42Z</time>
      </trkpt>
      <trkpt lat="45.51533" lon="6.61304">
        <ele>1565.64</ele>
        <time>2015-03-15T11:38:43Z</time>
      </trkpt>
      <trkpt lat="45.51537" lon="6.61299">
        <ele>1566.61</ele>
        <time>2015-03-15T11:38:44Z</time>
      </trkpt>
      <trkpt lat="45.51539" lon="6.61295">
        <ele>1567.09</ele>
        <time>2015-03-15T11:38:45Z</time>
      </trkpt>
      <trkpt lat="45.51543" lon="6.61286">
        <ele>1568.05</ele>
        <time>2015-03-15T11:38:47Z</time>
      </trkpt>
      <trkpt lat="45.51547" lon="6.61278">
        <ele>1569.01</ele>
        <time>2015-03-15T11:38:49Z</time>
      </trkpt>
      <trkpt lat="45.5156" lon="6.61256">
        <ele>1569.49</ele>
        <time>2015-03-15T11:38:54Z</time>
      </trkpt>
      <trkpt lat="45.51561" lon="6.61252">
        <ele>1569.49</ele>
        <time>2015-03-15T11:38:55Z</time>
      </trkpt>
      <trkpt lat="45.51558" lon="6.61227">
        <ele>1568.05</ele>
        <time>2015-03-15T11:39:00Z</time>
      </trkpt>
      <trkpt lat="45.51534" lon="6.61182">
        <ele>1565.16</ele>
        <time>2015-03-15T11:39:08Z</time>
      </trkpt>
      <trkpt lat="45.51514" lon="6.6115">
        <ele>1563.72</ele>
        <time>2015-03-15T11:39:14Z</time>
      </trkpt>
      <trkpt lat="45.5151" lon="6.61145">
        <ele>1562.76</ele>
        <time>2015-03-15T11:39:15Z</time>
      </trkpt>
      <trkpt lat="45.51494" lon="6.61121">
        <ele>1561.32</ele>
        <time>2015-03-15T11:39:19Z</time>
      </trkpt>
      <trkpt lat="45.5149" lon="6.61115">
        <ele>1561.32</ele>
        <time>2015-03-15T11:39:20Z</time>
      </trkpt>
      <trkpt lat="45.51486" lon="6.61109">
        <ele>1560.84</ele>
        <time>2015-03-15T11:39:21Z</time>
      </trkpt>
      <trkpt lat="45.51482" lon="6.61103">
        <ele>1560.36</ele>
        <time>2015-03-15T11:39:22Z</time>
      </trkpt>
      <trkpt lat="45.51479" lon="6.61097">
        <ele>1559.88</ele>
        <time>2015-03-15T11:39:23Z</time>
      </trkpt>
      <trkpt lat="45.51459" lon="6.61062">
        <ele>1557.95</ele>
        <time>2015-03-15T11:39:29Z</time>
      </trkpt>
      <trkpt lat="45.51453" lon="6.61046">
        <ele>1556.99</ele>
        <time>2015-03-15T11:39:31Z</time>
      </trkpt>
      <trkpt lat="45.51452" lon="6.61039">
        <ele>1556.99</ele>
        <time>2015-03-15T11:39:32Z</time>
      </trkpt>
      <trkpt lat="45.51451" lon="6.61032">
        <ele>1556.99</ele>
        <time>2015-03-15T11:39:33Z</time>
      </trkpt>
      <trkpt lat="45.51451" lon="6.61024">
        <ele>1556.99</ele>
        <time>2015-03-15T11:39:34Z</time>
      </trkpt>
      <trkpt lat="45.51451" lon="6.61017">
        <ele>1556.99</ele>
        <time>2015-03-15T11:39:35Z</time>
      </trkpt>
      <trkpt lat="45.51452" lon="6.61013">
        <ele>1556.99</ele>
        <time>2015-03-15T11:39:36Z</time>
      </trkpt>
      <trkpt lat="45.51465" lon="6.60986">
        <ele>1554.59</ele>
        <time>2015-03-15T11:39:44Z</time>
      </trkpt>
      <trkpt lat="45.51467" lon="6.60975">
        <ele>1555.55</ele>
        <time>2015-03-15T11:39:53Z</time>
      </trkpt>
      <trkpt lat="45.51469" lon="6.60963">
        <ele>1554.59</ele>
        <time>2015-03-15T11:40:07Z</time>
      </trkpt>
      <trkpt lat="45.51482" lon="6.60966">
        <ele>1552.67</ele>
        <time>2015-03-15T11:40:16Z</time>
      </trkpt>
      <trkpt lat="45.51482" lon="6.60968">
        <ele>1552.67</ele>
        <time>2015-03-15T11:40:17Z</time>
      </trkpt>
      <trkpt lat="45.51483" lon="6.60969">
        <ele>1551.22</ele>
        <time>2015-03-15T11:40:18Z</time>
      </trkpt>
      <trkpt lat="45.51485" lon="6.60971">
        <ele>1550.74</ele>
        <time>2015-03-15T11:40:19Z</time>
      </trkpt>
      <trkpt lat="45.51487" lon="6.60972">
        <ele>1550.26</ele>
        <time>2015-03-15T11:40:20Z</time>
      </trkpt>
      <trkpt lat="45.51507" lon="6.60972">
        <ele>1548.82</ele>
        <time>2015-03-15T11:40:28Z</time>
      </trkpt>
      <trkpt lat="45.51511" lon="6.6097">
        <ele>1548.82</ele>
        <time>2015-03-15T11:40:30Z</time>
      </trkpt>
      <trkpt lat="45.51512" lon="6.60968">
        <ele>1548.82</ele>
        <time>2015-03-15T11:40:31Z</time>
      </trkpt>
      <trkpt lat="45.51515" lon="6.60965">
        <ele>1548.82</ele>
        <time>2015-03-15T11:40:32Z</time>
      </trkpt>
      <trkpt lat="45.51519" lon="6.60962">
        <ele>1548.82</ele>
        <time>2015-03-15T11:40:33Z</time>
      </trkpt>
      <trkpt lat="45.51533" lon="6.60951">
        <ele>1548.82</ele>
        <time>2015-03-15T11:40:36Z</time>
      </trkpt>
      <trkpt lat="45.51546" lon="6.60944">
        <ele>1548.82</ele>
        <time>2015-03-15T11:40:38Z</time>
      </trkpt>
      <trkpt lat="45.51546" lon="6.60933">
        <ele>1548.34</ele>
        <time>2015-03-15T11:40:40Z</time>
      </trkpt>
      <trkpt lat="45.51544" lon="6.60927">
        <ele>1547.86</ele>
        <time>2015-03-15T11:40:41Z</time>
      </trkpt>
      <trkpt lat="45.51521" lon="6.60885">
        <ele>1544.01</ele>
        <time>2015-03-15T11:40:51Z</time>
      </trkpt>
      <trkpt lat="45.51517" lon="6.60882">
        <ele>1544.01</ele>
        <time>2015-03-15T11:40:52Z</time>
      </trkpt>
      <trkpt lat="45.51495" lon="6.60865">
        <ele>1541.13</ele>
        <time>2015-03-15T11:40:57Z</time>
      </trkpt>
      <trkpt lat="45.5148" lon="6.60857">
        <ele>1540.65</ele>
        <time>2015-03-15T11:41:00Z</time>
      </trkpt>
      <trkpt lat="45.51475" lon="6.60855">
        <ele>1540.65</ele>
        <time>2015-03-15T11:41:01Z</time>
      </trkpt>
      <trkpt lat="45.51447" lon="6.60852">
        <ele>1537.29</ele>
        <time>2015-03-15T11:41:06Z</time>
      </trkpt>
      <trkpt lat="45.51443" lon="6.60854">
        <ele>1536.32</ele>
        <time>2015-03-15T11:41:07Z</time>
      </trkpt>
      <trkpt lat="45.51438" lon="6.60855">
        <ele>1535.84</ele>
        <time>2015-03-15T11:41:08Z</time>
      </trkpt>
      <trkpt lat="45.51434" lon="6.60858">
        <ele>1535.84</ele>
        <time>2015-03-15T11:41:09Z</time>
      </trkpt>
      <trkpt lat="45.5143" lon="6.60861">
        <ele>1533.92</ele>
        <time>2015-03-15T11:41:10Z</time>
      </trkpt>
      <trkpt lat="45.51426" lon="6.60864">
        <ele>1533.92</ele>
        <time>2015-03-15T11:41:11Z</time>
      </trkpt>
      <trkpt lat="45.51421" lon="6.60865">
        <ele>1533.92</ele>
        <time>2015-03-15T11:41:12Z</time>
      </trkpt>
      <trkpt lat="45.51415" lon="6.60867">
        <ele>1533.92</ele>
        <time>2015-03-15T11:41:13Z</time>
      </trkpt>
      <trkpt lat="45.51411" lon="6.60862">
        <ele>1532.96</ele>
        <time>2015-03-15T11:41:15Z</time>
      </trkpt>
      <trkpt lat="45.5141" lon="6.60857">
        <ele>1532</ele>
        <time>2015-03-15T11:41:16Z</time>
      </trkpt>
      <trkpt lat="45.51411" lon="6.60854">
        <ele>1531.52</ele>
        <time>2015-03-15T11:41:17Z</time>
      </trkpt>
      <trkpt lat="45.51412" lon="6.60851">
        <ele>1531.52</ele>
        <time>2015-03-15T11:41:18Z</time>
      </trkpt>
      <trkpt lat="45.51421" lon="6.60835">
        <ele>1530.08</ele>
        <time>2015-03-15T11:41:23Z</time>
      </trkpt>
      <trkpt lat="45.51424" lon="6.6083">
        <ele>1528.63</ele>
        <time>2015-03-15T11:41:24Z</time>
      </trkpt>
      <trkpt lat="45.51427" lon="6.60824">
        <ele>1528.15</ele>
        <time>2015-03-15T11:41:25Z</time>
      </trkpt>
      <trkpt lat="45.51431" lon="6.60817">
        <ele>1526.71</ele>
        <time>2015-03-15T11:41:26Z</time>
      </trkpt>
      <trkpt lat="45.51432" lon="6.6081">
        <ele>1525.27</ele>
        <time>2015-03-15T11:41:27Z</time>
      </trkpt>
      <trkpt lat="45.51431" lon="6.60802">
        <ele>1525.27</ele>
        <time>2015-03-15T11:41:28Z</time>
      </trkpt>
      <trkpt lat="45.5143" lon="6.60795">
        <ele>1524.79</ele>
        <time>2015-03-15T11:41:29Z</time>
      </trkpt>
      <trkpt lat="45.51427" lon="6.60787">
        <ele>1523.83</ele>
        <time>2015-03-15T11:41:30Z</time>
      </trkpt>
      <trkpt lat="45.51405" lon="6.60757">
        <ele>1519.98</ele>
        <time>2015-03-15T11:41:35Z</time>
      </trkpt>
      <trkpt lat="45.51401" lon="6.60752">
        <ele>1519.98</ele>
        <time>2015-03-15T11:41:36Z</time>
      </trkpt>
      <trkpt lat="45.51389" lon="6.60733">
        <ele>1516.14</ele>
        <time>2015-03-15T11:41:39Z</time>
      </trkpt>
      <trkpt lat="45.51373" lon="6.60706">
        <ele>1512.77</ele>
        <time>2015-03-15T11:41:43Z</time>
      </trkpt>
      <trkpt lat="45.51368" lon="6.60699">
        <ele>1512.77</ele>
        <time>2015-03-15T11:41:44Z</time>
      </trkpt>
      <trkpt lat="45.51363" lon="6.60693">
        <ele>1512.29</ele>
        <time>2015-03-15T11:41:45Z</time>
      </trkpt>
      <trkpt lat="45.51359" lon="6.60686">
        <ele>1510.85</ele>
        <time>2015-03-15T11:41:46Z</time>
      </trkpt>
      <trkpt lat="45.51355" lon="6.60679">
        <ele>1510.85</ele>
        <time>2015-03-15T11:41:47Z</time>
      </trkpt>
      <trkpt lat="45.51351" lon="6.60671">
        <ele>1510.85</ele>
        <time>2015-03-15T11:41:48Z</time>
      </trkpt>
      <trkpt lat="45.51348" lon="6.60664">
        <ele>1510.37</ele>
        <time>2015-03-15T11:41:49Z</time>
      </trkpt>
      <trkpt lat="45.51347" lon="6.60657">
        <ele>1509.41</ele>
        <time>2015-03-15T11:41:50Z</time>
      </trkpt>
      <trkpt lat="45.51346" lon="6.60651">
        <ele>1508.93</ele>
        <time>2015-03-15T11:41:51Z</time>
      </trkpt>
      <trkpt lat="45.51346" lon="6.60644">
        <ele>1508.45</ele>
        <time>2015-03-15T11:41:52Z</time>
      </trkpt>
      <trkpt lat="45.51347" lon="6.60636">
        <ele>1508.45</ele>
        <time>2015-03-15T11:41:53Z</time>
      </trkpt>
      <trkpt lat="45.51348" lon="6.60628">
        <ele>1507.48</ele>
        <time>2015-03-15T11:41:54Z</time>
      </trkpt>
      <trkpt lat="45.51353" lon="6.60599">
        <ele>1504.6</ele>
        <time>2015-03-15T11:41:57Z</time>
      </trkpt>
      <trkpt lat="45.51356" lon="6.60591">
        <ele>1503.16</ele>
        <time>2015-03-15T11:41:58Z</time>
      </trkpt>
      <trkpt lat="45.51361" lon="6.60586">
        <ele>1501.72</ele>
        <time>2015-03-15T11:41:59Z</time>
      </trkpt>
      <trkpt lat="45.51366" lon="6.60582">
        <ele>1500.76</ele>
        <time>2015-03-15T11:42:00Z</time>
      </trkpt>
      <trkpt lat="45.51372" lon="6.60581">
        <ele>1499.79</ele>
        <time>2015-03-15T11:42:01Z</time>
      </trkpt>
      <trkpt lat="45.5138" lon="6.60581">
        <ele>1499.31</ele>
        <time>2015-03-15T11:42:02Z</time>
      </trkpt>
      <trkpt lat="45.51396" lon="6.60576">
        <ele>1496.43</ele>
        <time>2015-03-15T11:42:04Z</time>
      </trkpt>
      <trkpt lat="45.51403" lon="6.60573">
        <ele>1496.43</ele>
        <time>2015-03-15T11:42:05Z</time>
      </trkpt>
      <trkpt lat="45.51407" lon="6.60572">
        <ele>1496.43</ele>
        <time>2015-03-15T11:42:06Z</time>
      </trkpt>
      <trkpt lat="45.51407" lon="6.60572">
        <ele>1495.47</ele>
        <time>2015-03-15T11:42:08Z</time>
      </trkpt>
      <trkpt lat="45.51404" lon="6.60572">
        <ele>1494.51</ele>
        <time>2015-03-15T11:42:09Z</time>
      </trkpt>
      <trkpt lat="45.514" lon="6.6057">
        <ele>1494.51</ele>
        <time>2015-03-15T11:42:10Z</time>
      </trkpt>
      <trkpt lat="45.51389" lon="6.60565">
        <ele>1492.58</ele>
        <time>2015-03-15T11:42:13Z</time>
      </trkpt>
      <trkpt lat="45.51353" lon="6.60558">
        <ele>1491.62</ele>
        <time>2015-03-15T11:42:27Z</time>
      </trkpt>
      <trkpt lat="45.51345" lon="6.60548">
        <ele>1490.18</ele>
        <time>2015-03-15T11:42:44Z</time>
      </trkpt>
      <trkpt lat="45.5134" lon="6.60548">
        <ele>1490.18</ele>
        <time>2015-03-15T11:42:59Z</time>
      </trkpt>
      <trkpt lat="45.51324" lon="6.60543">
        <ele>1488.74</ele>
        <time>2015-03-15T11:43:14Z</time>
      </trkpt>
      <trkpt lat="45.51308" lon="6.60534">
        <ele>1484.89</ele>
        <time>2015-03-15T11:43:25Z</time>
      </trkpt>
      <trkpt lat="45.51291" lon="6.60525">
        <ele>1481.53</ele>
        <time>2015-03-15T11:43:31Z</time>
      </trkpt>
      <trkpt lat="45.51288" lon="6.60523">
        <ele>1480.57</ele>
        <time>2015-03-15T11:43:32Z</time>
      </trkpt>
      <trkpt lat="45.51279" lon="6.60516">
        <ele>1477.2</ele>
        <time>2015-03-15T11:43:35Z</time>
      </trkpt>
      <trkpt lat="45.51273" lon="6.60511">
        <ele>1475.28</ele>
        <time>2015-03-15T11:43:37Z</time>
      </trkpt>
      <trkpt lat="45.51269" lon="6.60508">
        <ele>1474.8</ele>
        <time>2015-03-15T11:43:38Z</time>
      </trkpt>
      <trkpt lat="45.51261" lon="6.605">
        <ele>1471.44</ele>
        <time>2015-03-15T11:43:40Z</time>
      </trkpt>
      <trkpt lat="45.51232" lon="6.60482">
        <ele>1468.07</ele>
        <time>2015-03-15T11:43:45Z</time>
      </trkpt>
      <trkpt lat="45.51222" lon="6.60473">
        <ele>1467.11</ele>
        <time>2015-03-15T11:43:46Z</time>
      </trkpt>
      <trkpt lat="45.51169" lon="6.60436">
        <ele>1464.71</ele>
        <time>2015-03-15T11:43:51Z</time>
      </trkpt>
      <trkpt lat="45.51154" lon="6.60423">
        <ele>1463.74</ele>
        <time>2015-03-15T11:43:53Z</time>
      </trkpt>
      <trkpt lat="45.51149" lon="6.60419">
        <ele>1463.26</ele>
        <time>2015-03-15T11:43:54Z</time>
      </trkpt>
      <trkpt lat="45.51128" lon="6.60407">
        <ele>1460.38</ele>
        <time>2015-03-15T11:43:57Z</time>
      </trkpt>
      <trkpt lat="45.511" lon="6.60396">
        <ele>1457.02</ele>
        <time>2015-03-15T11:44:00Z</time>
      </trkpt>
      <trkpt lat="45.5109" lon="6.60392">
        <ele>1455.57</ele>
        <time>2015-03-15T11:44:01Z</time>
      </trkpt>
      <trkpt lat="45.51073" lon="6.60381">
        <ele>1454.61</ele>
        <time>2015-03-15T11:44:03Z</time>
      </trkpt>
      <trkpt lat="45.51031" lon="6.60359">
        <ele>1450.29</ele>
        <time>2015-03-15T11:44:07Z</time>
      </trkpt>
      <trkpt lat="45.51004" lon="6.6034">
        <ele>1446.92</ele>
        <time>2015-03-15T11:44:10Z</time>
      </trkpt>
      <trkpt lat="45.50988" lon="6.60329">
        <ele>1446.92</ele>
        <time>2015-03-15T11:44:12Z</time>
      </trkpt>
      <trkpt lat="45.50982" lon="6.60326">
        <ele>1447.88</ele>
        <time>2015-03-15T11:44:13Z</time>
      </trkpt>
      <trkpt lat="45.50967" lon="6.60318">
        <ele>1444.52</ele>
        <time>2015-03-15T11:44:15Z</time>
      </trkpt>
      <trkpt lat="45.50943" lon="6.60302">
        <ele>1441.63</ele>
        <time>2015-03-15T11:44:19Z</time>
      </trkpt>
      <trkpt lat="45.50926" lon="6.60292">
        <ele>1438.75</ele>
        <time>2015-03-15T11:44:21Z</time>
      </trkpt>
      <trkpt lat="45.50861" lon="6.60246">
        <ele>1435.87</ele>
        <time>2015-03-15T11:44:30Z</time>
      </trkpt>
      <trkpt lat="45.50855" lon="6.6024">
        <ele>1435.39</ele>
        <time>2015-03-15T11:44:31Z</time>
      </trkpt>
      <trkpt lat="45.5085" lon="6.60234">
        <ele>1435.39</ele>
        <time>2015-03-15T11:44:32Z</time>
      </trkpt>
      <trkpt lat="45.50845" lon="6.60228">
        <ele>1435.39</ele>
        <time>2015-03-15T11:44:33Z</time>
      </trkpt>
      <trkpt lat="45.50841" lon="6.60221">
        <ele>1435.39</ele>
        <time>2015-03-15T11:44:34Z</time>
      </trkpt>
      <trkpt lat="45.50837" lon="6.60214">
        <ele>1434.42</ele>
        <time>2015-03-15T11:44:35Z</time>
      </trkpt>
      <trkpt lat="45.50833" lon="6.60209">
        <ele>1434.42</ele>
        <time>2015-03-15T11:44:36Z</time>
      </trkpt>
      <trkpt lat="45.50828" lon="6.60203">
        <ele>1432.98</ele>
        <time>2015-03-15T11:44:37Z</time>
      </trkpt>
      <trkpt lat="45.50825" lon="6.602">
        <ele>1432.5</ele>
        <time>2015-03-15T11:44:38Z</time>
      </trkpt>
      <trkpt lat="45.50818" lon="6.60191">
        <ele>1431.54</ele>
        <time>2015-03-15T11:44:39Z</time>
      </trkpt>
      <trkpt lat="45.50812" lon="6.60184">
        <ele>1430.1</ele>
        <time>2015-03-15T11:44:40Z</time>
      </trkpt>
      <trkpt lat="45.50801" lon="6.60169">
        <ele>1427.7</ele>
        <time>2015-03-15T11:44:42Z</time>
      </trkpt>
      <trkpt lat="45.50795" lon="6.60162">
        <ele>1427.7</ele>
        <time>2015-03-15T11:44:43Z</time>
      </trkpt>
      <trkpt lat="45.50778" lon="6.60137">
        <ele>1424.33</ele>
        <time>2015-03-15T11:44:46Z</time>
      </trkpt>
      <trkpt lat="45.50774" lon="6.60128">
        <ele>1423.37</ele>
        <time>2015-03-15T11:44:47Z</time>
      </trkpt>
      <trkpt lat="45.50761" lon="6.60098">
        <ele>1419.52</ele>
        <time>2015-03-15T11:44:50Z</time>
      </trkpt>
      <trkpt lat="45.50758" lon="6.60086">
        <ele>1419.52</ele>
        <time>2015-03-15T11:44:51Z</time>
      </trkpt>
      <trkpt lat="45.50747" lon="6.60053">
        <ele>1417.6</ele>
        <time>2015-03-15T11:44:54Z</time>
      </trkpt>
      <trkpt lat="45.50745" lon="6.60042">
        <ele>1417.6</ele>
        <time>2015-03-15T11:44:55Z</time>
      </trkpt>
      <trkpt lat="45.50741" lon="6.60032">
        <ele>1417.6</ele>
        <time>2015-03-15T11:44:56Z</time>
      </trkpt>
      <trkpt lat="45.50733" lon="6.60014">
        <ele>1414.72</ele>
        <time>2015-03-15T11:44:58Z</time>
      </trkpt>
      <trkpt lat="45.50729" lon="6.60005">
        <ele>1413.28</ele>
        <time>2015-03-15T11:44:59Z</time>
      </trkpt>
      <trkpt lat="45.50721" lon="6.59986">
        <ele>1411.83</ele>
        <time>2015-03-15T11:45:01Z</time>
      </trkpt>
      <trkpt lat="45.50709" lon="6.59956">
        <ele>1411.83</ele>
        <time>2015-03-15T11:45:04Z</time>
      </trkpt>
      <trkpt lat="45.50704" lon="6.59947">
        <ele>1410.87</ele>
        <time>2015-03-15T11:45:05Z</time>
      </trkpt>
      <trkpt lat="45.50698" lon="6.5994">
        <ele>1409.91</ele>
        <time>2015-03-15T11:45:06Z</time>
      </trkpt>
      <trkpt lat="45.50682" lon="6.5992">
        <ele>1406.55</ele>
        <time>2015-03-15T11:45:09Z</time>
      </trkpt>
      <trkpt lat="45.50677" lon="6.59912">
        <ele>1405.1</ele>
        <time>2015-03-15T11:45:10Z</time>
      </trkpt>
      <trkpt lat="45.50672" lon="6.59901">
        <ele>1404.14</ele>
        <time>2015-03-15T11:45:11Z</time>
      </trkpt>
      <trkpt lat="45.50669" lon="6.59888">
        <ele>1404.14</ele>
        <time>2015-03-15T11:45:12Z</time>
      </trkpt>
      <trkpt lat="45.50667" lon="6.59873">
        <ele>1404.14</ele>
        <time>2015-03-15T11:45:13Z</time>
      </trkpt>
      <trkpt lat="45.50667" lon="6.59858">
        <ele>1405.1</ele>
        <time>2015-03-15T11:45:14Z</time>
      </trkpt>
      <trkpt lat="45.50667" lon="6.5983">
        <ele>1402.22</ele>
        <time>2015-03-15T11:45:16Z</time>
      </trkpt>
      <trkpt lat="45.50667" lon="6.59858">
        <ele>1400.78</ele>
        <time>2015-03-15T11:45:18Z</time>
      </trkpt>
      <trkpt lat="45.50676" lon="6.59782">
        <ele>1397.41</ele>
        <time>2015-03-15T11:45:20Z</time>
      </trkpt>
      <trkpt lat="45.50675" lon="6.59768">
        <ele>1397.41</ele>
        <time>2015-03-15T11:45:21Z</time>
      </trkpt>
      <trkpt lat="45.5067" lon="6.59696">
        <ele>1395.01</ele>
        <time>2015-03-15T11:45:28Z</time>
      </trkpt>
      <trkpt lat="45.50669" lon="6.59689">
        <ele>1395.01</ele>
        <time>2015-03-15T11:45:29Z</time>
      </trkpt>
      <trkpt lat="45.50669" lon="6.59675">
        <ele>1390.68</ele>
        <time>2015-03-15T11:45:32Z</time>
      </trkpt>
      <trkpt lat="45.50676" lon="6.59683">
        <ele>1386.84</ele>
        <time>2015-03-15T11:45:34Z</time>
      </trkpt>
      <trkpt lat="45.50688" lon="6.59695">
        <ele>1384.92</ele>
        <time>2015-03-15T11:45:37Z</time>
      </trkpt>
      <trkpt lat="45.50693" lon="6.597">
        <ele>1384.92</ele>
        <time>2015-03-15T11:45:38Z</time>
      </trkpt>
      <trkpt lat="45.50698" lon="6.59706">
        <ele>1382.99</ele>
        <time>2015-03-15T11:45:39Z</time>
      </trkpt>
      <trkpt lat="45.5071" lon="6.5973">
        <ele>1379.63</ele>
        <time>2015-03-15T11:45:42Z</time>
      </trkpt>
      <trkpt lat="45.50722" lon="6.59757">
        <ele>1375.78</ele>
        <time>2015-03-15T11:45:45Z</time>
      </trkpt>
      <trkpt lat="45.50742" lon="6.59815">
        <ele>1374.82</ele>
        <time>2015-03-15T11:45:52Z</time>
      </trkpt>
      <trkpt lat="45.50747" lon="6.59824">
        <ele>1371.94</ele>
        <time>2015-03-15T11:45:54Z</time>
      </trkpt>
      <trkpt lat="45.50755" lon="6.59832">
        <ele>1369.54</ele>
        <time>2015-03-15T11:45:56Z</time>
      </trkpt>
      <trkpt lat="45.5076" lon="6.59834">
        <ele>1366.17</ele>
        <time>2015-03-15T11:45:57Z</time>
      </trkpt>
      <trkpt lat="45.50764" lon="6.59835">
        <ele>1363.29</ele>
        <time>2015-03-15T11:45:58Z</time>
      </trkpt>
      <trkpt lat="45.50769" lon="6.59834">
        <ele>1358.48</ele>
        <time>2015-03-15T11:45:59Z</time>
      </trkpt>
      <trkpt lat="45.50775" lon="6.59834">
        <ele>1352.71</ele>
        <time>2015-03-15T11:46:00Z</time>
      </trkpt>
      <trkpt lat="45.50784" lon="6.59837">
        <ele>1350.31</ele>
        <time>2015-03-15T11:46:01Z</time>
      </trkpt>
      <trkpt lat="45.50793" lon="6.5984">
        <ele>1353.67</ele>
        <time>2015-03-15T11:46:02Z</time>
      </trkpt>
      <trkpt lat="45.50803" lon="6.59841">
        <ele>1353.67</ele>
        <time>2015-03-15T11:46:03Z</time>
      </trkpt>
      <trkpt lat="45.50812" lon="6.5984">
        <ele>1349.35</ele>
        <time>2015-03-15T11:46:04Z</time>
      </trkpt>
      <trkpt lat="45.50823" lon="6.5984">
        <ele>1346.94</ele>
        <time>2015-03-15T11:46:05Z</time>
      </trkpt>
      <trkpt lat="45.50834" lon="6.59841">
        <ele>1345.5</ele>
        <time>2015-03-15T11:46:06Z</time>
      </trkpt>
      <trkpt lat="45.50845" lon="6.59845">
        <ele>1341.18</ele>
        <time>2015-03-15T11:46:07Z</time>
      </trkpt>
      <trkpt lat="45.50866" lon="6.59852">
        <ele>1338.77</ele>
        <time>2015-03-15T11:46:09Z</time>
      </trkpt>
      <trkpt lat="45.50876" lon="6.59857">
        <ele>1335.89</ele>
        <time>2015-03-15T11:46:10Z</time>
      </trkpt>
      <trkpt lat="45.50885" lon="6.59862">
        <ele>1337.81</ele>
        <time>2015-03-15T11:46:11Z</time>
      </trkpt>
      <trkpt lat="45.50899" lon="6.59875">
        <ele>1336.37</ele>
        <time>2015-03-15T11:46:13Z</time>
      </trkpt>
      <trkpt lat="45.50903" lon="6.59883">
        <ele>1336.37</ele>
        <time>2015-03-15T11:46:14Z</time>
      </trkpt>
      <trkpt lat="45.50908" lon="6.59902">
        <ele>1338.29</ele>
        <time>2015-03-15T11:46:16Z</time>
      </trkpt>
      <trkpt lat="45.50922" lon="6.59947">
        <ele>1334.45</ele>
        <time>2015-03-15T11:46:21Z</time>
      </trkpt>
      <trkpt lat="45.50925" lon="6.59957">
        <ele>1334.45</ele>
        <time>2015-03-15T11:46:22Z</time>
      </trkpt>
      <trkpt lat="45.5093" lon="6.59975">
        <ele>1333.49</ele>
        <time>2015-03-15T11:46:24Z</time>
      </trkpt>
      <trkpt lat="45.50933" lon="6.59984">
        <ele>1332.04</ele>
        <time>2015-03-15T11:46:25Z</time>
      </trkpt>
      <trkpt lat="45.50936" lon="6.59992">
        <ele>1332.04</ele>
        <time>2015-03-15T11:46:26Z</time>
      </trkpt>
      <trkpt lat="45.50939" lon="6.6">
        <ele>1332.04</ele>
        <time>2015-03-15T11:46:27Z</time>
      </trkpt>
      <trkpt lat="45.50943" lon="6.60007">
        <ele>1331.56</ele>
        <time>2015-03-15T11:46:28Z</time>
      </trkpt>
      <trkpt lat="45.50948" lon="6.60012">
        <ele>1331.08</ele>
        <time>2015-03-15T11:46:29Z</time>
      </trkpt>
      <trkpt lat="45.50953" lon="6.60017">
        <ele>1330.6</ele>
        <time>2015-03-15T11:46:30Z</time>
      </trkpt>
      <trkpt lat="45.50958" lon="6.60022">
        <ele>1330.6</ele>
        <time>2015-03-15T11:46:31Z</time>
      </trkpt>
      <trkpt lat="45.50963" lon="6.60026">
        <ele>1329.16</ele>
        <time>2015-03-15T11:46:32Z</time>
      </trkpt>
      <trkpt lat="45.50968" lon="6.6003">
        <ele>1328.68</ele>
        <time>2015-03-15T11:46:33Z</time>
      </trkpt>
      <trkpt lat="45.5098" lon="6.60037">
        <ele>1327.72</ele>
        <time>2015-03-15T11:46:35Z</time>
      </trkpt>
      <trkpt lat="45.51004" lon="6.60049">
        <ele>1325.31</ele>
        <time>2015-03-15T11:46:39Z</time>
      </trkpt>
      <trkpt lat="45.51018" lon="6.60055">
        <ele>1323.87</ele>
        <time>2015-03-15T11:46:41Z</time>
      </trkpt>
      <trkpt lat="45.51047" lon="6.60077">
        <ele>1321.47</ele>
        <time>2015-03-15T11:46:46Z</time>
      </trkpt>
      <trkpt lat="45.51074" lon="6.60093">
        <ele>1318.1</ele>
        <time>2015-03-15T11:46:50Z</time>
      </trkpt>
      <trkpt lat="45.51081" lon="6.60095">
        <ele>1317.62</ele>
        <time>2015-03-15T11:46:51Z</time>
      </trkpt>
      <trkpt lat="45.51102" lon="6.60098">
        <ele>1314.74</ele>
        <time>2015-03-15T11:46:54Z</time>
      </trkpt>
      <trkpt lat="45.51125" lon="6.60096">
        <ele>1312.34</ele>
        <time>2015-03-15T11:46:57Z</time>
      </trkpt>
      <trkpt lat="45.51132" lon="6.60095">
        <ele>1312.34</ele>
        <time>2015-03-15T11:46:58Z</time>
      </trkpt>
      <trkpt lat="45.51136" lon="6.60094">
        <ele>1314.26</ele>
        <time>2015-03-15T11:47:01Z</time>
      </trkpt>
      <trkpt lat="45.5114" lon="6.6009">
        <ele>1314.74</ele>
        <time>2015-03-15T11:47:33Z</time>
      </trkpt>
      <trkpt lat="45.51143" lon="6.60086">
        <ele>1314.74</ele>
        <time>2015-03-15T11:47:55Z</time>
      </trkpt>
      <trkpt lat="45.51144" lon="6.60085">
        <ele>1313.3</ele>
        <time>2015-03-15T11:48:01Z</time>
      </trkpt>
      <trkpt lat="45.51146" lon="6.60084">
        <ele>1312.34</ele>
        <time>2015-03-15T11:48:14Z</time>
      </trkpt>
      <trkpt lat="45.51149" lon="6.60082">
        <ele>1312.34</ele>
        <time>2015-03-15T11:48:17Z</time>
      </trkpt>
      <trkpt lat="45.51174" lon="6.60065">
        <ele>1309.93</ele>
        <time>2015-03-15T11:48:29Z</time>
      </trkpt>
      <trkpt lat="45.51194" lon="6.60043">
        <ele>1308.49</ele>
        <time>2015-03-15T11:48:44Z</time>
      </trkpt>
      <trkpt lat="45.51197" lon="6.60039">
        <ele>1308.49</ele>
        <time>2015-03-15T11:49:03Z</time>
      </trkpt>
      <trkpt lat="45.51207" lon="6.60037">
        <ele>1306.57</ele>
        <time>2015-03-15T11:49:14Z</time>
      </trkpt>
      <trkpt lat="45.51211" lon="6.60038">
        <ele>1306.57</ele>
        <time>2015-03-15T11:49:16Z</time>
      </trkpt>
      <trkpt lat="45.51222" lon="6.60035">
        <ele>1305.61</ele>
        <time>2015-03-15T11:49:29Z</time>
      </trkpt>
      <trkpt lat="45.51225" lon="6.60033">
        <ele>1305.61</ele>
        <time>2015-03-15T11:49:31Z</time>
      </trkpt>
      <trkpt lat="45.51226" lon="6.60032">
        <ele>1305.13</ele>
        <time>2015-03-15T11:49:32Z</time>
      </trkpt>
      <trkpt lat="45.51229" lon="6.60027">
        <ele>1304.17</ele>
        <time>2015-03-15T11:49:35Z</time>
      </trkpt>
      <trkpt lat="45.51231" lon="6.60024">
        <ele>1303.69</ele>
        <time>2015-03-15T11:49:37Z</time>
      </trkpt>
      <trkpt lat="45.51232" lon="6.60023">
        <ele>1303.69</ele>
        <time>2015-03-15T11:49:38Z</time>
      </trkpt>
      <trkpt lat="45.51234" lon="6.60021">
        <ele>1303.69</ele>
        <time>2015-03-15T11:49:39Z</time>
      </trkpt>
      <trkpt lat="45.51236" lon="6.6002">
        <ele>1303.2</ele>
        <time>2015-03-15T11:49:40Z</time>
      </trkpt>
      <trkpt lat="45.51239" lon="6.6002">
        <ele>1302.72</ele>
        <time>2015-03-15T11:49:41Z</time>
      </trkpt>
      <trkpt lat="45.51243" lon="6.60019">
        <ele>1302.72</ele>
        <time>2015-03-15T11:49:42Z</time>
      </trkpt>
      <trkpt lat="45.51248" lon="6.60018">
        <ele>1301.76</ele>
        <time>2015-03-15T11:49:43Z</time>
      </trkpt>
      <trkpt lat="45.51252" lon="6.60017">
        <ele>1301.76</ele>
        <time>2015-03-15T11:49:44Z</time>
      </trkpt>
      <trkpt lat="45.51257" lon="6.60016">
        <ele>1301.76</ele>
        <time>2015-03-15T11:49:45Z</time>
      </trkpt>
      <trkpt lat="45.5126" lon="6.60015">
        <ele>1301.76</ele>
        <time>2015-03-15T11:49:46Z</time>
      </trkpt>
      <trkpt lat="45.51265" lon="6.60013">
        <ele>1301.28</ele>
        <time>2015-03-15T11:49:47Z</time>
      </trkpt>
      <trkpt lat="45.51269" lon="6.60011">
        <ele>1301.28</ele>
        <time>2015-03-15T11:49:48Z</time>
      </trkpt>
      <trkpt lat="45.51274" lon="6.60008">
        <ele>1301.28</ele>
        <time>2015-03-15T11:49:49Z</time>
      </trkpt>
      <trkpt lat="45.51279" lon="6.60004">
        <ele>1301.28</ele>
        <time>2015-03-15T11:49:50Z</time>
      </trkpt>
      <trkpt lat="45.51283" lon="6.60001">
        <ele>1300.32</ele>
        <time>2015-03-15T11:49:51Z</time>
      </trkpt>
      <trkpt lat="45.51289" lon="6.59991">
        <ele>1299.84</ele>
        <time>2015-03-15T11:49:53Z</time>
      </trkpt>
      <trkpt lat="45.51291" lon="6.59986">
        <ele>1298.88</ele>
        <time>2015-03-15T11:49:54Z</time>
      </trkpt>
      <trkpt lat="45.51293" lon="6.5998">
        <ele>1298.4</ele>
        <time>2015-03-15T11:49:55Z</time>
      </trkpt>
      <trkpt lat="45.51295" lon="6.59975">
        <ele>1297.92</ele>
        <time>2015-03-15T11:49:56Z</time>
      </trkpt>
      <trkpt lat="45.51297" lon="6.5997">
        <ele>1297.92</ele>
        <time>2015-03-15T11:49:57Z</time>
      </trkpt>
      <trkpt lat="45.51296" lon="6.5992">
        <ele>1296.48</ele>
        <time>2015-03-15T11:50:08Z</time>
      </trkpt>
      <trkpt lat="45.51293" lon="6.5991">
        <ele>1295.99</ele>
        <time>2015-03-15T11:50:19Z</time>
      </trkpt>
      <trkpt lat="45.51294" lon="6.59909">
        <ele>1297.44</ele>
        <time>2015-03-15T11:50:30Z</time>
      </trkpt>
      <trkpt lat="45.51294" lon="6.59909">
        <ele>1295.51</ele>
        <time>2015-03-15T11:50:33Z</time>
      </trkpt>
      <trkpt lat="45.51296" lon="6.59911">
        <ele>1296.48</ele>
        <time>2015-03-15T11:50:52Z</time>
      </trkpt>
      <trkpt lat="45.51294" lon="6.59908">
        <ele>1296.48</ele>
        <time>2015-03-15T11:51:08Z</time>
      </trkpt>
      <trkpt lat="45.51292" lon="6.59903">
        <ele>1295.99</ele>
        <time>2015-03-15T11:51:21Z</time>
      </trkpt>
      <trkpt lat="45.51292" lon="6.59902">
        <ele>1295.99</ele>
        <time>2015-03-15T11:51:22Z</time>
      </trkpt>
      <trkpt lat="45.51292" lon="6.599">
        <ele>1295.99</ele>
        <time>2015-03-15T11:51:24Z</time>
      </trkpt>
      <trkpt lat="45.51293" lon="6.59885">
        <ele>1295.03</ele>
        <time>2015-03-15T11:51:36Z</time>
      </trkpt>
      <trkpt lat="45.51297" lon="6.59875">
        <ele>1294.55</ele>
        <time>2015-03-15T11:51:48Z</time>
      </trkpt>
      <trkpt lat="45.51301" lon="6.59873">
        <ele>1294.07</ele>
        <time>2015-03-15T11:51:52Z</time>
      </trkpt>
      <trkpt lat="45.51302" lon="6.59872">
        <ele>1294.07</ele>
        <time>2015-03-15T11:51:53Z</time>
      </trkpt>
      <trkpt lat="45.51305" lon="6.5987">
        <ele>1293.59</ele>
        <time>2015-03-15T11:51:56Z</time>
      </trkpt>
      <trkpt lat="45.51307" lon="6.5987">
        <ele>1293.59</ele>
        <time>2015-03-15T11:51:57Z</time>
      </trkpt>
      <trkpt lat="45.51309" lon="6.5987">
        <ele>1293.59</ele>
        <time>2015-03-15T11:51:58Z</time>
      </trkpt>
      <trkpt lat="45.5131" lon="6.5987">
        <ele>1293.59</ele>
        <time>2015-03-15T11:51:59Z</time>
      </trkpt>
      <trkpt lat="45.51311" lon="6.59869">
        <ele>1293.11</ele>
        <time>2015-03-15T11:52:00Z</time>
      </trkpt>
      <trkpt lat="45.51316" lon="6.59868">
        <ele>1293.11</ele>
        <time>2015-03-15T11:52:05Z</time>
      </trkpt>
      <trkpt lat="45.51325" lon="6.59862">
        <ele>1292.15</ele>
        <time>2015-03-15T11:52:16Z</time>
      </trkpt>
      <trkpt lat="45.51326" lon="6.5986">
        <ele>1291.19</ele>
        <time>2015-03-15T11:52:17Z</time>
      </trkpt>
      <trkpt lat="45.51328" lon="6.59859">
        <ele>1291.19</ele>
        <time>2015-03-15T11:52:18Z</time>
      </trkpt>
      <trkpt lat="45.51336" lon="6.59846">
        <ele>1291.19</ele>
        <time>2015-03-15T11:52:28Z</time>
      </trkpt>
      <trkpt lat="45.51333" lon="6.59842">
        <ele>1291.19</ele>
        <time>2015-03-15T11:52:44Z</time>
      </trkpt>
      <trkpt lat="45.51336" lon="6.59843">
        <ele>1291.67</ele>
        <time>2015-03-15T11:53:00Z</time>
      </trkpt>
      <trkpt lat="45.51335" lon="6.59844">
        <ele>1291.67</ele>
        <time>2015-03-15T11:53:13Z</time>
      </trkpt>
      <trkpt lat="45.51339" lon="6.59846">
        <ele>1292.63</ele>
        <time>2015-03-15T11:53:27Z</time>
      </trkpt>
      <trkpt lat="45.51342" lon="6.59845">
        <ele>1291.67</ele>
        <time>2015-03-15T11:53:45Z</time>
      </trkpt>
      <trkpt lat="45.51342" lon="6.59846">
        <ele>1293.11</ele>
        <time>2015-03-15T11:53:52Z</time>
      </trkpt>
      <trkpt lat="45.51342" lon="6.59846">
        <ele>1292.15</ele>
        <time>2015-03-15T11:53:55Z</time>
      </trkpt>
      <trkpt lat="45.51342" lon="6.59848">
        <ele>1290.71</ele>
        <time>2015-03-15T11:54:12Z</time>
      </trkpt>
      <trkpt lat="45.51342" lon="6.59843">
        <ele>1291.19</ele>
        <time>2015-03-15T11:54:28Z</time>
      </trkpt>
      <trkpt lat="45.51338" lon="6.59844">
        <ele>1291.19</ele>
        <time>2015-03-15T11:54:44Z</time>
      </trkpt>
      <trkpt lat="45.51339" lon="6.59844">
        <ele>1291.19</ele>
        <time>2015-03-15T11:54:55Z</time>
      </trkpt>
    </trkseg>
  </trk>
</gpx>